GFSSE_sfc_dewp_000.txt.gz
Dewpoint
64 67 74 73 72 71 70 68 67 66 65 64 65 66 67 67 66 65 64 63 63 62 61 62 63 65 67 68 67 66 65 63 62 62 62 62 63 64 64 63 63 63 62
65 68 74 74 72 71 69 68 67 66 66 64 64 65 64 62 63 64 65 64 62 61 60 59 61 61 62 64 65 65 65 64 63 62 63 63 63 63 64 64 65 61 62
66 69 73 74 73 71 70 68 67 66 66 63 63 63 61 60 63 64 64 63 62 60 60 59 60 59 60 62 62 62 63 63 63 63 63 61 60 62 63 64 63 61 62
69 72 73 74 72 71 70 69 67 66 64 63 62 62 63 62 64 63 64 61 60 60 60 59 60 60 59 59 60 61 61 61 62 64 61 61 61 63 63 63 63 62 62
71 72 72 74 73 72 70 69 68 66 64 63 63 61 62 63 65 63 61 62 62 62 61 60 60 62 63 63 63 63 62 60 63 63 60 60 60 62 63 61 63 63 62
71 71 73 74 73 73 72 69 68 67 65 63 63 63 63 64 64 65 65 66 66 64 61 61 61 61 61 63 64 64 65 64 65 60 60 60 60 62 61 62 62 61 63
69 70 72 74 73 73 71 70 68 67 65 64 63 63 63 65 65 67 67 66 65 64 62 62 62 63 63 64 63 63 64 66 62 60 59 59 59 63 62 61 61 61 61
69 70 72 73 73 73 72 71 69 67 66 64 63 64 64 65 66 67 67 67 65 63 64 64 65 65 64 64 64 64 65 66 63 61 60 60 62 65 65 64 63 63 62
69 70 71 72 72 72 72 71 70 68 67 65 66 66 66 65 64 66 67 67 66 66 65 66 65 65 65 65 65 66 67 66 63 61 61 61 63 65 65 65 65 65 64
68 70 71 71 71 70 70 70 70 69 69 68 68 67 67 67 66 66 68 67 66 65 66 66 66 66 66 66 66 67 67 65 61 60 60 61 64 66 66 66 66 66 66
68 69 71 70 70 69 69 69 70 69 68 68 67 67 65 61 61 62 65 66 66 67 66 66 67 67 65 64 65 64 62 60 58 59 59 62 64 65 65 65 66 66 66
66 68 69 68 68 68 70 68 67 68 67 66 65 63 62 60 59 61 62 65 66 66 65 65 65 61 57 57 56 54 53 53 54 55 58 61 62 61 61 61 63 64 64
65 66 68 68 68 67 67 66 66 66 65 65 63 62 62 60 59 60 60 60 60 62 63 59 49 47 44 45 44 43 44 47 48 49 52 57 58 59 59 59 61 61 64
62 66 67 67 67 67 66 65 65 64 64 63 63 62 61 59 59 59 61 60 60 60 45 44 42 38 38 36 36 36 38 38 38 43 49 55 56 56 57 58 60 61 59
58 62 65 67 66 66 65 64 64 63 63 63 62 62 61 60 60 58 50 46 44 42 39 36 34 35 32 32 30 33 34 30 36 41 44 51 51 53 56 55 55 54 55
49 58 63 65 66 66 65 63 63 63 62 61 61 61 61 61 49 45 45 43 40 39 34 31 32 32 29 29 26 29 32 28 36 32 37 40 45 50 49 50 50 50 53
41 46 62 64 65 65 65 63 63 62 61 60 60 61 56 41 42 42 41 37 35 33 30 28 28 31 28 26 23 28 31 27 28 27 29 36 38 42 44 46 47 48 50
47 55 61 63 64 64 63 62 62 60 55 50 48 45 40 40 39 38 36 34 31 31 30 28 28 28 28 26 24 27 29 28 26 20 26 32 31 30 37 41 43 44 45
50 58 61 63 63 63 59 56 53 49 50 43 41 41 38 35 34 35 33 31 30 30 29 27 27 27 29 25 23 27 28 28 25 20 25 27 24 28 31 34 38 40 41
53 59 63 63 62 53 49 46 46 42 39 38 36 35 32 31 31 32 31 29 28 29 27 25 25 25 30 28 27 27 29 33 26 21 26 24 24 26 29 25 31 33 38
53 59 63 61 53 50 49 46 45 41 35 32 31 30 30 29 30 30 30 28 27 26 24 24 25 25 24 29 28 27 30 30 30 27 22 24 23 24 27 24 27 31 32
53 58 60 56 50 51 50 45 40 35 32 29 30 28 28 28 28 28 27 26 24 24 22 22 23 22 23 26 24 27 23 23 24 16 22 23 19 24 24 21 24 26 29
52 56 55 50 49 49 41 39 33 29 28 27 26 27 27 27 27 26 24 24 23 24 23 22 22 20 21 21 27 20 14 16 24 24 21 22 15 23 22 25 24 25 28
52 53 48 47 47 42 40 36 32 29 25 27 26 25 25 25 25 24 23 22 22 23 20 20 19 21 21 20 23 22 22 23 19 19 20 14 19 16 21 22 21 26 27
52 48 47 47 45 41 42 36 33 28 31 28 24 23 21 21 22 22 21 20 20 22 19 17 17 17 21 20 21 22 21 22 23 20 13 15 16 16 17 18 24 19 19
51 47 47 46 42 41 38 34 31 31 26 23 23 22 21 22 22 19 19 18 17 17 17 18 17 16 17 17 19 19 20 19 19 18 17 15 15 15 16 17 18 22 24

GFSSE_sfc_dewp_003.txt.gz
Dewpoint
64 68 74 73 72 71 70 69 68 67 66 65 65 68 68 69 68 67 66 64 64 63 62 61 64 65 68 68 68 67 66 64 64 62 63 63 63 63 63 63 64 62 64
64 68 75 74 72 72 70 69 68 68 66 65 67 67 65 65 66 66 66 64 63 61 60 60 63 62 63 64 65 66 65 65 63 63 64 63 62 62 63 64 66 61 62
65 69 72 74 73 72 70 69 68 68 66 64 67 64 61 62 63 66 65 63 62 61 61 60 61 61 61 62 62 62 63 63 62 63 64 60 60 63 63 63 64 62 60
67 69 71 74 73 72 70 69 68 67 67 64 63 63 62 60 65 65 64 63 60 61 61 60 62 63 62 61 61 60 60 60 61 64 60 60 59 62 62 64 62 63 62
67 70 72 74 74 73 71 70 68 67 65 64 63 63 63 63 65 64 63 62 62 63 62 62 62 63 63 64 64 64 64 63 61 61 60 60 60 59 62 62 62 64 61
69 72 73 74 74 73 72 70 69 67 65 64 63 63 62 63 64 65 66 67 65 64 62 62 62 63 63 64 64 63 63 64 64 61 61 61 61 62 62 60 62 63 62
70 72 71 74 74 74 72 71 70 68 66 64 64 63 63 65 66 67 67 66 65 64 63 63 64 65 65 65 64 64 63 65 62 62 61 61 61 64 64 63 62 62 63
70 72 71 72 74 73 73 72 70 68 67 65 64 63 63 66 67 67 68 67 66 65 66 65 66 66 65 65 65 65 65 66 62 62 61 61 62 64 65 65 64 64 64
71 71 71 70 72 72 72 71 71 69 68 66 66 66 66 67 66 67 68 68 67 67 66 66 67 66 66 66 67 67 66 66 62 62 61 61 62 65 65 65 65 66 66
70 70 70 71 71 71 71 71 70 70 69 69 68 68 68 67 67 66 67 68 67 67 67 67 67 67 67 66 66 65 63 61 58 58 58 59 63 65 65 66 66 66 67
68 69 69 70 71 71 70 69 70 69 69 68 67 67 66 64 63 64 65 66 67 67 67 67 66 63 61 59 57 56 55 52 49 50 53 59 62 64 64 63 63 64 66
65 66 67 69 69 70 70 69 68 68 68 66 66 66 64 62 62 62 63 65 66 65 65 62 55 52 49 45 44 46 43 44 44 44 46 58 59 59 60 61 61 62 63
65 66 66 68 68 70 69 69 69 68 68 67 66 65 64 63 63 63 63 63 63 63 54 47 43 41 40 37 38 36 38 34 34 42 48 57 57 57 58 58 61 63 61
64 65 66 68 68 68 69 68 67 67 67 66 66 64 64 62 62 63 63 60 55 44 42 39 37 34 31 29 30 32 31 32 39 43 44 54 54 57 59 58 57 57 58
60 65 66 67 68 67 68 68 67 66 66 65 65 64 64 62 63 56 44 43 40 38 34 33 32 28 25 25 24 30 28 33 32 36 39 51 52 53 53 54 54 54 57
57 59 65 67 67 67 67 67 66 65 65 64 64 64 64 62 52 46 41 39 37 32 30 29 29 28 23 22 20 27 27 31 28 29 36 36 47 47 49 50 51 53 52
44 48 60 65 68 67 67 66 66 65 63 63 63 63 60 46 44 41 36 33 32 31 27 26 25 28 22 19 18 23 26 29 25 28 33 31 34 41 44 46 46 47 48
42 44 52 62 66 66 66 66 65 64 63 60 58 49 42 42 41 36 34 32 30 29 28 26 24 25 23 21 20 22 25 30 23 26 29 28 31 31 33 40 40 42 44
41 46 56 63 65 65 64 64 61 57 56 51 45 42 40 38 35 32 31 31 28 27 26 23 23 24 23 22 21 21 26 31 23 25 23 28 29 28 29 32 37 37 38
47 51 58 63 64 62 58 53 51 46 43 42 39 36 33 33 32 31 29 28 26 25 23 22 21 22 24 24 20 20 32 36 30 27 21 22 25 25 29 28 28 26 34
53 57 61 62 60 56 54 51 48 44 38 35 33 31 31 31 31 31 28 25 25 23 22 20 22 21 21 26 20 21 26 27 31 30 19 24 23 22 26 23 22 22 24
53 59 61 61 56 56 56 54 50 41 35 32 33 30 30 30 29 27 26 25 24 23 22 22 23 21 21 25 19 23 18 18 22 14 25 23 20 20 21 17 20 20 23
54 59 61 57 55 55 52 46 38 32 30 30 29 29 28 26 26 25 25 23 24 24 23 23 23 22 20 22 22 18 14 13 17 20 19 24 15 20 16 20 20 19 20
54 59 58 54 54 49 48 44 40 38 33 28 27 28 26 25 25 23 24 22 22 21 21 20 19 22 22 19 22 16 18 18 13 13 18 14 19 14 17 18 17 18 19
54 57 53 52 50 47 47 45 42 35 30 27 26 25 23 23 23 22 21 21 20 20 20 20 20 20 21 20 20 19 19 18 23 17 10 13 16 17 18 17 18 18 19
54 52 51 49 48 46 45 43 37 29 25 25 25 23 20 20 21 20 19 19 19 19 20 21 21 21 20 19 20 20 19 17 15 15 15 16 16 16 17 17 17 18 20

GFSSE_sfc_dewp_006.txt.gz
Dewpoint
62 69 74 73 72 71 70 68 68 67 66 65 66 68 69 69 68 67 66 65 64 62 61 61 64 65 67 68 68 67 65 65 64 63 63 63 62 62 63 62 66 62 62
63 68 74 73 72 71 69 68 68 67 66 65 68 67 67 67 67 67 66 64 64 62 61 61 63 63 64 64 65 65 65 64 64 63 64 61 60 62 62 64 64 63 60
63 67 70 74 73 71 69 69 68 67 65 67 65 62 62 62 64 66 65 63 62 62 61 61 61 61 62 62 62 62 62 62 62 64 62 57 56 62 62 63 63 61 59
63 67 68 74 73 71 70 69 68 68 65 65 64 62 61 63 64 65 64 63 62 62 61 61 63 64 63 64 64 62 61 60 62 62 54 52 54 59 62 62 62 63 61
64 67 69 74 73 72 70 69 68 67 65 64 63 62 62 62 64 65 62 62 64 63 62 62 63 63 63 64 64 64 64 63 62 61 57 56 56 54 60 61 62 63 64
63 67 73 73 73 72 71 70 68 67 65 64 64 63 63 64 64 63 62 65 65 63 63 63 63 64 64 64 64 63 63 65 63 58 58 58 59 61 63 63 61 61 63
64 67 71 73 74 73 72 71 69 67 65 64 64 63 63 65 67 67 66 66 65 64 63 64 65 66 66 65 65 65 65 65 61 60 60 59 60 63 64 63 64 63 63
65 67 69 72 73 73 72 72 70 68 66 64 64 63 64 66 67 66 67 66 66 65 66 65 66 66 66 66 67 67 66 66 61 60 61 60 62 64 65 65 66 66 65
66 66 67 69 69 72 72 71 70 68 68 65 64 64 67 67 66 68 67 67 67 67 66 67 67 67 67 67 67 66 65 64 60 59 59 58 63 65 65 65 66 66 67
65 65 65 66 65 69 69 70 70 70 69 68 68 68 68 67 66 65 66 67 67 67 67 67 67 66 65 63 61 58 57 59 51 52 52 56 62 65 65 65 65 65 65
64 65 65 65 66 67 68 68 69 69 68 68 67 67 64 60 60 61 65 66 67 67 66 65 60 57 55 55 53 52 55 47 46 45 45 57 59 60 61 61 61 62 62
62 64 66 66 66 66 67 67 65 63 65 64 63 63 60 59 58 61 63 65 65 65 61 56 52 48 53 46 45 46 40 38 37 39 42 57 58 58 58 59 60 62 63
61 64 66 68 68 66 66 66 65 63 63 64 63 62 59 59 61 60 61 62 64 60 55 51 48 43 41 37 36 33 34 31 31 37 47 55 56 56 58 61 59 59 60
61 63 65 67 68 67 66 65 64 63 63 63 63 61 59 59 61 61 62 61 56 51 49 44 41 35 31 27 26 27 29 28 33 36 45 53 56 57 58 57 56 57 58
57 61 64 66 67 68 68 65 64 62 63 63 63 61 60 61 62 58 50 48 46 42 39 36 31 26 24 24 22 25 26 26 29 34 39 51 51 52 53 54 55 55 55
54 58 62 64 67 67 68 66 64 62 63 63 62 61 62 62 60 48 43 41 39 33 28 26 26 26 23 21 21 21 24 27 28 32 36 38 45 47 48 48 49 50 50
46 51 57 62 65 66 68 66 64 64 64 63 62 63 63 59 52 43 38 35 31 30 27 26 24 25 23 20 21 21 23 25 27 30 32 32 35 41 43 44 43 44 45
42 43 46 56 63 66 68 66 65 63 63 62 62 63 58 50 43 37 34 32 30 29 27 25 22 23 23 22 22 21 22 25 25 25 27 26 29 27 31 38 40 39 40
42 42 45 50 57 63 66 66 66 64 64 61 58 52 47 42 36 33 33 31 28 26 25 21 22 22 23 22 19 17 26 28 25 23 24 25 28 27 27 31 33 32 35
43 43 45 52 57 61 65 65 65 61 57 53 50 46 40 36 34 33 31 28 26 26 23 22 22 23 23 21 17 17 31 34 29 31 26 19 23 24 26 27 23 25 29
45 47 49 54 60 63 63 59 56 53 49 44 40 36 34 33 33 33 29 27 26 25 23 21 22 22 22 21 19 22 24 25 31 28 20 22 21 21 20 19 21 21 20
44 50 53 57 61 62 60 61 59 55 48 41 35 33 32 32 31 31 29 27 26 25 24 24 25 22 21 22 19 22 20 19 21 18 23 17 19 18 19 19 21 20 21
46 50 55 59 61 60 60 59 54 46 37 32 31 32 31 29 27 28 27 25 26 26 25 24 23 21 19 21 21 19 16 17 16 19 18 21 17 17 18 21 20 19 20
45 52 57 60 59 59 57 51 48 49 44 37 30 30 28 27 26 25 25 24 24 23 23 20 18 21 22 20 22 15 17 16 14 15 18 16 17 16 19 19 19 18 19
45 54 60 59 58 58 53 52 54 51 47 31 29 27 26 25 25 23 23 23 22 21 21 21 21 21 22 21 21 19 18 18 18 19 15 17 18 19 18 18 17 17 18
46 56 59 58 57 53 53 54 54 45 33 28 28 26 25 24 22 21 20 21 21 20 21 22 24 23 23 21 20 20 19 18 17 17 17 17 18 18 17 17 17 17 19

GFSSE_sfc_dewp_009.txt.gz
Dewpoint
62 69 74 73 71 70 69 68 68 67 65 65 68 68 69 69 68 67 67 65 63 62 61 63 65 66 67 68 68 67 67 66 65 64 63 61 60 63 63 63 66 63 64
63 69 74 73 71 70 69 68 68 66 65 66 68 68 69 68 68 67 65 65 63 62 61 63 63 63 64 64 64 64 65 64 64 64 63 63 61 63 63 63 65 64 60
64 67 69 73 73 71 69 69 68 66 67 67 64 63 63 65 66 65 63 63 63 62 62 63 63 62 63 63 63 62 62 62 64 63 62 57 55 60 63 63 63 62 60
63 66 67 73 73 71 70 69 68 65 67 66 64 62 63 64 66 65 63 63 63 62 62 63 64 64 64 64 65 64 64 62 61 62 55 49 51 60 59 62 63 62 62
63 66 67 74 73 71 70 69 68 66 64 64 63 63 63 64 65 64 63 64 63 62 63 63 64 64 64 64 64 61 64 64 63 63 57 58 58 61 61 60 60 63 64
62 65 72 73 73 72 71 69 68 66 64 64 64 64 65 64 64 64 63 65 64 63 64 64 64 64 65 65 64 64 64 64 64 57 57 59 59 63 63 64 63 62 62
62 67 69 73 73 72 72 71 69 67 65 64 64 63 65 67 67 66 66 66 65 64 64 64 66 67 66 65 66 66 65 65 62 60 59 60 61 63 65 64 63 64 64
61 66 69 72 72 72 72 71 70 67 66 64 64 64 66 66 68 67 67 66 66 66 65 66 67 67 67 67 67 67 66 66 60 59 60 59 63 63 65 64 65 66 66
61 64 69 69 70 72 72 71 70 68 67 65 65 65 68 66 67 67 67 67 67 66 66 67 68 67 67 66 65 62 61 62 58 54 54 55 62 63 65 64 65 66 66
61 62 65 68 68 68 69 70 69 69 69 67 68 68 68 67 65 68 69 68 67 67 67 66 65 64 62 59 56 54 57 59 50 49 49 55 59 60 62 62 62 62 62
61 62 62 62 63 67 68 67 69 69 68 68 67 67 64 60 61 62 65 67 67 66 65 61 57 53 53 56 52 50 54 43 41 42 43 57 57 58 58 59 60 61 63
60 61 61 62 62 66 67 66 65 64 65 62 62 62 58 57 58 61 63 66 65 64 60 56 50 49 54 46 43 49 37 36 35 39 48 56 57 56 56 61 62 61 62
58 60 62 63 63 64 65 66 64 62 64 63 61 60 56 56 59 60 61 62 63 63 57 54 50 45 41 36 34 31 33 33 32 37 51 56 58 60 61 59 58 60 60
57 60 63 64 65 64 64 66 63 62 62 62 61 59 56 57 60 58 60 62 57 54 51 48 44 37 30 27 26 26 28 29 31 34 49 54 55 57 57 57 58 57 57
53 58 62 64 66 65 64 65 64 62 60 60 61 60 56 57 60 59 56 53 50 46 43 38 32 29 27 26 24 23 25 25 27 32 43 52 50 51 52 53 53 53 53
50 55 60 62 66 66 65 65 64 62 60 61 62 59 58 59 61 55 50 47 43 38 31 29 29 28 26 24 22 21 23 25 27 31 36 42 45 47 47 47 47 47 47
45 51 55 60 63 65 66 66 64 63 60 63 61 59 59 62 56 50 44 41 37 33 30 29 25 26 26 23 23 23 23 24 27 29 33 35 41 44 41 42 42 42 43
42 44 50 56 60 64 66 67 66 63 62 64 61 61 62 58 51 45 41 39 34 32 30 28 26 27 27 25 24 22 23 26 25 26 30 29 33 29 39 36 36 37 38
42 42 44 49 57 62 66 67 66 64 62 63 62 63 59 51 43 37 38 35 31 31 30 27 28 27 26 26 23 23 30 31 28 23 25 27 30 31 32 38 35 36 32
42 43 43 46 50 58 64 67 67 64 65 64 60 55 50 43 38 40 35 32 31 31 29 29 28 27 26 24 17 21 33 34 32 30 30 19 25 27 29 31 29 30 35
41 43 44 45 50 55 62 65 65 64 62 59 54 48 43 38 38 38 35 32 32 31 30 28 28 27 26 25 27 28 30 25 31 33 23 23 25 22 24 24 26 26 25
42 44 45 47 51 56 64 64 62 60 57 52 45 39 35 35 37 36 35 33 32 32 30 29 30 26 26 26 22 29 27 25 25 22 25 22 21 24 23 23 24 23 26
43 44 45 49 54 61 63 61 59 50 45 42 38 35 33 34 35 34 34 32 33 33 31 29 28 26 26 27 24 23 23 24 21 26 26 23 23 22 22 25 23 23 23
44 48 48 52 57 61 61 61 57 51 47 43 36 33 31 31 33 32 31 31 30 30 29 25 23 25 27 25 26 17 20 19 18 19 25 23 22 18 22 24 22 21 22
41 49 52 53 58 59 60 59 56 51 52 39 32 29 29 30 32 30 28 30 28 27 27 26 25 23 23 23 24 23 21 22 21 20 20 22 22 23 23 22 21 20 21
42 49 54 55 58 59 59 57 54 54 45 36 31 28 27 28 30 27 27 27 27 26 26 27 27 26 24 23 23 22 22 21 21 22 21 20 20 22 21 20 20 21 22

GFSSE_sfc_dewp_012.txt.gz
Dewpoint
68 72 74 73 71 70 69 69 68 67 66 68 69 69 69 69 68 68 66 64 64 62 63 64 66 67 67 69 69 68 67 66 65 64 63 61 61 63 63 65 66 63 64
69 71 74 73 71 70 69 68 67 66 68 68 69 69 69 68 68 66 65 64 63 62 63 63 64 64 64 65 64 64 64 64 64 64 64 65 65 63 64 64 64 63 62
68 70 71 73 72 70 69 68 67 66 69 67 66 67 67 68 66 64 63 63 62 63 64 64 64 65 65 65 64 63 62 61 61 61 64 61 60 61 62 63 63 63 61
67 68 69 73 72 70 69 68 66 68 67 67 65 64 65 66 65 64 64 62 62 62 63 64 64 64 64 64 63 64 65 63 62 65 62 55 56 60 58 60 62 62 64
66 67 69 73 72 71 70 69 66 66 67 66 66 65 65 66 66 64 65 64 63 63 64 64 64 65 65 65 64 63 64 64 66 64 59 57 57 62 63 62 61 62 62
65 67 72 72 72 72 71 69 68 65 65 65 66 66 66 65 65 64 65 65 64 64 64 65 66 66 65 65 66 65 65 64 66 60 58 60 62 64 64 64 62 63 62
65 69 71 73 72 72 71 70 68 66 65 66 65 66 67 67 66 64 66 66 65 65 65 66 67 67 67 67 67 66 65 66 63 61 59 61 62 64 64 63 63 65 65
68 68 70 72 72 72 72 71 69 67 65 65 65 66 67 67 67 67 67 66 66 66 66 67 68 68 67 67 66 65 64 65 60 58 56 61 63 63 64 63 64 66 66
67 68 69 69 70 71 71 71 70 69 67 66 67 68 67 67 69 68 67 67 67 66 67 68 67 67 66 64 61 57 59 60 58 51 53 56 61 60 62 63 63 63 63
62 68 68 68 69 69 70 70 69 69 68 68 68 69 67 66 69 69 69 68 67 67 67 65 64 63 60 57 53 53 56 58 53 46 54 56 57 57 58 59 60 61 62
61 65 67 68 67 67 68 68 69 69 68 68 68 67 66 63 63 66 66 67 67 67 64 61 56 53 57 58 56 53 55 39 36 41 53 57 56 56 57 61 63 62 64
60 61 65 67 66 67 67 67 66 66 66 65 65 65 63 60 62 62 65 66 67 64 62 57 53 57 52 43 43 46 36 32 34 41 53 57 57 58 62 61 61 62 62
59 60 61 62 64 67 66 66 65 65 64 63 62 62 59 59 61 62 63 64 63 62 57 55 51 42 36 32 32 28 31 32 32 49 54 58 59 60 59 59 59 59 60
58 60 61 62 64 66 67 65 64 62 63 63 62 60 56 59 59 60 62 62 57 56 48 45 40 31 29 26 26 24 26 28 30 47 53 56 55 57 57 57 56 56 56
56 59 63 63 64 64 66 67 63 62 63 62 61 59 57 59 59 59 56 54 49 43 39 34 31 30 28 26 23 22 24 25 26 39 49 54 52 52 52 51 51 50 50
49 57 62 63 64 65 65 66 64 63 61 61 61 60 57 59 59 52 49 47 40 35 32 30 27 28 27 25 24 22 22 25 26 31 42 46 48 46 45 46 45 46 46
44 54 59 62 65 65 65 65 64 63 63 62 62 59 58 58 53 50 46 41 36 34 31 29 27 29 28 27 25 25 23 23 26 28 33 40 43 47 42 41 40 41 42
42 48 55 60 64 65 65 65 65 64 63 63 62 59 60 55 50 46 43 39 34 33 31 29 29 30 29 27 25 22 24 25 25 26 27 30 31 34 39 37 35 36 37
42 42 51 57 61 64 65 66 67 65 65 63 63 62 58 49 43 39 39 36 33 33 31 29 30 28 27 26 22 20 31 31 27 24 25 26 28 27 29 35 37 37 35
39 42 43 50 58 64 65 65 67 64 65 64 62 60 49 43 38 39 37 33 34 33 32 30 28 28 26 25 22 24 29 31 28 29 25 23 23 23 25 24 27 28 34
38 43 43 46 51 63 64 64 66 63 63 62 57 51 45 39 40 36 36 34 35 32 30 28 29 26 27 27 27 27 28 27 31 33 21 22 22 21 22 23 25 25 26
41 41 44 45 47 52 64 64 65 64 61 54 51 43 40 38 38 35 35 34 32 33 30 28 27 28 27 26 23 27 24 26 24 21 24 20 19 22 22 22 22 21 23
40 42 45 45 48 51 65 64 58 52 49 45 40 37 36 36 35 35 34 34 34 34 32 28 27 25 27 26 22 23 21 22 21 24 23 21 21 20 21 24 22 21 20
41 42 44 46 49 59 64 60 57 55 49 43 42 44 34 34 34 34 34 33 33 33 28 25 25 25 27 24 26 21 19 19 20 19 24 23 23 21 22 23 22 21 20
33 43 47 47 53 62 62 60 55 51 49 40 37 36 32 32 32 32 32 31 31 30 26 25 25 23 24 25 25 24 22 23 21 20 21 22 23 23 23 23 22 21 20
32 39 49 47 57 61 61 60 55 52 44 36 33 32 30 31 31 30 30 30 28 28 27 27 26 25 24 23 24 23 23 23 22 21 21 20 20 21 22 21 21 20 22

GFSSE_sfc_dewp_015.txt.gz
Dewpoint
69 72 74 72 71 70 70 69 68 67 70 70 70 70 70 69 68 67 65 64 63 64 64 66 67 68 69 69 68 67 67 66 65 63 62 61 62 63 64 65 65 64 64
71 72 74 73 71 70 69 68 67 67 70 69 69 69 69 69 67 66 65 63 63 63 64 65 65 66 66 65 64 64 63 63 62 61 63 63 65 64 65 64 64 62 62
71 71 71 73 72 70 69 68 67 68 70 69 70 70 69 67 66 64 63 62 63 64 64 65 65 65 65 65 65 64 63 62 61 61 64 60 60 61 62 64 63 62 61
70 71 70 73 72 70 69 67 69 69 67 67 67 67 67 66 64 63 62 62 63 63 64 64 64 64 64 63 64 65 64 63 63 66 62 59 58 60 59 59 60 62 64
70 70 71 73 72 70 69 67 69 67 67 67 68 67 67 66 65 65 63 63 63 64 65 65 65 65 65 65 64 63 63 63 65 64 59 57 61 62 63 63 61 60 61
68 68 72 72 72 71 70 68 67 68 65 66 67 67 68 66 66 66 65 64 65 65 65 66 66 65 65 66 66 65 65 65 66 62 58 63 62 63 64 63 61 61 63
67 69 71 72 72 72 71 70 67 66 66 67 67 67 67 67 66 67 66 65 65 66 65 67 67 67 67 67 66 66 65 66 62 59 60 62 63 63 63 62 62 66 65
68 69 69 71 72 72 71 70 69 68 67 66 67 68 67 67 67 67 67 66 67 65 67 67 68 68 67 66 65 63 62 63 58 55 59 59 63 61 62 61 64 64 64
68 69 69 70 70 71 71 70 69 68 68 67 68 68 68 69 69 68 67 67 67 66 68 67 67 66 65 62 57 54 58 59 54 53 54 56 60 56 58 59 60 61 61
68 69 69 69 69 69 70 70 69 68 68 68 69 68 67 68 69 69 69 69 67 68 67 66 65 63 60 55 52 55 57 52 42 53 54 56 57 56 57 58 60 62 63
68 68 68 68 68 69 69 68 69 68 68 68 69 67 65 64 67 67 67 67 68 67 65 62 59 57 58 59 56 56 50 33 38 52 54 59 55 54 63 62 63 64 63
67 67 68 68 68 68 68 68 67 67 66 66 66 65 64 62 64 65 66 67 68 66 64 60 56 55 49 41 36 41 34 30 39 51 55 60 61 62 60 62 61 60 62
60 67 68 68 67 67 67 66 66 66 65 64 64 64 62 61 62 63 64 64 64 63 58 55 50 39 30 29 28 25 29 29 45 52 56 59 59 59 60 59 59 59 59
59 61 65 68 67 67 66 65 65 65 64 63 62 62 58 59 61 61 62 62 62 60 48 42 33 29 27 25 24 22 25 27 43 50 56 58 56 57 57 56 55 54 53
58 60 61 64 66 66 66 65 64 64 64 63 62 60 56 58 58 59 61 58 46 39 34 31 29 28 26 23 22 21 23 25 39 46 50 56 53 51 51 50 49 49 48
56 59 61 64 66 66 66 66 64 63 63 62 61 57 56 59 59 54 49 42 36 33 31 28 26 27 27 26 24 23 22 26 30 42 43 48 48 45 45 45 44 44 45
46 59 62 62 64 65 66 66 64 63 62 61 61 56 57 59 51 48 43 36 34 31 28 27 29 29 28 26 23 21 24 23 26 37 40 41 43 49 42 41 40 40 42
42 56 62 62 64 65 65 65 64 64 63 63 61 59 58 54 50 45 40 36 34 32 29 29 29 28 26 25 22 22 26 26 25 26 33 35 35 38 38 38 37 39 39
41 43 60 63 64 64 65 66 65 64 64 62 61 60 55 50 47 43 38 35 32 31 31 29 29 27 24 24 23 21 31 31 26 26 25 28 29 27 27 36 38 36 36
38 41 51 61 64 64 65 64 65 65 65 64 62 59 51 45 41 39 35 33 33 32 31 29 27 27 25 24 23 27 28 32 28 29 22 25 23 24 23 23 26 27 34
36 37 42 56 63 65 65 64 65 63 64 63 61 52 45 40 38 35 34 33 33 31 29 28 27 24 26 26 24 26 29 28 30 32 23 22 20 22 21 23 24 24 25
39 39 42 49 61 64 65 64 64 62 61 59 54 48 44 40 38 35 34 34 32 31 28 26 27 28 27 25 22 28 22 25 23 22 24 20 20 22 22 23 22 21 21
37 40 42 44 58 64 64 64 58 54 51 47 46 43 41 39 35 35 34 33 33 32 30 26 25 26 26 26 21 23 18 21 21 24 22 23 20 22 23 24 22 21 20
35 40 42 45 47 61 64 63 61 59 55 51 47 45 42 36 36 34 34 33 33 31 27 25 25 25 28 24 26 22 20 20 18 15 22 23 23 21 22 24 23 22 21
30 36 42 44 47 58 64 62 61 58 50 46 44 41 38 35 34 34 33 32 31 28 25 25 24 24 25 25 25 24 22 23 21 20 19 21 22 22 23 22 22 22 21
31 32 41 44 49 62 62 61 60 54 44 44 42 39 34 36 35 32 31 31 28 27 27 27 26 24 24 24 25 24 24 22 21 21 20 20 20 22 22 22 22 20 21

GFSSE_sfc_dewp_018.txt.gz
Dewpoint
69 72 73 72 71 70 70 69 70 71 71 71 71 71 70 69 67 66 65 64 65 64 65 68 69 70 69 69 68 67 66 65 63 62 62 63 63 64 64 65 65 65 64
70 72 73 72 71 70 69 68 68 71 71 70 70 70 69 68 66 65 64 64 63 63 64 66 67 67 66 66 65 64 62 60 60 62 62 63 65 64 64 64 64 61 61
71 71 71 72 71 69 68 67 68 69 69 70 69 69 69 67 65 64 62 63 63 63 64 66 67 66 65 65 65 64 63 61 62 62 63 60 60 61 63 63 62 62 61
71 71 70 72 71 69 67 68 69 69 70 70 70 69 67 65 63 62 62 63 63 63 63 63 63 64 63 64 65 65 63 63 64 65 60 59 58 60 58 60 60 63 63
70 70 70 72 70 69 67 70 68 67 67 69 69 69 66 64 63 62 62 63 63 64 65 65 65 64 64 64 63 63 63 63 65 63 58 58 60 62 63 62 61 60 61
70 70 72 72 71 70 70 70 68 66 66 68 68 69 67 65 66 64 63 64 65 65 66 66 66 65 66 66 66 65 65 65 64 60 58 60 62 63 63 63 61 61 63
69 70 71 72 71 70 69 70 69 67 66 67 67 67 67 66 66 66 65 65 65 65 67 67 67 67 67 67 66 65 64 63 58 60 60 62 62 62 62 60 60 66 65
68 70 70 72 72 71 70 69 69 68 67 67 68 68 67 67 67 67 66 66 66 65 67 67 67 67 67 65 63 60 58 61 55 58 58 58 62 60 61 62 63 63 62
68 69 70 70 70 71 71 69 68 69 69 69 69 69 69 69 68 68 67 67 65 67 67 67 67 67 64 60 55 54 58 59 52 54 54 55 60 55 56 58 59 60 62
68 68 69 69 69 69 69 69 68 69 68 69 69 69 68 68 69 69 68 68 66 67 67 66 65 63 59 55 54 58 52 51 52 53 54 55 56 54 58 60 62 64 65
67 68 69 69 69 69 68 68 69 68 68 69 68 67 65 67 67 67 67 68 68 67 65 63 60 57 58 57 55 52 44 36 51 52 54 60 57 63 63 64 63 64 63
66 67 67 68 68 69 68 68 67 66 66 66 66 65 62 64 66 66 66 67 68 67 65 60 56 54 44 35 32 38 31 38 50 54 56 62 62 61 63 62 61 62 61
67 67 68 68 67 67 67 67 66 65 64 65 65 64 63 61 63 64 64 64 64 63 58 53 43 34 28 28 27 26 28 41 50 53 59 61 60 60 60 59 58 57 57
66 67 67 68 67 67 67 66 66 65 64 64 64 63 61 60 61 61 62 62 61 59 51 43 31 28 26 23 22 22 25 38 48 52 57 60 57 57 56 54 53 51 51
61 66 67 68 67 67 66 66 65 64 63 62 62 63 59 60 61 61 61 61 59 51 35 31 29 27 25 24 23 21 24 37 45 49 52 57 54 51 50 49 48 47 47
57 60 67 67 67 67 66 65 64 64 63 62 62 61 58 59 59 60 59 53 39 33 30 27 27 27 26 25 23 21 23 31 43 44 47 48 51 47 45 44 44 44 45
45 59 62 66 67 67 66 65 65 64 63 63 62 60 56 58 58 54 48 38 34 30 27 28 29 27 26 23 21 20 24 25 39 39 42 41 45 49 42 41 42 42 43
42 53 60 64 66 66 66 66 65 63 63 62 62 59 56 57 51 45 38 35 33 30 29 29 29 26 25 23 21 20 27 26 31 37 38 36 38 35 39 39 38 38 40
40 45 59 62 65 66 66 66 65 63 63 62 62 58 57 54 48 42 37 35 32 31 30 29 28 25 22 22 22 24 31 29 27 27 30 27 31 28 28 37 36 36 36
39 41 55 62 63 65 65 65 64 63 63 63 62 59 55 52 46 39 36 32 32 32 31 29 27 26 24 24 25 27 27 30 27 26 26 24 24 23 23 24 25 29 34
37 37 45 60 63 65 64 64 63 62 63 63 62 57 53 48 43 36 34 32 32 31 29 27 26 23 25 24 25 27 28 27 30 27 23 23 22 22 22 24 24 24 24
36 37 38 51 62 64 65 64 64 63 62 62 57 52 50 46 39 35 33 32 32 31 29 28 27 27 26 24 24 27 22 24 23 23 23 21 21 23 24 23 22 21 21
33 35 38 42 57 64 64 63 58 55 54 52 52 49 46 42 38 35 34 33 32 31 29 26 27 26 25 24 22 24 22 21 20 23 22 22 22 23 23 24 22 22 21
31 33 37 42 53 64 64 63 60 60 58 54 53 51 47 40 37 35 34 32 32 33 28 26 26 27 27 24 25 22 21 20 16 13 21 22 23 21 21 23 22 22 21
30 31 36 41 47 62 64 63 62 60 60 52 50 49 46 39 36 35 34 35 33 31 27 25 24 25 26 26 25 24 22 24 21 19 17 21 22 22 23 22 22 21 21
31 32 32 37 42 55 63 63 62 60 49 48 47 45 43 40 36 35 35 36 32 28 26 26 26 24 25 25 25 24 24 22 22 21 20 20 20 22 22 22 21 20 22

GFSSE_sfc_dewp_021.txt.gz
Dewpoint
68 71 73 71 71 71 71 71 71 71 72 71 71 71 70 69 67 66 65 65 65 65 65 68 69 68 67 68 68 67 65 63 61 63 64 65 64 64 66 65 64 65 63
70 71 73 71 70 70 70 70 72 72 72 71 71 71 69 68 67 65 64 64 64 64 65 68 68 68 68 67 65 63 61 60 62 63 62 64 65 64 64 64 64 61 60
70 71 71 72 71 70 69 69 71 71 71 71 70 69 68 67 66 64 64 63 63 63 67 67 66 66 65 65 64 63 61 62 63 63 62 59 59 61 63 63 62 61 61
70 71 70 72 70 69 68 68 69 70 70 71 70 69 68 66 63 62 63 63 64 64 65 65 65 64 64 65 64 63 64 64 64 64 59 59 58 60 59 60 61 63 63
70 70 70 72 70 68 67 68 69 69 70 70 70 68 66 64 63 63 63 63 63 63 64 64 64 64 64 64 64 63 64 66 64 61 57 58 60 62 63 63 62 61 61
70 70 71 72 70 69 69 69 68 69 70 70 70 68 65 64 63 63 63 64 65 65 65 65 65 66 66 66 65 65 65 64 61 59 57 59 62 63 63 63 61 62 63
69 70 70 72 70 69 71 70 68 67 68 68 68 67 66 66 64 64 64 65 65 65 67 66 66 67 67 66 65 63 62 60 60 59 62 62 62 62 62 60 62 65 66
69 70 70 71 71 70 71 70 69 68 68 68 69 68 67 66 66 65 65 65 65 66 67 66 67 67 66 63 59 57 58 58 59 59 58 56 60 58 60 62 62 62 63
69 70 70 70 70 70 69 70 69 69 68 69 69 69 68 68 68 66 66 66 65 67 67 68 67 66 62 54 54 56 58 58 54 53 53 54 60 55 57 58 59 60 64
68 69 69 69 70 69 68 69 69 68 69 69 69 69 68 68 68 68 68 68 66 67 67 66 65 62 57 54 54 52 54 56 52 53 53 53 55 54 61 62 64 65 65
67 68 68 69 69 69 68 67 68 69 68 68 68 67 66 66 67 67 67 67 68 67 66 65 61 58 56 54 52 48 43 48 50 52 54 60 59 62 64 64 64 64 63
66 67 68 68 68 68 68 67 66 66 66 66 66 64 63 65 66 66 66 67 68 67 65 60 56 51 40 31 31 38 34 47 52 54 55 64 61 63 62 62 61 60 60
66 67 68 68 68 68 67 67 66 65 64 65 65 63 61 64 64 65 64 65 64 63 58 50 37 31 26 27 26 28 35 49 52 55 60 62 59 59 58 57 58 57 56
66 67 67 68 68 67 67 66 66 64 63 63 64 63 61 61 62 62 63 62 61 58 53 42 30 26 24 22 22 24 33 47 51 53 57 60 59 57 56 54 53 51 51
66 66 67 67 67 67 66 66 65 64 64 64 63 63 61 60 61 61 61 61 59 52 39 31 28 26 24 23 22 24 32 45 48 51 53 56 55 52 51 49 48 48 49
62 66 67 67 67 67 66 66 65 64 63 63 63 63 61 60 60 60 60 59 54 41 31 28 27 27 26 24 21 22 28 42 45 47 46 48 52 48 46 45 45 45 46
49 60 66 67 67 67 66 66 65 64 63 62 61 62 61 59 59 59 58 52 40 31 28 28 28 26 25 22 20 22 24 36 40 43 41 42 44 49 44 44 43 43 45
42 48 62 67 67 67 66 65 65 64 63 63 61 61 59 58 59 55 51 41 33 29 29 30 28 25 24 22 20 21 27 28 38 39 38 37 37 34 40 39 38 39 39
41 42 57 63 67 67 66 66 65 64 64 63 62 61 58 58 54 51 45 37 31 30 31 29 28 24 20 22 22 29 31 28 33 35 32 31 32 30 33 37 37 36 36
39 41 53 61 64 66 66 66 65 64 64 63 62 60 57 55 49 45 38 33 32 32 31 29 25 25 23 24 26 27 31 28 28 28 28 26 25 22 23 23 25 29 35
37 38 42 60 63 65 65 65 64 63 62 62 62 59 57 54 46 41 36 32 32 31 30 27 25 21 23 25 27 27 27 27 29 24 25 23 22 22 23 24 24 24 23
35 36 37 48 61 64 65 65 63 64 63 62 61 58 56 52 46 41 36 32 32 32 28 27 27 26 24 23 24 27 23 24 23 24 22 22 21 24 23 23 21 21 22
33 34 36 38 53 63 64 63 58 58 56 56 55 53 54 51 45 42 37 34 32 32 30 29 28 26 24 23 23 25 23 21 22 23 22 22 22 22 22 24 22 21 20
30 31 33 37 41 59 64 62 60 60 59 60 57 56 50 51 47 40 37 33 32 35 32 29 28 28 26 23 25 21 21 23 16 15 21 23 23 20 21 22 22 20 22
30 30 31 34 41 50 63 63 62 59 60 57 53 53 51 48 46 43 36 34 35 35 33 27 26 27 26 27 25 24 22 24 21 18 15 19 22 22 23 22 21 20 21
30 31 32 32 36 48 61 63 62 60 53 53 52 52 49 46 44 42 39 37 35 35 33 29 27 26 26 26 26 25 24 22 22 21 20 19 20 21 22 22 20 20 22

GFSSE_sfc_dewp_024.txt.gz
Dewpoint
65 70 73 72 72 71 71 71 71 73 73 72 72 70 69 69 67 66 66 66 65 66 68 67 67 67 67 67 67 66 64 62 64 64 65 66 65 66 66 65 66 64 62
68 71 73 72 71 71 70 70 72 72 73 72 71 70 69 68 66 65 65 65 64 64 67 69 69 69 68 66 64 62 60 63 63 63 64 64 66 64 65 64 64 60 62
70 70 70 72 71 70 70 71 72 72 72 72 71 70 68 67 65 65 64 63 63 64 68 69 66 66 66 65 63 61 63 64 64 63 62 59 59 61 63 63 63 62 62
70 70 69 72 71 70 70 70 71 71 71 71 70 69 67 66 63 63 63 64 63 67 67 66 65 65 65 64 63 64 64 65 65 62 59 58 59 63 61 60 62 61 62
70 70 70 72 70 69 68 69 70 71 70 71 70 68 66 63 63 64 64 64 64 64 64 64 64 64 64 64 64 65 66 65 63 60 58 58 61 63 64 63 63 63 62
69 69 71 71 70 69 69 69 68 69 70 70 70 67 64 63 63 64 64 64 65 65 65 65 66 66 66 66 65 65 64 62 61 57 57 59 62 64 63 63 61 65 63
68 70 70 71 70 69 70 70 70 70 71 70 68 66 64 63 64 64 65 66 66 67 66 66 67 67 67 65 63 62 61 63 59 60 61 61 61 62 62 61 64 65 64
69 70 70 70 70 70 71 70 69 69 69 69 69 67 66 65 64 64 65 65 66 67 67 67 67 67 64 59 57 58 60 62 60 58 56 55 60 58 58 60 61 62 64
70 69 69 69 69 70 70 69 69 69 69 69 70 69 68 68 66 65 65 65 65 66 67 68 67 64 56 56 56 58 60 58 53 53 53 54 61 56 57 58 59 63 65
69 69 69 68 69 68 69 70 69 69 69 69 69 69 68 68 68 67 67 67 65 68 67 67 65 60 56 55 53 55 58 55 51 51 51 53 57 62 65 65 65 65 64
68 68 68 68 68 68 67 67 69 68 68 68 68 67 67 66 67 66 66 67 67 67 66 65 62 58 55 53 51 49 50 49 51 53 55 62 63 64 65 64 64 63 62
65 67 68 68 68 68 68 65 65 66 66 66 66 65 64 64 65 66 65 67 68 67 65 60 56 48 38 29 33 40 45 50 53 54 57 63 63 62 62 61 60 59 59
66 67 68 68 68 68 67 66 65 65 65 65 65 63 62 64 65 65 65 65 65 62 55 44 33 29 25 27 27 30 47 50 53 55 60 63 59 57 58 58 56 56 55
65 66 67 68 68 67 66 66 65 65 64 64 64 63 60 62 64 65 63 63 62 58 52 35 29 24 23 22 24 28 45 49 51 53 58 61 58 57 55 54 53 52 52
65 66 66 68 68 67 66 66 65 64 64 64 64 63 61 61 62 62 62 61 60 53 46 31 27 25 24 22 23 27 44 47 49 51 52 57 56 53 51 50 49 50 50
65 66 66 67 68 67 66 66 65 64 64 63 63 63 62 60 61 61 60 60 58 46 34 29 26 26 25 22 21 26 40 44 47 47 46 50 53 49 47 48 47 47 49
59 66 66 67 67 67 66 66 65 65 64 62 62 63 62 60 60 60 60 58 55 37 29 28 27 26 24 22 20 23 32 41 43 43 42 42 43 50 48 45 44 46 44
42 54 65 67 67 67 67 66 65 65 64 63 61 62 62 61 60 59 58 56 43 31 30 29 27 25 23 21 19 25 26 37 39 39 38 38 35 36 41 41 40 40 41
40 42 53 65 67 67 67 66 65 65 64 63 62 61 61 60 59 58 57 50 34 31 31 30 28 24 20 23 23 31 29 33 37 37 33 33 33 32 31 39 40 38 38
40 40 42 58 66 66 67 66 66 65 64 64 63 61 60 59 58 56 52 42 32 32 31 29 25 24 23 24 27 29 30 28 30 32 28 27 23 23 24 23 25 29 36
37 38 40 48 59 65 66 65 64 64 64 63 63 62 60 58 55 52 48 38 32 31 30 27 24 21 24 27 28 28 27 28 27 25 26 24 22 23 23 23 23 24 24
34 36 38 42 56 64 65 65 63 64 64 64 63 62 60 57 53 50 46 39 32 33 29 27 26 25 23 25 26 27 27 26 23 23 23 22 22 24 23 22 21 21 22
31 32 35 38 48 62 64 64 59 59 58 59 59 59 58 56 51 50 48 40 35 35 32 29 27 25 23 23 24 27 23 22 23 23 22 22 22 22 23 23 21 20 21
30 30 33 35 39 55 62 63 62 61 60 61 61 60 56 56 52 48 47 41 37 35 33 30 29 28 25 23 24 21 21 25 20 17 21 22 22 20 21 22 21 21 22
30 31 31 32 35 41 61 63 62 61 61 59 59 59 56 54 52 50 47 43 39 37 35 32 30 28 27 26 26 24 22 23 20 18 16 20 23 23 22 22 21 21 20
33 36 33 31 33 39 50 62 62 61 59 55 53 55 54 53 51 49 45 42 43 41 36 34 36 32 28 28 27 27 25 23 21 20 18 19 19 20 22 22 20 21 21

GFSSE_sfc_dewp_027.txt.gz
Dewpoint
66 71 74 73 73 73 73 73 73 74 74 73 72 71 70 69 68 67 67 66 66 67 67 67 68 67 67 66 66 64 63 64 64 66 66 67 66 66 65 66 65 61 61
67 71 73 73 72 72 72 73 73 73 73 72 71 71 69 68 66 66 66 65 65 67 69 70 69 68 67 65 63 62 63 64 63 64 64 65 67 65 65 64 63 60 63
68 70 69 73 72 72 71 72 72 73 73 73 71 70 68 67 66 66 64 64 63 68 68 68 68 67 66 64 62 63 64 64 64 63 62 60 59 62 64 63 64 62 64
70 68 67 72 71 71 71 71 72 72 72 72 70 69 68 66 65 64 64 63 67 68 67 67 66 65 64 64 64 65 65 65 63 62 59 61 62 64 62 61 61 61 63
69 68 68 71 71 71 71 71 72 72 72 71 70 68 67 64 64 64 64 64 65 66 66 65 64 64 64 64 65 66 65 64 63 60 60 63 64 64 64 63 63 63 62
69 68 70 71 71 71 71 71 71 71 71 71 71 68 64 64 64 64 64 64 65 65 64 65 66 66 66 66 66 64 63 63 61 59 60 63 64 62 62 60 65 67 64
69 68 68 71 70 69 70 70 70 70 71 71 69 66 64 64 64 64 65 66 66 66 66 66 67 67 65 63 62 62 63 63 60 62 62 63 61 61 62 63 63 64 66
69 69 68 70 70 70 71 71 71 71 72 70 69 67 64 64 64 65 66 66 67 67 67 67 67 65 60 58 59 60 64 63 61 61 59 57 60 57 58 59 61 65 65
69 69 69 68 68 70 70 70 70 71 71 70 69 68 68 67 65 65 65 66 66 67 67 68 65 58 57 57 59 61 60 58 56 54 52 53 61 55 58 59 62 66 65
69 69 69 68 67 68 67 69 69 69 70 70 69 68 68 68 67 66 67 67 65 68 68 66 62 58 56 55 57 60 58 55 51 51 54 56 61 65 66 65 65 64 63
69 69 69 68 67 68 68 67 68 69 68 68 68 67 66 66 66 65 66 67 68 67 67 64 61 58 54 54 51 54 52 49 51 56 60 62 64 65 65 64 63 62 60
66 67 68 69 68 67 67 67 66 65 65 66 66 67 66 67 67 66 65 66 68 67 65 61 55 49 38 33 37 48 48 51 52 59 60 64 63 62 62 61 60 59 59
65 66 68 68 69 68 66 66 66 66 66 66 66 66 65 66 67 67 66 67 67 62 55 45 37 32 33 31 34 43 49 52 56 58 60 62 58 57 59 57 56 56 56
65 65 67 67 68 69 69 66 65 65 66 66 66 66 64 65 67 67 66 67 65 61 51 41 33 30 29 28 29 41 48 53 55 56 58 61 59 57 55 54 54 54 54
65 65 66 67 66 67 68 68 65 65 65 65 66 65 63 64 66 66 65 66 64 59 51 38 31 28 27 26 28 39 47 51 53 53 54 58 58 54 52 51 51 52 51
65 66 67 67 67 66 67 67 67 66 66 65 65 65 63 63 66 65 64 65 63 57 48 37 31 30 28 26 27 38 45 50 51 49 50 50 55 52 49 48 48 50 50
59 66 67 67 67 66 67 67 66 66 65 65 64 64 64 62 63 65 64 63 62 52 41 32 29 29 28 24 26 32 42 47 47 45 45 45 45 52 49 46 48 45 46
42 55 64 67 67 67 66 67 67 66 66 64 63 63 64 63 61 63 63 63 60 46 36 33 31 29 28 26 26 28 38 43 43 42 41 39 41 40 43 42 42 42 42
41 42 47 64 67 67 66 67 67 66 66 66 65 63 63 63 62 61 62 62 55 44 35 33 30 29 27 26 26 31 30 40 41 37 37 36 39 37 38 42 41 40 38
41 41 42 50 63 67 67 66 66 66 66 66 65 63 62 62 62 61 60 59 50 43 36 33 31 27 27 27 27 31 32 36 38 37 33 31 31 30 27 29 30 31 37
38 40 41 43 51 65 65 65 65 64 64 65 65 64 62 61 61 61 60 56 48 43 36 32 30 28 28 32 33 31 31 31 31 33 30 28 27 26 27 27 27 27 26
34 37 39 40 43 57 64 64 64 64 64 65 64 64 63 61 60 60 58 53 46 41 35 32 31 27 28 32 31 33 30 28 28 26 28 26 25 26 26 24 24 24 26
33 34 35 39 42 50 60 65 63 62 62 63 63 63 62 62 60 59 58 54 46 42 38 34 31 31 29 30 30 31 29 29 28 27 26 26 25 25 25 25 23 23 25
33 36 35 36 38 47 61 63 62 60 60 61 62 63 62 62 60 58 57 55 50 44 40 35 31 30 32 30 27 24 25 29 28 25 25 24 24 22 24 24 23 23 24
35 41 38 35 35 40 54 63 63 61 62 63 63 62 62 60 60 57 56 53 51 44 44 40 34 32 30 31 31 26 24 25 22 24 24 24 24 24 23 23 23 22 22
40 41 43 40 35 37 41 57 62 62 61 61 61 61 60 59 58 56 54 53 52 49 47 44 40 36 33 32 31 30 28 26 23 23 22 22 23 24 24 24 23 22 22

GFSSE_sfc_dewp_030.txt.gz
Dewpoint
65 68 74 74 73 74 74 74 74 74 74 73 73 72 71 69 68 68 67 66 67 68 67 68 67 68 67 66 65 64 64 65 66 67 67 67 66 66 66 64 63 58 62
66 67 72 73 74 74 74 74 74 74 74 73 72 71 70 68 67 67 66 65 67 68 69 69 69 67 66 64 63 64 64 64 64 64 65 67 67 65 65 63 64 62 64
66 66 67 72 72 73 73 73 73 74 74 72 71 70 69 67 67 66 64 64 69 69 70 69 68 67 65 63 64 64 64 63 63 63 62 57 57 63 63 64 63 63 65
66 66 66 72 72 72 72 72 73 74 73 72 70 69 68 66 65 64 63 67 68 68 68 67 66 65 64 64 65 65 65 63 63 61 58 59 59 64 62 62 61 61 62
66 65 66 72 72 71 72 70 71 73 73 72 70 68 67 65 64 64 64 67 67 67 66 65 65 64 64 65 65 65 65 64 62 60 60 62 61 62 64 62 62 63 63
65 64 69 71 71 71 71 71 71 73 72 70 70 68 64 64 64 65 65 66 66 65 65 66 66 66 66 66 65 64 63 63 62 59 61 62 60 63 61 66 66 66 66
64 64 65 72 71 70 70 71 71 72 72 70 69 66 64 65 65 65 65 65 65 65 66 67 67 66 64 63 63 62 64 62 59 60 61 59 59 61 62 62 63 66 66
64 65 65 70 71 70 71 71 70 71 72 71 69 66 65 65 65 65 66 67 66 66 66 68 66 62 60 60 60 64 63 64 60 60 58 56 59 57 57 59 62 66 65
65 65 64 66 67 70 71 71 71 71 72 70 69 67 67 67 65 66 67 67 68 67 67 67 60 58 59 59 60 62 61 58 55 55 50 50 61 57 58 59 65 65 64
67 66 65 64 63 64 66 70 70 71 70 69 69 68 68 67 67 66 67 67 66 68 68 64 59 57 57 58 61 60 57 57 49 49 49 53 64 66 66 66 65 64 63
67 67 66 63 62 63 64 65 68 69 69 69 68 67 66 61 63 64 65 67 69 68 66 63 60 57 56 54 55 54 52 45 46 49 51 62 65 65 64 64 63 61 60
66 67 67 65 63 63 63 64 62 61 63 64 65 64 61 61 62 61 63 66 68 68 66 62 59 52 47 40 40 48 41 44 46 52 57 65 63 62 61 61 60 59 59
65 66 67 67 65 64 63 63 63 61 61 61 62 63 62 63 66 65 63 63 63 64 59 55 47 41 39 35 36 38 42 44 46 50 59 62 60 60 59 58 57 57 57
64 65 66 67 67 66 64 63 63 62 61 61 62 62 63 63 64 64 64 64 64 61 57 51 44 39 35 33 33 37 40 44 46 48 57 61 59 57 56 55 55 55 55
65 65 65 67 67 67 66 65 63 62 61 60 62 62 62 62 62 62 63 65 64 62 57 51 43 37 34 31 30 35 39 44 46 48 53 59 59 55 53 53 53 52 52
63 65 66 66 67 67 67 67 66 64 62 60 61 62 63 61 62 62 64 65 65 62 58 50 43 38 36 32 29 35 40 44 44 46 48 51 56 54 51 49 51 51 50
50 56 63 67 68 67 67 67 66 66 65 63 62 61 62 61 61 62 62 64 65 62 57 49 42 38 35 30 29 34 39 42 44 44 45 45 47 54 51 48 50 47 47
41 44 53 62 66 67 66 67 68 67 66 64 63 63 63 61 60 61 62 63 64 62 55 48 42 38 36 32 30 31 37 41 41 41 42 41 41 43 45 46 44 44 43
39 40 42 51 61 65 67 67 68 67 67 65 64 64 63 63 61 60 60 62 62 60 52 47 42 39 36 33 30 30 34 38 39 38 38 38 40 39 37 42 43 41 39
40 40 41 43 48 57 64 67 67 67 66 66 65 65 64 64 63 62 60 60 61 59 52 46 42 38 36 33 23 28 31 36 38 37 35 34 36 37 35 34 36 35 38
37 40 40 41 43 48 57 64 65 65 65 65 65 66 65 64 63 63 63 61 60 57 54 48 43 37 34 32 33 32 31 33 36 37 34 32 32 31 29 28 28 28 28
33 35 37 38 40 42 49 57 61 63 64 65 65 65 65 64 63 63 62 61 60 58 55 49 42 38 37 34 34 34 31 29 31 34 34 31 29 29 28 27 27 27 28
33 36 35 36 37 39 43 53 60 63 64 63 64 64 64 64 63 63 63 62 60 57 55 50 43 40 37 35 35 34 33 31 30 31 32 31 29 28 27 27 26 25 25
41 42 40 37 36 37 41 47 55 58 59 59 60 63 64 63 63 63 62 62 60 57 54 50 44 41 41 37 34 30 31 34 31 29 29 29 28 26 27 27 25 24 26
43 45 44 42 38 36 40 46 53 56 56 57 59 61 62 63 63 63 62 62 60 56 55 53 48 42 40 41 37 32 29 28 29 30 30 28 27 26 26 26 25 24 25
45 45 45 41 41 42 39 40 49 55 56 58 60 61 61 61 62 62 61 60 60 58 55 54 51 46 42 40 38 35 32 30 27 27 27 28 28 27 26 25 25 25 24

GFSSE_sfc_dewp_033.txt.gz
Dewpoint
65 68 75 74 74 73 73 74 74 74 74 73 73 72 71 69 69 68 67 67 67 67 68 67 68 67 67 65 65 65 65 66 66 67 68 68 66 66 64 63 66 60 65
65 67 73 74 74 74 74 74 74 74 74 74 73 71 70 68 68 67 66 66 69 68 69 68 68 67 65 65 65 64 64 64 64 65 68 67 68 65 64 64 65 63 64
64 66 66 73 73 75 74 74 74 74 74 72 71 70 69 67 67 66 64 69 70 70 70 69 67 66 64 64 64 64 64 63 63 62 64 56 59 63 63 63 63 65 64
64 65 65 72 72 73 74 73 74 74 73 72 70 69 67 67 66 64 65 69 69 69 68 67 65 64 64 64 64 65 63 62 60 62 57 57 59 64 64 63 62 62 63
63 64 66 72 72 71 70 72 73 73 72 72 70 68 67 65 64 64 68 68 68 67 66 65 65 65 65 65 65 65 64 61 61 61 60 62 61 63 63 65 65 63 65
62 63 69 71 71 70 70 70 72 73 72 71 69 67 65 65 65 65 67 67 66 66 66 66 66 66 66 66 65 64 63 61 63 59 60 60 60 63 65 65 67 68 68
61 64 65 71 71 70 70 70 71 73 71 70 68 65 65 65 65 65 66 66 65 65 66 67 67 65 64 63 63 64 63 62 60 59 59 58 59 60 61 63 66 66 66
61 63 65 70 71 71 70 70 70 72 71 70 68 65 65 65 65 65 65 65 65 66 67 67 64 61 60 61 63 64 63 63 58 57 55 56 61 57 58 59 66 65 65
62 62 63 65 68 70 71 71 70 71 71 70 68 67 67 67 66 66 67 67 67 66 68 65 60 60 59 60 62 62 60 60 53 52 46 50 65 59 59 61 65 65 64
63 62 62 62 62 63 64 70 71 70 71 69 68 68 67 67 67 67 68 68 67 67 67 61 58 58 59 61 61 59 57 58 47 48 48 59 66 66 66 66 65 64 62
64 64 62 60 61 61 62 66 69 71 69 68 68 67 65 60 61 64 65 67 68 69 66 61 58 58 57 58 57 54 55 44 44 48 53 65 65 65 65 64 63 62 61
65 64 63 61 60 61 61 63 64 65 67 66 64 64 60 59 59 58 63 67 68 68 66 62 58 55 55 44 43 48 42 42 45 51 60 65 63 63 62 61 60 60 59
65 66 67 64 62 61 61 62 60 60 61 62 64 63 60 59 60 60 61 62 65 65 62 60 56 50 45 41 39 39 41 42 45 50 61 63 62 61 60 59 58 58 57
64 65 66 66 64 62 62 62 61 60 60 59 60 61 62 63 65 64 62 61 59 61 58 57 50 45 42 39 37 37 40 43 44 48 58 62 61 59 57 57 57 56 55
63 65 65 66 66 64 63 63 63 62 60 59 60 60 60 62 64 65 65 64 63 62 58 55 49 43 40 37 36 36 39 42 44 48 56 60 60 56 54 55 55 53 54
62 64 65 66 67 66 65 65 64 63 62 60 59 60 60 60 61 61 62 64 64 63 60 56 50 44 41 38 36 35 38 42 43 45 53 54 58 56 52 53 52 52 52
56 60 63 65 66 66 66 65 65 65 63 62 60 60 60 60 59 59 60 64 63 64 61 58 51 45 42 39 36 36 39 41 43 44 47 50 50 55 54 52 52 49 50
44 46 52 59 65 66 66 66 65 65 65 64 63 61 61 60 60 59 60 63 63 64 62 58 51 45 43 40 37 35 38 41 41 41 44 45 46 45 49 51 48 47 45
40 42 43 46 55 61 64 66 67 67 66 65 64 63 62 62 61 60 60 61 63 63 62 58 52 47 45 42 39 36 38 40 40 39 40 42 43 45 44 46 49 45 42
37 38 40 41 43 50 59 64 68 67 67 66 64 63 63 63 63 62 61 60 62 63 61 56 52 48 46 43 34 32 37 39 41 39 37 37 39 41 41 41 43 40 41
36 38 40 41 42 44 48 55 65 66 65 66 66 64 64 64 64 64 62 60 60 61 60 56 52 48 45 43 37 37 37 35 37 39 37 37 38 38 38 36 36 35 36
32 35 37 38 40 41 43 47 55 63 63 65 66 66 66 65 64 64 63 62 61 61 60 57 52 47 44 41 40 41 37 33 33 36 38 35 34 35 33 32 32 33 35
37 38 37 36 37 38 41 43 49 56 62 63 64 64 64 64 65 64 64 63 62 62 61 58 54 48 44 41 42 43 41 38 34 35 37 36 33 33 32 32 31 30 32
42 45 42 41 38 37 39 39 44 50 56 60 60 61 63 63 63 65 63 64 63 62 61 59 55 50 49 43 42 38 40 41 37 33 35 34 34 29 31 32 30 29 30
44 47 46 42 40 41 39 39 41 46 51 56 58 58 58 63 63 63 63 63 63 63 61 60 55 49 50 47 44 41 38 36 37 38 32 31 32 31 30 30 30 29 29
45 46 46 43 40 41 43 42 41 46 48 52 55 56 57 60 63 63 63 63 63 62 61 59 57 53 51 49 46 41 37 36 33 33 34 32 30 30 29 30 30 30 30

GFSSE_sfc_dewp_036.txt.gz
Dewpoint
67 72 75 74 74 74 74 74 74 74 74 73 72 72 71 70 69 68 67 67 68 69 69 68 69 67 67 66 66 66 66 66 67 68 69 68 66 64 64 67 67 64 66
68 71 75 75 74 75 75 75 74 74 74 73 72 71 70 69 68 67 66 69 68 69 69 69 67 66 66 66 65 65 64 64 65 67 68 67 67 65 64 65 66 64 64
67 69 71 75 75 75 75 75 74 74 74 74 71 70 69 68 67 65 69 70 70 70 69 68 66 65 65 65 64 64 63 62 63 66 68 60 61 63 62 63 65 65 63
66 66 67 73 75 75 75 75 74 74 73 72 70 68 67 67 65 64 70 70 70 69 68 66 65 65 65 65 65 63 62 60 61 64 61 60 61 65 65 66 62 63 64
64 64 69 72 73 73 73 74 74 74 72 71 70 68 67 65 64 69 70 69 68 67 66 65 65 65 66 66 65 64 62 60 63 63 60 61 61 63 67 68 66 67 68
63 66 70 71 72 69 71 72 73 73 71 70 69 67 65 65 65 68 68 67 67 66 66 66 66 67 66 65 65 64 62 62 65 60 59 63 61 64 65 67 68 68 67
65 66 68 71 69 69 70 70 72 73 71 70 68 66 65 65 66 67 67 66 66 66 67 67 66 65 64 64 64 64 62 64 61 58 57 58 58 60 62 66 67 66 66
65 65 66 69 67 70 70 70 72 73 71 70 68 66 66 65 65 66 66 66 66 67 68 66 63 62 62 63 64 64 63 64 58 55 55 56 62 59 59 65 66 65 64
63 64 65 66 68 70 69 69 71 72 71 70 68 68 68 67 66 66 66 66 67 67 67 63 61 61 61 62 62 62 61 61 53 50 51 59 66 60 60 66 65 64 63
62 63 64 65 66 66 68 69 69 70 70 69 68 68 67 67 67 67 68 69 68 68 65 61 60 59 61 61 60 58 59 59 47 47 60 65 66 65 66 66 65 63 63
63 62 62 63 62 62 62 67 69 69 69 68 67 67 66 63 64 66 66 67 68 69 64 60 60 58 60 60 57 58 56 48 44 50 62 67 66 66 65 64 63 62 61
64 62 61 60 60 61 62 67 65 68 67 66 64 64 62 60 60 62 65 67 69 68 65 62 59 58 57 46 47 50 42 43 46 60 63 66 64 64 63 62 61 60 60
64 66 66 63 60 61 61 64 63 67 67 66 64 63 63 59 60 62 64 65 66 65 63 62 58 52 48 45 41 40 41 42 47 60 63 64 63 62 61 60 59 59 58
63 64 66 66 63 61 62 62 60 60 62 62 64 63 62 61 62 61 62 61 64 63 62 60 56 52 45 39 37 38 40 42 45 58 60 63 62 60 59 58 58 57 57
63 64 66 66 66 63 62 62 62 61 60 60 60 62 62 64 64 65 65 61 59 61 60 57 53 46 42 38 36 36 38 42 44 56 57 60 61 59 57 57 56 56 56
62 64 65 66 66 66 64 63 64 63 61 60 60 61 60 63 64 64 64 65 63 62 61 57 52 47 42 39 36 35 37 42 44 55 55 56 59 58 55 55 55 54 55
61 63 65 65 66 66 66 65 65 65 64 62 61 60 60 60 61 62 62 63 64 63 62 59 53 47 43 39 37 35 39 41 43 46 53 51 53 56 56 54 54 53 53
46 50 64 65 66 66 66 66 66 65 65 64 63 61 60 60 60 60 60 63 63 64 63 61 55 47 44 40 38 36 39 41 42 42 47 49 48 47 52 56 53 51 50
41 42 44 53 64 66 66 66 66 66 67 65 65 64 62 61 61 60 60 62 63 63 63 62 55 46 44 42 40 37 37 40 41 41 42 44 46 47 46 52 53 52 47
38 39 40 44 46 48 62 65 67 66 66 67 66 64 63 62 62 61 60 60 62 62 62 62 54 49 47 44 37 35 36 39 40 40 39 40 41 44 43 43 44 43 47
35 37 38 40 42 44 47 55 65 65 65 66 66 66 64 63 63 62 62 61 62 61 61 61 54 49 47 43 36 35 36 34 36 39 38 38 38 39 41 41 41 39 41
32 35 37 38 40 42 44 46 56 65 65 64 65 65 65 65 64 63 63 62 61 62 61 60 55 50 46 42 37 38 35 34 33 36 38 37 36 38 37 36 37 35 35
41 40 40 39 38 39 40 42 45 48 60 62 62 63 64 64 64 65 64 63 62 61 61 60 56 51 46 44 41 41 39 36 33 34 36 37 34 35 34 32 31 30 32
45 46 45 43 41 38 38 39 40 43 47 55 62 64 63 64 64 64 63 63 63 63 62 61 59 53 48 43 43 42 39 38 34 31 35 36 34 32 32 33 30 29 28
46 47 47 45 42 41 41 39 40 41 44 48 55 58 61 63 64 63 63 63 63 63 63 62 59 55 50 47 45 46 44 39 36 36 31 32 34 33 31 31 30 29 27
45 46 45 43 42 42 41 42 41 40 43 45 50 55 56 58 61 62 62 62 63 63 62 62 60 57 52 51 46 47 44 42 38 37 35 32 31 33 31 31 30 30 30

GFSSE_sfc_dewp_039.txt.gz
Dewpoint
69 73 75 74 75 74 75 74 75 74 74 73 72 72 71 70 69 68 68 68 69 70 69 69 68 68 67 66 66 66 66 67 67 68 68 67 65 66 67 66 66 64 64
71 73 75 75 75 75 75 75 75 74 74 73 72 71 70 69 68 67 69 69 69 69 68 67 67 67 66 65 65 64 64 66 67 67 68 67 67 64 65 66 66 62 63
71 73 73 75 75 75 75 74 74 74 74 73 71 70 69 68 66 69 70 70 70 70 68 67 66 66 65 64 64 63 63 64 66 67 65 61 62 64 63 63 65 64 64
70 71 73 75 75 75 75 74 74 74 74 72 70 69 69 66 65 70 71 71 70 68 67 65 65 65 65 65 63 61 61 61 62 64 62 61 62 65 67 64 63 66 65
66 68 72 75 75 75 75 74 74 73 73 71 70 68 67 65 68 70 70 69 68 67 66 65 65 66 66 65 64 63 62 62 65 62 60 60 62 65 68 67 68 68 68
66 68 71 72 73 73 74 74 73 73 71 70 69 67 65 66 68 69 68 67 67 66 66 66 67 66 66 65 64 63 63 64 64 59 62 63 61 65 68 68 67 68 68
66 67 68 71 71 72 72 73 72 73 71 69 67 66 66 66 68 68 67 67 67 67 67 66 66 65 65 64 64 63 63 65 60 57 57 58 58 61 64 67 66 66 66
65 66 66 68 68 71 71 71 73 72 71 69 68 66 66 66 67 67 67 66 67 67 67 65 63 63 63 64 64 63 63 62 56 54 55 57 62 59 61 66 66 64 63
65 65 65 64 67 69 69 69 72 72 71 69 69 68 68 67 66 67 66 66 67 68 66 63 62 62 63 63 62 60 61 60 48 52 58 62 65 61 66 66 65 63 63
64 65 65 66 67 67 67 68 70 70 70 69 69 68 67 67 67 68 68 68 68 69 64 62 61 61 62 61 59 59 59 57 46 58 64 66 65 63 66 65 65 63 62
64 64 65 66 66 65 66 67 68 70 69 68 67 66 66 65 66 66 66 68 68 68 63 61 60 61 62 61 59 58 56 45 47 60 64 67 67 66 66 64 64 62 61
62 62 64 64 63 62 63 67 67 68 67 66 65 64 63 63 64 64 65 66 68 68 65 62 60 59 56 47 45 52 40 43 55 63 64 67 66 65 64 63 62 61 60
62 65 64 61 61 61 64 66 64 67 66 65 64 63 62 61 61 63 64 66 66 65 62 61 59 54 48 47 43 37 41 42 55 62 64 66 63 62 62 61 61 59 59
63 64 65 66 62 62 64 64 64 67 66 65 64 63 62 61 60 63 63 64 64 64 62 60 58 54 50 44 40 38 40 41 56 60 62 64 64 62 61 60 59 59 58
63 63 64 65 66 63 63 62 61 63 65 65 64 64 63 61 60 61 62 62 64 63 62 60 58 54 48 40 37 36 39 41 54 57 59 62 63 62 60 59 58 58 57
63 63 65 65 66 66 64 62 61 60 62 60 61 63 63 63 62 62 63 60 60 62 62 60 56 49 43 40 37 35 37 41 49 56 57 59 61 61 59 58 57 57 56
63 64 64 65 66 66 66 66 65 63 62 60 60 60 62 63 63 63 63 64 63 62 61 59 54 49 43 40 37 34 37 40 48 55 54 54 57 59 59 57 56 56 56
61 64 64 65 66 66 65 66 66 66 65 63 61 60 60 60 62 63 62 63 64 64 63 61 56 50 45 41 38 36 37 40 43 53 52 51 51 50 56 58 56 55 55
43 59 64 65 66 66 66 66 66 65 67 65 64 62 60 60 60 60 60 62 63 63 63 62 59 50 45 42 39 38 37 39 42 43 50 49 48 48 47 56 57 56 55
36 37 39 55 65 66 66 66 66 66 66 66 66 65 64 62 61 60 60 60 63 62 63 62 60 50 46 44 39 37 36 38 41 41 42 47 47 46 46 47 50 49 53
33 35 36 38 40 44 52 62 64 65 64 63 64 66 66 65 63 62 61 60 62 62 61 62 59 53 47 44 39 35 36 35 37 40 40 40 42 45 44 44 43 42 45
38 39 40 39 37 39 43 45 59 63 64 65 64 64 65 64 65 65 63 61 61 61 61 61 58 53 51 45 42 36 33 34 34 34 39 38 39 42 42 42 41 39 40
43 43 42 42 40 38 37 39 41 45 55 61 61 62 64 64 64 64 63 63 62 62 61 61 60 56 51 48 43 44 38 36 34 34 34 38 37 38 39 40 39 37 36
45 46 46 45 42 41 37 37 37 39 41 50 60 62 63 63 63 63 63 62 62 62 61 62 61 58 53 49 46 42 46 40 35 34 38 39 40 35 36 35 35 32 33
45 45 45 44 42 42 41 41 39 39 41 43 47 51 60 62 63 63 63 62 61 62 62 60 59 57 54 52 48 46 45 44 39 36 36 40 40 37 35 34 31 31 30
44 44 43 43 42 43 43 42 41 41 41 41 43 45 49 56 60 62 62 62 62 63 61 60 59 59 57 54 50 49 47 45 43 40 39 38 40 39 35 33 31 30 30

GFSSE_sfc_dewp_042.txt.gz
Dewpoint
70 73 75 75 74 75 75 74 74 74 73 73 72 71 71 69 68 68 69 70 70 70 68 68 68 68 67 66 66 67 67 67 67 67 66 66 67 67 66 66 66 62 64
72 73 75 75 75 75 75 75 75 74 74 73 72 71 69 68 67 68 69 70 69 68 67 67 67 67 66 65 65 65 67 66 66 66 67 66 66 65 66 65 63 62 63
72 73 73 75 75 75 75 74 74 74 74 73 71 70 69 67 67 70 69 70 69 68 67 67 66 65 64 64 64 65 66 66 65 64 64 62 63 64 63 64 65 64 64
72 73 73 75 75 75 75 74 74 74 73 72 70 69 67 66 70 70 70 70 69 67 66 65 64 64 64 62 63 63 63 62 62 65 62 62 63 67 65 63 65 65 67
71 72 73 75 75 75 74 74 75 74 71 71 69 68 66 67 71 70 70 69 67 66 65 65 65 65 65 64 63 63 63 64 64 63 61 62 63 66 67 67 67 68 69
68 70 74 75 75 75 74 74 74 72 70 69 68 67 66 69 70 70 69 68 67 66 65 66 66 66 65 64 64 64 64 64 63 62 62 63 62 67 68 68 68 68 67
67 69 71 73 74 74 74 73 73 72 70 69 67 65 67 68 69 68 68 67 67 66 66 66 66 65 65 64 64 64 64 63 58 57 57 58 58 64 67 67 66 66 66
66 66 67 70 72 72 72 72 73 72 70 69 67 66 66 66 66 67 67 67 67 67 66 65 64 64 64 64 63 63 62 61 56 55 56 57 63 59 66 66 64 64 63
66 66 65 65 68 70 70 71 72 72 70 69 69 68 68 67 67 66 67 67 67 67 65 63 63 63 64 63 62 61 60 58 49 54 57 59 63 60 66 66 64 63 63
65 65 64 65 65 66 67 70 71 71 70 69 69 68 67 67 68 67 67 68 68 67 63 62 61 62 62 61 59 59 58 56 54 62 64 63 65 65 66 65 64 63 62
64 64 65 65 66 66 66 67 70 70 69 68 68 67 66 65 66 67 67 67 68 67 63 62 61 61 63 63 61 59 54 45 49 62 64 67 65 66 65 65 64 63 61
63 64 65 65 65 65 66 66 67 68 67 66 65 65 64 63 64 66 65 67 68 67 65 62 60 61 59 49 44 49 40 43 58 62 64 68 66 66 65 64 63 61 60
63 63 64 65 64 63 64 66 65 67 66 65 64 63 63 62 62 63 64 65 65 65 62 62 59 56 50 46 43 36 40 45 59 62 64 67 66 65 62 62 61 60 59
64 64 63 62 61 61 64 65 64 66 65 64 63 63 62 61 60 62 63 64 64 64 61 60 58 55 49 47 45 39 39 42 57 61 62 65 65 62 62 61 60 59 58
63 64 65 65 62 61 64 63 63 66 66 65 64 63 62 61 60 62 62 63 64 63 61 60 59 57 53 49 39 37 38 41 56 59 60 63 64 63 62 61 60 59 58
62 63 64 65 65 63 63 62 62 64 66 65 65 64 63 62 60 60 61 62 63 63 63 61 60 57 52 45 39 36 37 40 53 57 58 60 63 63 62 60 59 58 58
63 63 63 64 65 65 65 62 62 61 62 62 63 64 63 62 62 60 61 60 60 61 62 61 60 56 48 43 39 36 35 38 46 56 57 57 60 61 62 60 58 58 57
63 63 64 64 65 65 65 65 65 65 63 61 60 60 63 63 63 62 62 62 62 61 61 60 57 54 48 43 40 38 35 38 42 55 55 55 55 55 59 60 59 58 58
60 63 64 64 65 65 65 65 66 66 65 64 61 60 60 61 62 62 62 62 63 63 62 61 60 53 49 45 41 39 37 38 41 46 53 52 51 52 51 57 60 59 59
38 44 51 63 65 65 65 65 65 65 65 66 66 65 63 61 61 61 61 62 62 63 63 62 61 54 49 46 41 38 38 38 40 42 49 51 50 49 48 49 55 55 58
36 36 37 38 39 58 63 63 63 64 64 63 65 65 65 65 63 62 61 60 61 62 62 62 61 58 53 49 48 40 37 36 36 40 41 47 48 48 47 47 50 48 52
40 40 40 40 38 38 43 46 60 63 64 64 63 64 64 65 65 64 62 61 61 61 60 60 59 56 56 50 48 41 37 37 35 35 39 40 44 47 46 45 45 44 45
44 44 44 44 42 40 37 39 41 42 50 59 61 62 62 63 64 64 63 62 61 61 61 61 60 58 57 51 49 47 37 37 36 35 34 39 39 41 45 46 45 42 41
45 45 44 43 42 41 41 40 37 38 39 44 55 58 60 61 62 63 62 62 61 61 60 59 60 59 55 52 50 48 49 43 38 39 36 36 39 37 40 44 44 42 39
45 44 43 42 43 43 43 42 42 41 40 41 43 44 47 53 59 61 62 61 61 61 60 60 60 60 59 58 50 47 47 48 42 41 38 39 43 42 40 40 41 40 37
43 43 43 43 43 44 44 44 44 43 42 43 43 44 45 47 52 57 60 61 60 60 60 59 60 58 58 56 56 53 49 48 47 44 43 41 43 43 40 40 37 37 37

GFSSE_sfc_dewp_045.txt.gz
Dewpoint
69 71 75 75 74 74 74 74 74 74 73 72 72 71 70 69 69 68 70 70 70 68 68 68 68 68 67 67 68 68 67 66 66 66 66 68 67 65 65 65 64 62 65
71 73 75 74 74 74 75 75 74 74 73 72 71 70 69 68 68 69 70 69 68 67 67 67 67 67 66 65 67 67 66 65 65 65 65 66 66 65 65 63 63 62 64
71 73 74 75 75 75 75 74 74 74 73 72 70 69 68 67 68 69 70 69 68 67 66 66 65 65 65 65 66 67 66 65 64 65 65 63 63 63 64 65 64 64 63
72 73 73 75 75 75 74 74 74 73 72 71 70 69 67 68 70 70 70 69 68 66 64 64 64 63 63 64 65 64 63 62 62 65 61 62 64 66 62 63 65 66 67
71 72 73 75 75 75 74 74 73 73 71 70 70 67 66 70 70 70 71 69 67 65 64 64 65 64 63 63 63 64 64 64 65 63 61 62 63 67 66 67 68 69 69
71 72 73 75 75 74 74 74 74 71 70 69 68 66 67 71 71 70 69 67 66 65 65 65 65 65 65 64 64 65 64 65 63 61 62 63 62 68 68 68 68 67 67
70 72 73 75 75 74 74 74 73 72 70 69 67 66 69 69 70 69 68 67 66 65 66 66 65 65 64 64 64 64 63 65 59 58 58 58 59 66 67 67 66 65 65
69 70 71 73 74 74 74 73 72 72 70 68 67 66 68 68 69 68 67 67 66 66 66 65 64 63 64 63 63 63 61 62 57 55 57 57 60 62 66 65 64 62 61
67 67 67 69 70 71 72 72 72 72 70 69 68 68 68 68 66 66 67 67 66 66 65 63 62 62 63 63 62 60 61 58 53 53 54 56 61 59 65 65 64 63 61
65 65 64 66 67 67 69 71 71 70 70 69 69 68 67 67 67 67 68 68 68 67 64 62 61 61 62 61 59 58 57 56 54 60 62 61 64 63 66 64 63 62 60
64 64 64 65 65 65 65 68 70 69 69 68 68 67 66 64 65 66 66 67 69 67 64 62 61 61 63 62 60 58 50 45 48 60 63 65 64 66 66 65 63 62 60
63 64 64 65 65 65 65 66 68 67 67 66 65 64 63 63 64 65 65 66 68 67 65 63 61 62 60 48 44 45 40 42 54 60 63 67 66 66 65 65 60 62 59
63 63 64 64 64 64 65 65 66 66 65 65 64 63 63 63 63 64 63 65 65 65 62 62 60 56 51 45 44 38 38 42 55 61 64 67 67 66 65 61 59 60 59
62 63 64 64 64 63 64 64 64 66 64 63 63 63 62 61 60 61 62 63 63 64 61 60 58 56 51 47 46 45 38 42 57 60 62 66 67 64 62 62 61 60 58
63 64 63 63 62 62 63 64 63 64 65 64 63 63 62 60 60 60 61 62 63 63 61 60 59 57 55 52 49 41 37 39 45 59 60 62 65 65 62 62 61 60 58
63 64 64 64 62 61 63 62 63 64 65 64 64 63 62 61 60 60 61 61 62 62 62 61 60 59 57 53 48 39 37 38 42 57 58 59 64 65 64 62 61 60 59
62 63 64 65 65 61 62 63 62 62 65 65 65 64 63 62 61 60 60 61 61 62 62 61 60 59 57 52 45 41 37 36 41 53 57 58 60 62 64 62 61 60 58
62 63 63 64 65 64 63 63 62 62 62 64 64 64 64 63 62 61 60 60 61 60 61 61 60 59 56 52 46 42 38 36 38 47 55 56 57 58 61 63 62 60 59
62 63 63 64 64 65 65 65 64 64 63 62 61 61 62 63 63 62 61 61 62 61 60 60 60 58 55 52 47 43 40 37 37 41 52 54 55 55 55 58 61 61 60
52 61 63 64 64 64 65 64 64 64 65 65 64 63 61 61 62 62 62 62 62 62 62 61 60 57 55 53 49 45 42 39 38 40 44 53 53 53 52 52 53 57 60
37 37 39 52 42 63 63 63 63 63 64 64 65 65 65 63 62 61 61 61 61 62 62 62 61 59 57 53 51 47 40 39 37 38 41 46 51 51 50 49 50 53 55
39 40 40 40 38 39 47 53 62 62 63 63 63 64 64 64 64 63 62 61 60 60 60 60 61 58 56 53 52 44 45 44 38 37 38 40 44 50 49 49 49 51 51
43 44 43 42 41 41 38 39 40 41 46 56 60 61 62 63 63 63 63 62 61 60 60 60 59 58 58 51 50 52 43 42 40 39 35 37 39 43 47 48 47 48 48
45 44 42 42 42 42 42 41 38 37 38 40 47 50 48 53 58 61 61 61 61 60 59 60 59 58 56 58 51 51 50 44 43 44 39 37 37 40 43 48 47 46 46
44 42 42 43 44 44 44 43 42 41 42 42 43 43 44 46 49 54 59 60 60 60 59 58 58 58 59 59 55 50 49 49 44 43 47 44 44 43 44 43 44 45 44
43 43 43 43 43 42 42 43 43 43 43 43 44 45 46 48 50 52 56 58 59 59 59 59 58 57 59 59 56 54 51 49 47 46 44 46 45 45 45 45 45 45 44

GFSSE_sfc_dewp_048.txt.gz
Dewpoint
66 70 75 74 74 74 74 73 74 74 72 71 71 70 70 69 69 70 70 70 69 69 68 68 68 68 68 69 68 68 66 66 66 67 67 67 65 65 65 63 64 63 67
68 71 75 75 74 74 74 74 74 74 73 71 71 70 69 68 69 70 69 68 67 67 67 68 67 67 66 68 67 67 66 64 64 64 65 65 67 65 64 64 64 63 67
70 71 73 75 75 75 75 73 73 73 73 72 70 69 68 68 69 70 69 68 68 67 66 66 66 65 66 67 67 66 66 65 66 66 65 63 63 63 64 65 64 65 65
72 73 73 75 75 75 75 74 74 73 72 70 70 68 67 69 69 71 70 68 67 65 64 64 64 64 65 66 65 64 64 63 64 64 62 64 64 63 63 66 67 67 66
71 72 73 75 75 75 74 74 73 72 71 70 69 67 68 70 70 71 70 68 66 64 64 64 64 63 64 64 64 65 64 64 65 61 62 62 64 65 68 68 68 69 68
70 71 74 75 75 74 74 74 73 71 71 70 67 66 70 71 71 71 69 67 66 65 65 65 65 65 64 65 65 65 65 65 63 61 62 61 62 68 69 68 67 67 66
70 71 73 75 74 74 74 74 73 71 70 69 66 66 70 71 71 69 68 67 65 65 66 65 65 65 65 65 65 63 65 64 60 58 57 58 59 67 67 67 66 64 64
70 71 72 74 74 74 74 73 72 71 70 68 68 69 70 70 69 68 67 66 66 66 66 65 65 64 64 64 64 61 64 61 57 55 56 57 61 63 66 65 63 62 62
69 70 70 72 72 72 73 72 72 71 70 68 68 69 69 69 69 68 67 67 66 66 65 64 63 63 64 64 63 59 61 59 54 52 53 55 60 59 65 65 63 63 61
66 66 67 68 69 69 71 71 71 71 70 69 69 68 67 67 67 67 68 68 67 66 64 63 62 62 62 62 60 57 57 56 53 58 61 61 61 62 66 64 63 61 61
64 64 65 65 66 67 68 69 70 69 69 68 68 67 66 64 65 65 66 67 68 67 63 62 60 61 62 60 58 56 49 45 46 59 61 65 65 65 66 65 62 62 61
62 63 64 64 64 65 65 67 68 67 67 66 65 64 63 63 64 65 64 66 67 67 65 63 61 62 57 47 44 43 39 41 49 57 61 66 66 66 66 65 60 58 58
62 63 64 64 64 64 65 65 66 65 65 65 64 63 62 62 62 63 62 64 64 65 62 62 60 56 51 46 44 40 36 41 47 58 62 66 67 66 65 62 60 58 59
62 63 63 64 64 63 64 64 65 65 64 63 63 63 61 61 60 61 61 62 62 63 61 59 58 57 53 48 46 45 43 40 49 58 60 64 67 65 64 60 61 61 60
62 63 63 63 63 63 62 63 63 64 64 63 63 63 62 60 60 60 60 61 62 62 62 60 59 58 56 54 50 47 43 38 40 51 59 62 64 66 64 62 62 60 59
62 63 63 63 63 62 62 62 63 63 64 63 63 63 62 61 60 60 59 60 61 62 62 61 59 59 58 56 54 50 42 38 39 46 57 59 62 65 65 63 62 61 59
62 64 64 64 63 61 62 62 62 63 64 64 64 63 62 62 61 59 60 60 60 61 62 61 60 59 58 57 53 49 43 38 37 41 53 57 59 62 64 64 62 61 60
62 62 64 64 64 62 61 62 62 62 63 64 64 64 64 63 62 61 60 60 60 60 61 60 60 59 58 57 55 52 46 40 37 38 47 55 57 58 61 64 64 62 61
61 62 62 64 64 64 62 62 62 62 62 62 63 63 63 64 63 62 61 61 60 60 60 60 59 59 58 57 56 54 48 43 39 37 42 51 54 57 57 60 62 62 63
58 61 62 63 63 64 64 64 63 63 63 63 62 62 61 62 63 63 62 62 61 61 60 59 59 57 58 57 55 52 50 47 44 39 41 49 53 54 55 55 56 58 61
39 47 55 60 59 63 63 62 62 63 62 63 64 65 64 61 61 61 62 62 61 61 61 61 60 59 57 53 54 54 48 45 42 41 41 41 47 52 52 53 53 53 55
39 40 39 39 38 46 57 60 62 62 62 63 63 63 64 64 64 62 61 60 60 60 60 60 59 58 59 53 56 49 50 49 43 39 38 39 40 48 50 50 50 50 51
42 43 41 41 41 40 38 39 40 41 43 51 57 60 60 60 62 63 63 62 61 59 60 59 58 58 58 52 51 55 48 47 44 45 38 36 38 41 47 49 48 49 50
44 42 42 43 43 43 42 41 38 38 37 40 42 45 44 46 48 54 59 61 61 60 59 59 58 57 56 58 52 52 51 46 48 47 43 38 38 38 41 46 47 48 48
43 42 43 44 44 44 44 43 42 42 42 43 44 45 46 48 49 50 51 55 57 58 58 58 57 57 56 58 56 52 51 48 46 47 48 48 47 43 42 42 44 46 46
43 43 43 42 42 41 42 41 42 42 43 43 44 45 45 46 48 52 53 55 56 57 58 57 57 57 59 59 58 55 52 49 47 47 46 46 47 45 44 45 44 44 45

GFSSE_sfc_dewp_051.txt.gz
Dewpoint
67 71 75 75 74 74 74 74 73 72 72 71 71 70 69 70 71 71 70 69 69 69 69 67 68 69 70 69 68 67 66 65 66 67 67 67 66 64 64 64 64 65 69
67 71 75 74 74 74 75 74 74 73 72 71 70 69 69 70 71 70 69 68 67 67 68 68 68 68 68 68 67 66 65 64 64 65 65 66 67 65 65 65 64 65 68
69 70 72 74 74 75 75 74 74 73 73 71 70 69 68 69 71 69 69 68 67 66 67 67 67 67 68 68 67 67 66 66 66 66 66 65 62 64 65 66 65 65 66
70 70 71 75 75 75 75 74 74 73 71 70 69 68 68 69 71 70 69 68 65 65 65 65 65 66 67 66 66 65 65 65 65 65 63 65 64 65 66 69 68 67 68
70 70 72 75 75 75 74 74 73 72 71 70 68 67 69 69 71 70 69 67 65 65 65 64 64 65 65 66 66 65 65 64 64 63 63 66 67 67 69 68 68 68 67
70 70 74 75 75 75 74 74 73 71 71 69 67 68 71 70 71 70 68 67 65 66 66 65 65 65 65 66 66 65 66 65 63 61 60 63 66 68 68 67 66 66 65
70 71 72 75 74 74 74 74 73 72 70 68 67 69 72 72 71 69 68 66 66 66 66 65 65 65 65 65 64 64 65 63 59 58 58 60 63 68 68 66 64 64 64
70 72 71 74 74 74 74 73 72 71 70 67 69 70 71 70 70 68 67 66 66 66 66 65 65 65 65 65 62 63 64 61 57 56 57 58 61 64 66 65 63 63 62
70 71 71 71 72 73 73 72 72 71 70 69 70 71 70 71 69 68 67 66 66 66 65 64 64 64 65 64 60 61 61 59 55 54 54 57 59 61 65 64 63 61 62
70 70 70 71 70 71 72 71 71 71 70 69 69 68 67 67 68 68 68 68 67 66 64 63 63 63 63 61 59 58 57 56 54 59 60 62 62 63 66 64 62 59 59
68 68 69 69 69 70 70 70 70 69 69 68 68 67 66 65 65 66 66 67 68 66 63 62 61 62 61 59 57 55 51 47 48 54 60 64 65 65 66 65 61 60 60
66 65 66 67 67 68 68 69 69 67 66 66 66 66 65 65 65 65 65 66 67 67 65 62 61 61 55 49 47 44 43 43 47 54 59 65 67 66 67 65 60 58 58
65 64 65 65 65 66 66 68 68 67 66 66 65 64 63 64 65 66 65 65 67 66 64 63 61 57 52 49 47 44 40 42 45 51 59 64 67 68 66 64 60 58 59
64 64 64 65 65 65 65 67 67 66 66 65 65 64 63 62 64 65 64 64 65 66 66 64 61 60 57 53 49 47 46 45 43 52 58 63 65 67 65 61 61 61 60
63 64 64 64 64 64 65 65 67 66 65 65 64 64 63 62 62 62 63 63 64 65 65 64 63 61 60 58 57 54 51 46 42 43 51 61 63 66 66 64 63 62 60
63 64 64 64 64 64 64 65 65 66 66 65 64 64 63 62 61 61 60 61 62 63 64 63 63 62 61 60 59 58 54 48 42 42 45 51 62 64 65 65 63 62 61
63 63 64 64 64 64 64 64 64 64 65 66 65 64 63 63 62 61 60 60 60 62 62 63 63 63 62 61 60 59 56 52 46 43 43 48 54 61 63 65 64 63 62
63 63 64 64 64 63 63 63 63 64 64 64 65 65 65 64 63 62 61 61 61 61 61 62 62 62 61 61 60 60 58 56 54 49 44 44 49 53 59 63 65 64 62
63 63 64 65 64 64 64 62 64 63 63 63 64 64 65 65 64 63 63 62 62 61 61 61 61 61 60 60 60 59 59 58 57 53 49 47 46 51 54 59 62 64 64
62 62 63 64 65 65 65 64 64 64 64 63 63 63 63 64 64 64 64 63 63 62 62 61 61 61 60 60 59 58 58 57 55 54 52 48 47 49 51 54 56 58 61
50 58 62 63 64 64 65 65 65 64 65 65 65 64 64 63 62 63 64 64 63 62 62 62 62 62 62 60 58 59 57 57 55 53 51 48 47 46 48 50 53 55 57
41 44 47 58 56 63 64 64 64 64 65 65 65 65 65 65 65 64 63 63 62 62 62 62 62 61 61 58 59 53 54 53 51 49 46 44 44 43 45 47 49 51 54
42 42 42 42 42 41 43 45 45 46 46 51 56 59 53 48 57 64 65 64 64 62 62 62 62 61 60 58 58 58 52 50 49 52 46 42 41 41 42 46 47 49 50
44 43 43 44 44 43 44 42 40 41 41 42 43 45 46 47 48 48 54 60 62 63 63 62 62 61 61 59 55 55 55 51 52 50 50 45 45 44 43 44 45 46 48
44 45 45 44 44 44 45 44 44 43 44 45 45 46 47 48 49 53 53 52 55 58 60 61 61 61 60 60 58 55 54 51 51 52 49 51 51 50 48 46 44 44 46
44 45 44 42 42 42 43 43 44 44 44 44 45 45 46 47 49 49 53 56 58 59 59 59 59 60 60 60 59 57 55 54 52 50 48 48 49 51 49 48 47 47 47

GFSSE_sfc_dewp_054.txt.gz
Dewpoint
66 69 75 75 74 74 74 74 73 73 72 71 71 70 71 71 71 70 70 69 69 69 68 69 70 70 69 68 67 65 65 65 66 66 67 67 65 64 64 65 68 65 67
65 67 75 75 75 74 74 74 73 73 72 71 70 69 71 71 70 69 68 67 67 68 68 68 69 68 68 68 66 66 65 66 67 67 66 66 67 65 65 65 67 67 68
65 65 69 75 75 75 75 74 73 72 72 70 70 69 71 71 69 69 68 67 66 67 67 67 68 68 68 68 67 67 66 66 66 66 66 61 60 65 67 66 66 65 67
65 66 67 75 75 75 75 74 74 72 71 70 69 68 70 71 70 69 68 65 65 66 66 66 67 67 66 66 66 65 65 65 65 65 63 62 62 68 69 69 68 68 68
65 65 68 74 75 75 74 74 73 71 70 69 68 68 69 71 70 70 67 65 65 65 64 65 66 66 66 66 66 66 65 65 64 60 63 66 65 68 69 68 67 67 67
65 65 73 75 75 75 74 74 72 71 70 69 67 69 70 71 71 69 67 66 66 66 65 65 66 66 66 66 66 66 65 64 63 53 57 64 67 68 67 66 66 65 65
64 67 70 75 75 75 74 74 73 71 69 67 68 70 70 71 70 69 67 66 66 66 65 65 66 66 66 65 64 66 64 62 54 53 53 54 64 68 66 65 64 64 64
64 67 69 73 74 74 74 73 73 71 69 67 69 72 72 70 70 68 67 66 66 66 65 65 65 65 65 64 62 65 62 60 55 52 53 53 61 65 65 64 63 63 63
66 66 69 69 71 73 73 72 72 71 69 68 70 70 71 71 69 68 67 66 66 66 65 64 64 64 64 63 60 63 60 58 51 51 52 56 60 62 65 64 62 61 62
68 68 67 68 67 68 70 71 71 71 69 70 70 68 68 69 69 68 68 67 67 65 64 63 63 63 63 61 58 57 56 57 49 53 55 59 62 64 65 64 60 59 59
66 67 66 66 65 67 70 68 70 69 69 68 67 67 65 62 63 65 66 67 68 65 63 62 62 62 60 60 56 53 51 48 46 48 53 64 65 66 67 64 60 60 60
64 65 65 66 65 66 69 68 68 66 64 64 62 61 58 60 61 62 64 66 67 67 64 61 61 61 57 49 48 48 44 43 43 48 51 62 66 67 67 65 60 59 59
62 63 65 67 66 66 67 68 67 65 65 65 64 62 58 59 61 61 61 61 62 65 63 62 61 57 53 50 50 47 45 42 42 46 54 62 65 67 67 65 60 59 60
63 64 65 65 67 66 66 66 65 64 64 64 64 63 61 58 60 59 58 58 60 61 62 62 60 60 59 57 54 52 50 49 46 45 51 62 64 66 66 64 62 61 61
64 65 65 65 65 65 66 66 65 64 64 64 64 64 62 61 60 58 56 57 58 60 60 60 61 59 59 59 58 57 56 54 50 46 46 60 62 64 66 66 64 63 62
65 65 65 65 65 64 64 65 65 65 64 64 64 64 63 62 62 61 60 58 57 59 60 60 61 61 61 61 60 59 59 57 53 50 48 50 59 62 64 65 64 63 63
65 65 64 64 64 63 63 63 63 64 64 63 63 64 64 63 63 62 61 61 60 59 60 61 61 61 61 61 61 60 60 59 58 55 53 51 52 59 61 63 64 64 63
64 64 64 64 64 63 62 63 62 62 62 62 63 63 64 63 63 63 62 62 62 62 61 61 61 61 61 61 60 60 60 60 60 59 59 56 53 51 58 61 62 64 63
64 64 64 65 64 64 64 63 63 62 63 63 63 63 64 64 63 63 63 63 63 63 62 62 61 62 61 61 61 60 60 60 60 59 59 59 56 54 52 56 60 63 64
63 64 65 65 65 65 65 64 64 63 62 62 63 63 63 63 63 64 63 64 64 64 63 63 62 62 62 61 60 60 60 60 60 59 58 56 57 55 54 53 53 54 61
58 62 63 64 65 65 65 64 64 64 64 64 64 64 64 64 64 64 65 64 64 64 63 63 63 63 63 63 61 60 60 59 58 57 56 54 53 52 52 51 51 51 52
44 58 61 62 63 64 64 64 65 65 65 65 66 66 66 66 66 66 66 66 65 65 64 64 64 62 62 62 61 57 55 51 53 53 53 50 50 48 48 48 48 48 50
43 47 51 55 58 61 64 62 60 60 59 61 63 64 59 52 55 62 65 66 65 65 64 64 64 63 62 62 61 59 54 48 52 53 53 50 49 47 48 48 47 48 49
45 45 44 45 45 45 46 52 56 57 56 47 45 46 47 48 49 48 49 52 57 61 62 62 63 62 62 60 59 59 59 57 54 52 52 51 52 50 50 51 49 48 48
45 46 46 45 45 45 45 44 44 43 44 45 46 46 46 47 48 51 53 55 53 53 55 57 58 59 60 60 60 58 57 55 54 53 51 49 50 49 50 50 49 49 48
46 47 46 44 43 45 45 45 45 45 44 45 45 45 46 46 49 49 49 55 57 58 59 59 59 60 59 61 61 60 57 55 54 53 51 50 50 50 51 50 48 47 45

GFSSE_sfc_dewp_057.txt.gz
Dewpoint
65 70 75 74 73 74 73 73 73 72 72 71 70 70 70 71 70 70 69 69 69 69 70 71 70 69 68 67 65 64 65 65 65 66 66 67 66 65 66 68 69 65 68
65 69 75 75 74 74 74 73 73 73 72 71 69 70 71 70 69 68 67 67 68 68 70 70 69 68 68 67 67 66 66 67 67 66 66 67 68 67 66 67 68 66 69
64 68 71 75 75 75 74 73 73 72 72 70 69 70 70 69 69 68 66 67 68 67 68 70 68 68 68 67 67 66 65 65 65 66 67 61 66 69 68 67 69 69 69
63 66 69 75 75 75 74 73 72 71 70 70 69 70 71 70 69 68 65 66 66 67 67 68 67 67 67 66 66 65 65 63 63 66 64 65 65 69 69 68 68 68 67
62 65 71 75 75 74 74 73 72 71 70 69 68 69 71 71 69 67 65 66 65 65 66 67 67 67 67 67 66 66 64 63 65 62 65 67 66 68 68 67 66 66 66
61 63 73 75 75 74 74 73 72 71 69 68 68 69 71 71 69 67 66 66 66 66 66 66 66 66 66 66 66 65 64 64 64 52 59 66 67 67 67 66 65 65 64
61 67 69 75 74 74 74 73 72 71 68 67 69 71 71 71 69 68 66 67 66 65 66 66 66 66 66 64 66 65 62 63 52 52 52 56 65 67 65 65 64 64 64
61 67 68 74 74 74 74 73 72 70 67 68 70 71 72 70 69 68 66 66 66 66 65 65 65 65 65 63 65 64 62 63 52 51 55 56 64 66 65 64 63 63 63
63 64 68 70 71 73 73 72 72 70 68 68 71 72 71 71 69 68 66 66 66 66 65 64 64 64 64 62 62 62 59 60 52 52 53 56 63 64 64 63 62 61 61
63 65 67 67 68 69 69 71 71 70 69 71 70 69 69 69 69 69 67 67 66 64 63 63 63 63 62 61 58 56 56 59 49 51 54 60 63 64 65 62 60 60 61
66 65 68 65 64 66 67 68 70 69 69 69 67 67 67 62 64 65 66 68 67 64 62 61 62 62 60 60 56 55 57 48 45 48 52 64 65 66 68 64 60 59 60
65 66 67 67 62 67 68 67 67 65 64 62 60 61 59 58 59 62 65 67 67 66 64 61 61 61 58 50 52 54 46 44 44 48 52 62 63 66 67 66 61 60 59
63 64 65 66 65 69 67 67 66 64 64 63 62 59 55 56 60 60 61 61 62 65 63 62 61 58 54 52 51 49 48 47 45 47 53 61 62 64 67 67 62 59 60
60 61 62 65 66 66 66 67 66 64 62 63 63 62 59 56 58 57 57 57 58 60 60 61 59 58 58 57 55 54 52 52 51 50 52 60 60 62 65 65 62 62 61
60 61 62 64 64 66 66 66 65 64 61 61 62 62 60 59 59 56 54 55 55 56 57 58 60 58 58 59 58 58 57 56 55 53 51 60 61 61 63 65 65 65 63
64 63 63 63 63 64 65 66 65 64 61 60 61 62 62 61 61 60 58 56 54 56 58 59 59 60 60 60 59 59 59 59 58 56 54 55 59 59 60 62 63 63 63
63 64 64 64 64 63 64 63 63 64 61 60 61 62 62 61 61 61 61 60 60 58 58 59 60 60 61 60 60 60 60 60 60 59 58 57 57 59 60 59 61 63 63
63 64 64 63 62 61 61 61 61 60 61 61 61 62 62 61 62 62 62 62 62 61 61 61 61 60 60 60 60 60 61 60 59 59 60 60 60 56 60 61 61 61 62
62 63 64 64 63 63 62 62 61 60 61 61 61 62 63 62 62 62 62 63 63 63 62 62 62 61 61 62 62 61 61 60 59 59 59 59 60 60 58 60 61 61 62
62 63 64 64 64 64 64 63 63 62 62 62 62 62 62 63 63 63 63 62 62 63 63 63 62 64 63 62 60 60 61 61 60 60 58 57 56 57 57 57 57 56 59
60 62 63 64 64 64 65 64 64 63 63 62 63 62 63 63 63 64 65 63 64 63 62 62 63 62 63 63 63 61 61 59 58 57 56 55 55 54 53 53 54 54 54
45 60 62 63 64 65 65 65 65 65 64 63 66 65 65 64 65 66 66 66 66 66 64 64 63 63 64 64 61 59 56 53 55 55 55 53 52 53 52 51 51 51 53
41 50 59 61 62 63 65 65 65 64 63 64 65 65 65 58 59 63 65 66 66 66 65 65 64 63 62 62 62 60 55 50 53 54 55 54 52 52 53 52 50 51 51
43 47 51 54 58 59 61 62 61 61 62 60 55 53 50 48 49 49 50 52 54 59 62 62 62 62 63 60 61 60 60 58 54 52 55 53 53 50 52 52 50 50 50
48 49 48 47 48 47 49 52 55 55 50 48 46 46 46 47 48 49 52 54 55 54 54 54 56 58 60 58 57 59 59 57 55 54 51 51 52 51 50 51 50 49 48
48 49 49 45 45 46 46 46 46 48 46 47 48 46 45 46 48 49 49 51 55 56 57 59 59 59 59 58 58 58 58 55 54 53 52 52 51 51 51 51 48 47 47

GFSSE_sfc_dewp_060.txt.gz
Dewpoint
70 73 75 74 74 74 73 73 72 72 72 70 70 70 71 70 69 69 68 69 71 71 70 69 69 68 67 65 65 65 65 65 65 66 67 68 67 68 69 69 68 67 68
70 72 74 74 74 74 74 73 73 73 73 71 71 71 69 69 68 67 68 69 69 70 70 68 68 68 68 67 66 66 66 67 67 66 68 68 69 68 67 69 70 68 69
69 71 73 74 74 74 74 73 73 73 72 71 71 69 70 68 67 66 67 68 69 70 69 68 68 68 67 67 66 64 63 64 65 67 68 67 68 68 69 69 69 68 68
68 70 72 75 74 74 74 73 73 71 70 70 71 71 70 69 66 66 67 67 67 68 68 68 68 67 67 66 66 64 63 64 67 68 66 66 67 69 68 67 67 67 67
67 68 72 75 75 74 74 73 72 70 70 69 71 72 71 69 67 66 66 66 66 67 67 67 67 67 67 67 66 64 64 65 65 66 66 66 66 66 67 66 66 65 65
64 71 74 74 74 74 73 73 71 70 69 69 71 72 71 70 67 66 67 66 66 67 67 67 67 66 67 66 65 64 63 64 64 52 63 68 66 66 66 65 65 65 64
68 71 73 75 74 74 74 73 72 69 68 69 70 71 71 70 68 67 67 66 66 66 66 66 66 66 65 66 65 64 63 64 56 53 53 63 65 66 65 64 63 63 62
68 69 72 73 74 74 73 73 72 70 69 70 71 72 71 70 68 67 67 67 66 66 65 65 66 66 64 64 65 63 63 62 54 52 55 59 67 66 65 63 62 62 62
66 68 70 72 73 73 73 72 71 69 70 71 73 72 71 70 69 67 67 67 66 66 65 65 65 65 64 61 62 61 61 61 54 52 56 58 65 65 64 63 62 62 62
64 66 69 70 70 71 71 71 70 69 71 71 70 69 69 69 69 68 68 68 66 65 64 64 64 64 62 60 58 59 58 59 51 49 60 62 64 65 65 62 60 61 62
65 67 69 68 68 68 69 69 69 68 69 69 68 68 67 66 67 66 66 67 67 65 63 62 63 62 63 62 60 59 58 51 45 48 60 65 65 65 67 65 60 61 61
66 67 67 65 66 67 67 68 66 65 65 64 66 65 65 62 64 65 65 67 67 65 65 63 63 63 61 55 54 57 48 46 44 46 57 63 62 64 66 67 62 61 60
66 67 68 67 66 67 66 67 66 65 64 63 60 59 58 60 61 63 64 64 65 65 63 63 61 59 55 53 52 50 48 48 47 47 57 61 60 62 65 67 64 60 61
65 65 66 66 67 69 67 67 66 64 64 63 63 60 57 56 59 58 61 61 61 64 63 62 61 60 58 58 55 54 54 52 52 51 56 59 60 58 61 65 64 62 62
63 64 65 65 65 67 67 67 65 64 62 63 63 62 60 59 58 57 56 56 57 58 58 59 59 59 58 58 58 58 57 57 56 54 51 59 60 60 59 62 66 65 64
64 64 65 65 65 66 67 66 65 65 64 61 62 63 62 61 60 60 57 55 55 56 58 58 59 60 60 60 60 59 59 59 58 57 55 55 60 59 59 58 61 62 63
65 65 65 64 64 64 64 65 65 65 64 61 61 61 62 61 61 60 61 60 58 56 57 59 60 60 60 60 60 60 60 60 60 59 58 56 57 59 61 59 59 61 62
64 64 65 65 64 64 64 64 63 64 63 61 61 62 61 61 61 62 62 62 62 61 60 60 61 61 61 60 59 60 60 60 60 59 59 60 60 56 59 61 62 61 60
62 63 64 63 63 61 61 61 61 60 61 61 61 62 62 61 61 62 63 63 63 63 62 62 61 60 60 61 62 61 61 60 60 59 59 59 59 59 57 60 61 61 62
61 63 64 64 64 63 63 63 63 62 61 62 62 62 63 63 63 62 63 63 61 62 63 62 62 63 62 62 60 61 61 61 61 60 59 58 56 54 55 55 57 57 59
60 62 63 64 64 64 64 63 63 62 63 62 63 62 63 63 63 64 64 62 63 63 63 63 62 61 61 62 62 61 60 61 60 58 58 56 53 52 50 50 51 51 52
40 62 63 64 64 64 65 65 64 64 64 64 64 64 64 64 65 66 66 66 66 65 65 64 64 63 63 63 60 58 56 54 54 57 53 53 50 50 50 49 49 49 50
39 49 62 63 64 64 65 65 65 63 64 64 65 65 62 56 56 58 62 65 65 65 64 64 64 63 62 62 61 58 54 51 52 53 53 52 50 50 51 49 49 49 50
42 46 51 59 62 62 64 64 61 61 61 59 54 52 51 49 50 50 50 50 50 55 60 61 62 61 60 59 59 61 60 59 54 50 53 52 50 49 49 50 50 49 49
47 47 48 50 53 53 54 57 60 60 49 47 47 46 47 48 49 49 51 51 54 54 52 52 53 58 58 58 56 57 58 57 56 54 52 51 51 50 49 49 47 46 46
48 48 47 47 46 47 48 49 51 49 47 46 46 45 46 46 48 49 49 51 52 55 56 57 56 56 56 56 57 56 55 54 52 51 52 50 51 50 49 47 46 45 46

GFSSE_sfc_dewp_063.txt.gz
Dewpoint
70 73 75 74 73 73 73 72 72 72 72 70 71 71 69 69 69 69 70 71 72 71 69 69 68 67 66 66 66 66 66 66 66 68 68 69 68 68 70 69 70 67 68
71 72 75 74 74 73 73 73 73 73 72 72 71 69 68 67 67 69 69 71 70 69 69 69 68 67 66 65 66 67 68 67 66 66 68 70 69 70 69 68 69 67 68
71 72 73 74 74 74 74 73 73 72 72 72 71 69 68 66 67 68 67 69 70 69 68 68 67 67 67 65 64 64 64 64 64 67 67 68 68 69 68 68 67 66 67
71 71 72 74 74 74 74 73 72 71 71 72 71 69 68 66 67 68 68 67 67 67 68 67 67 67 66 66 64 65 65 65 68 69 67 66 65 68 67 66 66 66 66
71 72 73 74 74 74 73 72 71 70 70 72 72 71 68 66 66 67 67 68 67 68 68 67 67 67 67 66 65 65 64 65 66 67 66 66 65 65 66 66 65 65 64
69 72 74 74 74 74 73 72 70 70 70 71 72 71 69 66 66 66 66 67 67 67 67 67 67 67 66 66 64 64 64 64 59 59 66 67 65 66 65 64 64 62 62
71 73 73 74 74 74 73 72 71 70 69 70 72 71 69 68 67 67 66 67 67 67 67 67 66 65 66 66 64 64 63 63 54 57 63 65 65 66 64 63 63 62 62
71 72 72 73 73 73 73 72 71 70 70 71 73 71 70 68 67 67 67 66 66 66 66 66 66 65 64 65 64 62 62 62 54 54 59 64 68 65 64 63 63 63 62
71 72 72 72 72 72 72 71 70 71 72 72 72 71 71 69 67 67 67 67 66 66 65 65 65 65 63 61 60 60 60 60 52 55 56 60 67 66 64 62 62 63 63
69 71 71 72 72 71 70 70 69 71 71 72 71 70 69 69 68 68 68 67 66 65 64 65 65 63 62 60 58 60 59 59 49 56 59 62 65 65 65 62 60 62 62
68 69 70 70 70 70 69 68 68 70 69 68 68 68 67 67 66 66 66 67 66 65 63 63 63 62 62 62 60 59 59 49 46 52 60 66 65 65 67 65 61 61 61
67 68 69 69 69 69 67 67 65 67 67 66 66 66 65 65 65 65 65 66 66 65 64 63 63 63 61 55 54 58 49 46 44 46 57 64 62 63 65 67 63 62 61
67 67 68 68 68 67 66 67 64 63 63 63 65 64 63 63 64 64 64 65 64 64 62 62 61 59 54 53 52 50 50 47 48 48 55 62 60 60 63 66 64 62 61
66 66 67 67 68 67 66 67 65 64 64 62 60 60 57 60 60 62 63 62 63 64 63 61 60 59 57 56 55 54 53 51 51 52 53 60 61 58 59 66 66 63 63
65 66 66 66 69 67 66 67 65 63 63 63 61 60 56 57 58 58 59 61 60 62 62 62 61 60 58 57 57 57 57 56 56 55 51 59 60 61 59 59 65 65 64
64 65 66 66 68 67 67 67 65 65 64 62 62 62 60 59 57 58 56 55 55 57 58 57 58 60 60 60 60 59 59 59 58 57 56 54 61 61 62 59 59 61 63
64 65 65 65 65 67 67 66 66 65 64 61 62 62 62 61 60 59 59 57 56 55 56 58 59 60 60 60 60 60 60 59 60 59 59 56 57 60 61 61 61 60 61
65 64 65 65 65 65 65 66 65 65 64 62 61 62 62 61 61 61 61 61 60 59 58 59 60 60 60 60 60 60 61 60 60 60 59 60 60 57 59 62 63 61 60
63 64 64 65 65 65 64 64 64 64 62 63 61 62 61 61 61 62 62 62 62 62 62 61 61 61 60 60 61 61 61 61 60 60 59 59 59 58 58 60 61 61 61
63 64 64 64 64 62 62 61 61 61 61 61 61 62 62 61 61 62 62 62 63 62 62 62 62 62 62 61 61 60 61 61 61 61 60 59 55 54 54 54 55 55 59
62 63 64 64 63 63 63 62 61 61 62 62 62 62 63 63 63 63 63 63 63 63 62 62 62 62 61 62 61 60 59 60 60 60 59 56 51 50 50 50 50 51 53
56 62 63 64 64 63 64 64 64 63 63 63 63 63 64 65 66 65 65 65 65 65 64 64 64 63 62 63 59 58 56 54 54 54 54 51 50 50 49 49 49 49 52
41 61 63 64 64 64 65 65 64 64 64 64 64 64 58 56 55 57 61 64 65 65 64 64 64 63 61 60 60 59 55 50 53 53 53 51 49 50 50 49 49 50 49
38 48 62 63 64 64 65 64 63 62 61 62 61 55 50 50 51 51 51 51 50 51 54 59 61 59 58 57 57 59 58 57 54 50 52 52 50 49 51 49 48 47 46
42 48 55 59 58 58 61 62 61 61 59 53 51 50 52 49 49 50 51 50 52 54 53 52 52 54 57 56 55 54 55 55 55 54 51 51 51 50 50 48 46 46 45
47 47 48 50 48 54 55 56 60 57 52 51 51 49 48 48 48 49 50 51 52 53 55 56 56 55 55 55 55 56 54 52 52 51 50 50 50 50 48 46 45 46 46

GFSSE_sfc_dewp_066.txt.gz
Dewpoint
70 73 74 74 73 73 73 72 71 71 71 71 71 70 70 70 71 72 72 71 70 69 69 68 66 66 66 66 67 67 67 68 69 69 69 69 70 69 69 68 68 66 68
72 73 74 74 73 73 73 72 72 72 72 71 68 67 68 69 70 71 71 70 69 69 68 67 66 65 67 68 68 68 67 66 67 68 70 69 70 69 67 66 68 64 69
71 73 73 74 74 73 73 72 71 72 72 71 68 67 67 68 68 69 70 69 68 68 68 67 66 65 65 65 65 65 65 65 65 68 69 68 67 67 66 65 66 66 67
71 72 72 74 74 73 73 72 72 71 72 71 68 66 67 67 67 68 68 67 68 68 67 67 67 66 65 65 65 65 67 69 69 68 67 65 65 66 66 65 65 65 65
70 72 73 74 74 73 72 72 71 72 72 71 69 67 66 67 68 68 67 67 68 67 67 67 67 66 65 65 64 64 64 68 69 67 65 65 64 65 65 65 63 62 63
71 72 73 74 73 73 72 72 70 72 71 71 69 67 66 66 67 68 67 67 68 67 67 67 67 66 66 65 64 64 63 61 65 66 66 66 64 64 64 63 62 62 61
72 72 72 74 73 73 72 71 71 71 72 71 70 68 66 66 66 67 67 67 67 67 67 66 66 67 66 65 63 62 62 61 57 62 64 64 64 64 64 64 63 63 61
71 72 72 72 73 73 71 71 71 71 71 72 71 69 67 67 67 66 67 67 67 67 67 66 65 65 65 64 62 61 61 60 53 58 63 64 67 65 64 63 63 63 62
71 71 72 72 72 72 71 71 70 71 71 72 71 70 69 67 67 67 67 66 66 66 66 66 65 64 62 61 59 59 60 61 50 56 58 63 67 65 64 62 62 63 62
71 71 71 71 71 70 69 70 71 71 72 72 71 70 69 68 68 67 68 67 66 66 66 65 64 63 62 59 60 59 59 56 49 56 57 60 66 65 65 62 61 62 62
69 69 70 70 70 69 67 67 70 70 70 70 69 68 67 66 66 67 66 66 66 65 64 64 64 62 62 62 61 60 57 47 45 55 59 65 65 65 66 66 62 62 61
67 69 70 70 69 68 66 65 67 68 67 67 67 66 65 65 64 65 65 65 66 65 65 64 63 63 60 54 54 56 50 46 45 47 57 65 63 62 65 66 64 62 61
67 69 69 69 69 68 66 64 64 65 66 65 65 65 64 64 64 64 64 64 63 62 61 62 60 59 55 52 52 52 50 48 49 48 52 63 62 59 60 65 67 64 62
66 67 68 69 68 67 66 65 63 62 62 63 64 64 62 62 63 63 62 62 62 63 61 60 60 59 58 55 54 53 53 52 50 52 51 62 62 59 59 63 67 65 62
65 67 67 68 68 67 66 66 64 63 63 62 61 60 58 61 62 61 62 61 61 61 62 61 61 61 60 59 58 57 56 56 56 55 53 59 61 62 60 60 63 66 65
64 66 67 68 68 67 65 67 65 64 63 63 62 60 56 59 58 58 57 60 60 60 62 60 61 60 59 59 59 59 59 59 58 58 57 55 61 62 63 61 60 61 62
65 66 67 67 67 67 66 67 66 65 64 62 63 61 59 58 57 57 58 55 56 56 57 58 58 59 60 60 60 60 60 60 60 59 59 58 57 61 62 62 62 60 61
64 65 66 65 68 67 67 67 66 66 64 63 62 62 61 60 59 59 59 60 58 56 56 57 59 59 60 60 60 60 61 61 60 60 59 59 60 59 60 62 64 62 60
64 65 65 65 65 66 66 66 67 66 64 64 63 62 62 61 61 61 61 61 61 61 60 59 60 61 60 60 61 61 61 61 61 61 61 60 59 58 58 60 61 60 60
64 64 64 65 65 65 65 64 64 65 63 64 63 62 62 61 61 62 62 62 63 63 62 62 61 62 62 62 61 61 60 61 61 60 60 60 56 55 55 54 53 57 61
63 63 64 64 64 63 62 62 61 60 61 61 61 62 62 62 61 61 62 62 62 62 62 62 62 62 62 61 61 58 59 59 59 59 58 58 52 50 50 50 51 53 55
62 63 64 64 64 63 62 62 62 61 62 62 62 63 63 63 64 63 63 64 64 64 63 63 63 63 62 62 58 56 54 54 53 53 53 50 50 50 49 49 50 52 50
57 62 63 64 64 64 63 64 63 63 63 63 63 63 62 62 64 65 65 65 65 65 64 64 63 62 60 59 58 57 52 50 52 53 51 50 49 50 49 49 50 48 47
42 57 63 64 64 64 64 63 62 62 61 62 62 60 54 55 54 53 52 51 51 52 53 56 60 58 57 55 56 58 57 55 52 49 52 52 50 50 49 49 48 46 45
38 42 58 61 62 63 64 64 63 61 62 58 57 57 58 57 57 56 55 53 52 54 54 53 52 52 55 55 54 53 54 53 53 52 49 50 51 50 48 47 46 45 45
45 48 52 57 57 58 60 61 62 61 57 56 54 55 55 53 53 53 53 51 51 52 53 54 55 55 55 55 54 55 53 52 50 50 49 49 49 48 46 46 46 45 44

GFSSE_sfc_dewp_069.txt.gz
Dewpoint
70 72 73 73 73 72 72 71 70 71 72 70 70 70 72 72 72 72 71 70 70 68 67 66 66 67 68 68 68 69 68 68 68 69 70 70 69 68 67 68 68 67 69
71 72 73 74 73 73 72 71 71 72 72 69 69 70 71 72 72 72 70 70 69 68 66 66 68 68 68 68 68 67 67 68 68 69 69 69 68 67 65 66 67 67 68
71 72 72 73 73 72 72 71 71 71 71 68 67 69 70 71 71 71 69 69 68 67 66 66 67 67 67 66 66 66 66 67 69 69 69 66 65 66 65 65 65 66 66
71 71 71 73 73 72 71 71 72 71 69 67 67 67 68 69 71 70 69 68 67 67 67 66 66 66 66 65 67 69 69 67 68 68 65 64 64 65 65 64 64 64 65
71 72 72 73 73 73 71 71 72 71 69 67 67 68 69 67 68 67 68 68 67 67 67 67 66 65 65 65 65 68 69 69 68 66 64 64 64 63 64 63 62 62 62
70 72 72 73 73 73 72 72 72 70 70 67 66 67 68 68 67 67 68 67 67 67 67 67 66 65 65 65 64 63 65 68 67 64 64 65 62 64 64 64 63 62 61
70 72 71 73 72 72 72 72 72 72 71 68 66 66 67 67 68 67 67 67 67 67 67 66 66 65 65 64 63 62 61 63 62 63 63 63 63 65 64 64 64 63 62
71 71 71 72 72 72 71 71 72 73 71 69 68 66 66 66 67 67 67 67 67 67 66 66 66 66 65 63 61 61 61 58 56 59 63 63 67 64 64 64 64 64 62
71 71 71 71 71 71 71 71 71 72 72 71 70 68 67 67 67 67 67 67 67 67 66 65 64 64 63 61 59 60 61 58 54 56 62 63 66 64 63 62 63 63 62
70 71 70 71 70 69 69 70 70 71 71 71 70 69 68 68 68 67 68 67 66 66 66 65 64 63 61 59 60 59 59 55 51 56 56 59 66 65 64 62 61 62 62
69 69 69 69 69 67 66 68 70 70 70 70 69 68 67 65 66 66 66 67 67 66 65 65 64 62 63 61 60 60 54 46 45 57 58 61 65 64 65 67 62 62 61
68 68 68 68 68 67 65 67 67 68 69 69 67 66 65 64 65 65 65 65 66 66 65 64 63 63 60 53 53 55 49 46 45 47 57 62 64 61 63 66 65 63 61
67 68 68 68 68 66 64 64 66 66 66 66 66 65 64 64 63 64 63 63 62 62 60 62 60 58 54 52 52 52 50 49 48 48 50 61 62 60 59 62 65 65 63
65 66 68 69 68 66 65 64 65 65 65 65 65 64 63 63 62 62 62 62 61 61 59 59 59 58 58 56 54 54 54 53 51 51 53 59 63 60 59 60 65 65 64
64 65 66 67 68 66 65 64 63 62 64 64 64 64 62 61 62 62 62 61 60 60 61 60 60 60 60 60 59 57 57 56 56 55 55 58 61 63 61 60 62 64 65
58 59 64 66 67 67 65 65 64 63 61 61 61 62 61 61 62 62 61 61 60 60 61 61 61 61 60 59 58 59 58 59 59 58 58 57 59 61 64 61 61 62 61
62 62 64 66 67 66 66 66 66 65 64 63 62 60 57 59 59 59 57 57 60 59 59 60 58 58 59 60 60 60 60 60 60 60 60 60 60 60 62 62 63 61 61
63 63 66 66 67 67 66 66 67 65 64 63 63 62 59 57 57 57 57 57 56 55 56 57 58 59 59 59 60 60 60 61 61 60 60 60 59 59 60 62 63 62 60
63 63 64 64 64 65 67 67 67 66 65 64 63 62 61 59 58 59 59 60 60 58 57 57 58 59 60 59 60 60 60 60 60 60 60 60 60 59 58 60 61 60 60
64 65 64 65 66 66 67 67 67 67 66 65 64 64 62 61 61 60 61 61 61 61 61 61 60 62 61 61 61 61 60 60 60 59 59 60 58 57 56 54 57 60 61
64 64 64 64 65 65 65 65 64 64 63 63 64 63 63 62 61 61 62 62 62 62 62 62 62 62 61 61 60 58 58 58 58 56 55 57 54 52 50 51 56 55 56
62 63 64 64 64 64 64 63 62 62 62 61 62 62 63 62 62 62 62 62 63 63 62 62 62 62 62 62 59 56 54 54 53 53 52 51 50 50 49 50 51 51 50
59 61 63 63 64 64 63 63 63 62 63 62 63 63 63 64 64 64 64 64 64 64 63 63 63 62 60 58 58 57 53 49 51 52 51 50 49 49 49 50 49 47 47
44 59 62 63 63 63 63 63 62 61 60 62 62 61 58 58 59 59 58 59 58 56 56 56 60 60 59 56 55 57 56 55 53 49 51 52 50 49 49 49 46 45 45
40 45 59 61 63 63 63 63 63 61 62 61 60 57 57 57 58 59 58 57 55 55 54 53 51 51 55 54 54 53 52 53 53 54 49 50 50 49 48 47 46 45 45
41 46 54 59 61 61 61 62 62 62 59 58 57 57 57 57 57 56 54 52 51 52 52 53 53 53 53 53 53 53 55 52 49 49 49 49 47 47 46 46 46 44 45

GFSSE_sfc_dewp_072.txt.gz
Dewpoint
69 71 73 73 72 72 70 69 70 72 71 70 72 72 73 72 72 72 71 70 69 67 66 67 68 68 69 69 69 67 68 68 70 69 69 69 67 66 67 68 68 67 69
70 71 73 73 73 72 71 70 71 72 71 70 71 72 72 72 72 71 70 69 68 67 67 67 68 69 69 69 68 68 68 70 69 68 68 67 68 66 66 67 67 65 67
71 71 72 73 73 73 72 70 71 71 70 69 71 72 72 72 71 71 69 69 66 66 68 68 68 68 67 67 67 67 69 69 69 68 67 64 64 65 65 65 65 65 66
71 71 71 73 73 72 71 71 71 69 67 68 70 71 71 72 70 69 69 68 66 66 68 68 67 67 67 68 69 68 68 69 68 66 64 64 62 64 64 63 63 63 64
71 71 71 73 73 72 71 72 71 69 67 67 70 71 71 71 70 69 68 67 67 67 67 67 66 66 66 68 69 69 69 68 67 65 64 62 62 63 65 64 63 63 62
70 71 72 72 72 72 72 72 70 69 67 67 68 69 70 69 69 69 67 67 67 67 66 66 66 65 66 66 66 69 69 68 66 63 63 64 62 65 65 65 64 63 62
70 71 71 72 72 72 72 71 71 69 67 67 67 68 68 68 67 67 67 67 67 67 66 66 65 65 65 65 63 63 67 65 62 62 62 63 63 65 66 65 65 63 62
70 71 70 71 72 72 71 71 72 71 68 67 67 67 68 67 67 67 67 67 67 67 66 66 65 64 64 62 62 62 60 61 58 61 62 63 66 65 65 65 65 64 62
70 70 70 70 71 71 71 71 71 71 69 68 68 68 68 68 67 67 67 67 67 66 66 65 65 64 62 60 60 61 60 58 55 58 62 63 66 64 64 63 64 64 63
68 70 70 70 69 69 69 70 70 71 70 70 68 68 67 67 67 67 68 68 67 67 66 65 64 62 61 60 60 60 58 55 54 56 56 58 65 64 64 64 62 63 62
68 68 69 69 68 67 67 68 69 70 70 70 68 67 66 65 65 66 66 67 67 66 65 64 63 62 61 59 60 59 52 45 48 56 57 60 64 63 63 66 62 62 62
67 68 68 68 67 66 67 67 67 68 70 68 66 65 64 64 64 65 64 65 66 66 66 64 63 63 57 53 52 54 49 47 45 46 55 60 63 62 60 64 65 63 62
67 68 67 68 67 65 65 66 66 66 69 68 65 64 64 63 63 63 62 62 61 62 60 61 59 58 53 52 53 52 50 50 48 49 50 57 62 60 59 60 63 65 64
65 67 68 68 67 65 64 65 66 66 66 67 65 64 63 62 61 61 61 61 60 60 58 58 58 58 57 57 55 55 55 54 53 51 52 58 60 61 60 60 62 65 65
61 64 66 67 67 66 63 64 65 65 66 66 65 64 63 62 61 62 61 61 60 59 59 59 59 59 59 59 59 58 57 57 56 57 56 58 59 61 61 61 61 63 64
60 63 63 65 66 66 65 64 63 64 65 64 63 64 63 62 62 62 61 60 59 59 60 60 60 60 60 59 59 59 58 59 59 59 59 58 61 61 62 61 61 62 62
61 60 60 60 65 66 66 65 65 64 63 62 63 62 62 61 62 62 61 60 60 59 59 59 59 58 58 59 59 60 60 60 60 60 60 60 60 61 61 63 62 62 61
60 59 61 61 63 65 66 66 66 66 65 64 63 61 60 59 60 60 59 57 57 59 58 57 58 58 59 59 59 60 59 60 61 60 60 60 60 60 61 61 63 62 60
61 61 63 64 65 66 66 66 67 67 66 65 65 63 61 58 58 58 57 57 57 56 55 55 57 58 59 59 59 60 60 59 60 60 59 59 60 60 59 60 61 60 60
63 62 61 63 64 65 65 66 66 66 67 67 65 64 62 60 58 58 59 59 60 59 58 58 57 60 61 61 61 60 60 60 60 59 58 58 59 57 57 56 58 60 62
63 63 61 62 64 64 64 64 63 63 63 65 65 64 64 63 62 60 60 60 61 61 61 62 61 61 62 62 60 57 57 58 57 53 54 55 55 54 53 55 56 56 57
62 63 63 62 63 62 62 61 62 62 63 64 64 64 63 63 62 62 61 61 62 62 62 62 62 61 61 62 59 54 52 53 53 53 51 51 51 50 50 51 51 50 51
58 61 63 63 63 64 64 64 62 62 62 62 62 62 62 63 63 63 62 63 63 64 63 63 63 62 61 59 57 58 53 49 50 52 51 49 49 49 49 50 48 48 48
41 53 61 62 63 63 64 63 63 61 61 62 62 62 61 62 62 63 62 62 61 60 60 60 61 60 60 59 56 56 55 53 50 47 50 50 50 49 49 48 46 46 48
42 42 53 60 61 62 63 63 62 62 62 62 61 60 59 60 60 60 60 59 59 57 55 54 51 52 55 53 52 52 51 52 55 53 49 48 49 49 48 47 46 45 46
41 42 50 56 59 60 60 61 61 61 60 59 59 59 58 57 58 59 58 58 55 54 54 54 54 54 52 52 52 52 54 51 49 50 50 49 47 47 46 46 45 44 46

GFSSE_sfc_dewp_075.txt.gz
Dewpoint
68 70 73 73 72 72 71 71 72 72 72 72 69 71 72 72 72 72 71 70 69 68 67 68 70 70 67 68 68 69 70 69 69 68 68 68 67 67 68 68 68 66 68
69 70 73 73 72 71 70 71 72 72 72 72 72 72 72 73 72 71 70 68 67 67 68 68 69 68 68 68 68 69 70 69 68 67 68 67 67 66 66 66 66 66 69
70 70 70 73 73 72 71 71 72 72 71 72 72 73 73 73 72 71 69 68 68 68 68 68 68 68 68 68 68 69 69 69 68 67 66 62 62 64 64 64 64 66 66
70 70 70 73 73 72 71 72 71 70 70 71 72 72 72 72 71 70 68 67 68 68 68 68 68 68 69 69 68 69 69 68 67 66 61 61 61 65 64 64 63 63 63
70 70 70 72 72 72 71 72 70 68 68 71 71 72 72 72 70 69 68 67 69 69 68 67 67 68 70 71 69 69 68 67 66 64 62 63 63 64 65 64 63 63 63
70 70 72 72 72 72 72 72 69 67 67 69 71 71 72 71 69 67 68 68 68 68 67 67 66 66 67 69 69 69 68 67 66 64 63 64 64 66 66 65 64 63 63
70 70 70 72 72 72 73 71 70 67 67 68 69 70 71 70 69 67 67 67 67 67 67 66 66 65 65 66 66 68 67 65 63 64 64 64 64 66 66 66 65 63 63
69 70 69 71 72 72 71 71 70 68 67 68 69 69 69 68 66 67 67 67 67 67 66 66 65 65 63 63 62 62 63 62 61 63 64 65 66 65 65 65 65 64 62
70 69 69 69 70 71 71 71 71 69 68 68 68 69 67 68 67 67 67 67 67 66 66 66 65 64 62 61 61 61 60 59 58 60 61 64 66 65 64 64 64 64 62
69 69 69 70 69 69 69 70 70 69 68 68 68 68 67 66 67 67 68 68 67 66 66 65 64 62 61 60 60 59 57 57 56 57 57 59 64 64 63 64 63 63 62
68 69 69 69 68 68 68 69 70 70 69 68 67 67 66 65 66 66 66 67 68 67 66 65 64 62 60 60 60 57 54 47 54 56 57 59 63 62 62 65 63 63 62
66 68 69 68 67 67 67 68 69 70 69 67 66 66 65 66 66 65 65 66 67 67 66 65 63 61 57 54 53 54 50 50 49 49 52 59 62 62 60 63 65 64 63
63 67 68 67 67 66 66 68 68 70 70 68 66 65 65 65 66 65 65 64 64 63 62 62 61 57 54 54 55 53 53 54 52 52 54 56 59 62 60 60 63 65 65
60 65 67 68 66 65 65 67 67 68 69 67 66 65 64 64 64 64 63 63 62 61 59 59 57 57 56 57 57 57 57 58 57 56 56 58 58 61 61 61 62 64 65
59 62 66 68 67 65 64 67 67 67 68 67 66 65 64 63 63 62 62 62 61 61 59 59 60 60 60 60 60 59 59 58 58 59 59 59 61 61 62 61 61 62 63
61 60 64 66 67 66 64 64 66 67 67 67 66 65 64 63 62 63 63 62 62 60 60 60 61 62 61 61 60 59 60 60 60 61 61 61 62 62 63 64 63 62 62
60 60 61 62 65 66 65 65 65 65 65 66 66 66 65 64 63 63 63 63 62 60 59 61 61 60 60 60 60 60 61 60 61 61 61 61 62 61 62 63 64 63 62
59 59 60 60 62 65 66 66 66 65 65 65 64 64 64 64 63 62 63 62 61 61 60 59 59 59 59 59 60 60 60 60 60 60 60 61 61 61 62 60 62 64 62
58 60 60 61 61 64 66 66 66 66 66 66 65 65 63 61 61 61 61 61 59 58 59 59 58 58 59 60 60 60 60 60 60 60 60 60 60 60 61 61 61 62 62
60 60 61 61 61 65 66 66 66 66 67 67 66 66 65 64 60 60 59 59 58 57 57 56 56 58 59 60 61 61 60 60 60 59 59 58 59 60 59 59 59 59 62
62 61 61 61 59 65 65 64 64 62 63 66 66 66 66 64 62 60 59 59 60 60 59 58 58 59 61 63 62 59 59 58 57 55 54 56 57 57 57 58 59 58 58
62 62 62 62 62 63 64 63 63 63 63 63 64 65 65 65 64 61 60 60 61 61 62 62 63 63 63 63 60 59 54 54 54 54 52 53 53 53 54 55 54 53 53
57 61 62 61 61 63 64 64 63 63 63 63 63 64 64 64 65 64 62 63 62 63 64 64 64 63 61 61 60 59 55 51 53 54 53 51 51 51 51 52 51 50 50
48 52 61 62 62 63 64 63 62 61 61 62 63 63 63 62 62 63 64 64 64 64 63 63 62 62 62 60 59 59 59 58 54 49 52 52 51 49 50 50 49 48 49
45 45 48 59 62 62 63 63 62 62 60 61 63 62 61 60 61 61 61 61 61 61 60 59 54 54 58 57 57 55 56 56 55 54 49 52 51 50 50 49 47 47 47
45 46 50 55 59 60 62 63 62 61 61 61 61 61 61 60 60 60 60 60 60 59 57 57 55 54 54 54 54 55 54 52 52 52 51 50 51 51 49 48 46 45 47

GFSSE_sfc_dewp_078.txt.gz
Dewpoint
64 68 73 73 73 72 71 71 72 72 72 70 72 72 72 72 73 72 71 70 69 68 68 68 68 68 69 69 70 70 69 68 68 68 68 68 68 68 68 68 69 66 69
65 67 73 73 73 72 72 73 73 73 72 71 72 72 72 72 72 71 70 69 68 68 69 70 69 67 68 69 70 69 68 67 67 67 67 67 67 65 65 66 68 66 68
65 67 70 73 73 72 72 72 72 71 72 72 72 73 73 72 72 70 69 68 68 68 69 70 68 68 68 69 70 69 68 67 67 65 66 59 61 64 64 63 64 65 66
65 66 68 73 72 72 72 72 72 71 71 72 73 74 73 73 71 69 69 68 69 69 69 68 68 68 68 69 69 68 68 67 65 65 58 59 59 65 64 64 64 63 63
65 66 67 73 73 72 72 72 70 70 71 72 72 73 72 72 70 69 68 70 68 69 68 68 69 70 69 69 69 68 67 66 65 62 61 62 62 64 65 63 63 63 63
65 66 71 72 72 72 73 72 69 68 70 71 72 72 72 72 69 68 69 70 70 69 68 68 68 70 70 70 69 68 67 66 66 60 62 63 63 65 66 64 64 63 63
65 66 69 72 72 72 73 71 69 68 69 70 71 71 72 70 68 68 67 68 68 68 67 67 66 66 68 69 69 68 66 65 58 60 61 62 63 65 66 66 64 63 63
65 66 67 70 71 72 72 71 69 69 68 69 70 71 71 69 68 67 67 67 68 68 66 66 65 64 64 64 65 66 64 63 58 59 61 61 65 65 65 65 65 63 63
65 66 67 68 68 71 71 70 69 69 69 69 70 70 69 69 67 66 66 66 67 66 66 65 65 63 63 62 61 61 60 60 55 56 57 60 66 64 64 64 64 63 62
66 67 67 67 65 68 68 70 69 68 69 68 69 68 68 67 67 67 67 67 67 67 66 66 64 62 61 61 60 59 58 60 53 55 55 58 64 64 63 64 64 63 62
61 67 67 66 65 63 67 68 69 68 68 67 67 67 65 63 63 64 66 67 68 67 66 65 63 62 61 61 60 55 55 48 51 53 54 59 62 62 62 64 63 63 62
59 67 67 66 64 62 65 68 67 65 63 61 62 64 61 61 61 61 64 67 68 67 67 64 63 61 57 49 51 54 51 51 50 52 53 58 61 63 60 63 65 64 63
60 63 67 66 64 60 61 67 69 67 65 62 60 59 59 61 63 61 61 62 61 63 58 60 58 52 51 51 52 50 53 55 54 56 55 55 59 62 61 61 62 64 65
61 62 66 67 65 61 60 65 67 69 67 65 62 59 60 60 61 59 59 59 59 57 56 55 52 52 53 54 53 55 57 57 57 58 58 59 60 61 63 62 62 63 64
60 62 62 68 66 63 61 61 65 67 68 66 63 62 60 60 60 58 57 57 56 55 53 53 53 53 55 58 58 58 58 58 58 59 59 60 61 62 63 63 62 63 63
58 61 62 65 67 63 61 62 62 64 67 68 66 64 63 61 60 59 58 58 58 56 55 54 56 58 58 59 59 59 59 59 59 58 58 59 63 63 64 65 65 63 62
58 61 61 61 64 65 63 64 64 65 64 67 67 66 65 63 62 61 61 61 60 59 54 57 58 60 59 59 59 59 59 59 58 57 58 58 60 62 63 64 64 65 63
59 59 60 61 61 62 65 65 65 66 66 66 66 67 66 65 64 61 60 61 60 59 57 58 59 59 58 58 58 58 58 58 57 57 58 58 58 58 62 63 62 63 63
58 58 59 61 61 59 64 66 65 64 65 64 65 65 66 65 64 62 61 61 61 59 59 58 58 57 57 58 58 58 58 57 57 57 57 58 59 60 59 61 61 62 63
57 59 60 61 61 61 64 66 67 66 66 65 65 63 63 62 61 61 61 61 60 59 58 58 57 56 58 58 57 58 60 57 57 57 56 55 56 58 59 60 60 59 62
58 60 60 60 61 61 64 64 64 63 65 64 65 64 64 64 64 64 63 60 60 59 57 56 57 57 59 60 62 59 57 56 56 56 55 54 55 57 58 59 59 59 58
61 61 61 61 61 62 64 63 64 64 64 62 63 63 63 64 64 64 64 64 60 60 60 58 59 60 61 62 58 58 53 52 53 54 54 53 54 56 57 58 57 57 56
60 61 61 61 61 61 61 64 64 64 64 63 63 63 63 63 64 65 65 64 63 63 63 63 63 62 62 62 62 58 52 49 52 52 53 52 53 54 54 55 54 53 52
58 60 61 62 60 61 61 61 62 61 60 62 61 62 63 64 64 64 65 64 64 63 63 64 65 64 62 60 62 60 59 57 51 45 51 52 52 51 52 52 51 51 51
46 48 52 60 62 62 62 62 61 61 62 61 61 61 62 62 62 62 62 63 63 63 62 61 59 60 60 59 59 57 55 55 54 51 44 44 52 51 51 51 50 49 50
48 50 52 55 60 61 63 62 62 61 61 60 60 60 61 62 62 62 61 62 62 60 59 59 58 57 56 56 56 55 54 52 50 50 48 47 47 49 52 51 50 49 49

GFSSE_sfc_dewp_081.txt.gz
Dewpoint
64 69 74 73 72 72 71 71 70 70 71 72 72 72 72 72 72 72 71 69 69 68 68 68 68 70 70 71 69 68 68 68 68 68 68 68 68 68 69 69 70 67 69
63 68 73 73 72 72 72 72 73 72 71 72 73 72 72 72 72 71 70 69 68 68 68 68 68 68 70 70 68 68 67 66 66 67 67 67 67 65 66 67 68 66 68
62 67 70 73 73 73 73 72 72 72 72 72 73 72 72 72 72 71 69 68 69 70 69 67 68 68 69 70 68 67 66 65 65 66 67 59 62 65 64 63 64 65 66
62 67 67 73 73 73 73 72 71 72 72 72 73 73 73 72 71 70 69 69 70 70 70 67 68 68 70 70 68 67 65 64 63 65 58 58 59 65 64 65 64 63 63
64 67 69 73 73 72 72 71 71 71 71 73 72 73 73 72 71 69 69 70 68 70 69 68 69 69 69 69 68 67 65 63 64 63 60 62 63 64 65 64 63 64 64
65 66 71 72 73 72 73 72 70 71 71 72 72 72 72 72 70 69 70 68 70 67 69 69 70 69 70 69 68 67 65 65 66 60 61 63 63 64 65 64 64 64 64
65 67 69 72 72 72 73 72 70 70 71 71 72 72 72 71 68 68 70 70 69 68 68 68 69 70 70 69 68 67 64 64 60 60 60 62 63 65 66 65 64 64 64
65 67 67 70 72 72 72 71 70 70 70 71 71 71 71 69 68 66 69 69 68 68 67 67 66 66 67 68 67 65 63 64 57 59 60 62 66 65 65 65 64 63 63
62 66 68 67 69 71 71 70 69 70 70 70 71 71 70 69 68 66 67 67 67 67 66 66 65 64 64 63 62 62 61 62 57 57 58 62 66 64 64 64 64 62 62
62 61 68 68 66 66 68 69 69 69 70 70 70 69 68 68 66 67 65 66 68 68 67 66 64 63 62 61 60 59 60 61 54 56 56 61 66 64 63 64 63 63 61
61 61 64 68 65 63 66 66 68 69 68 68 68 67 65 63 63 64 65 65 68 68 66 65 63 62 63 62 60 58 58 51 52 53 54 62 62 62 62 64 64 63 62
59 59 61 62 67 64 66 66 63 61 62 60 63 63 63 62 61 61 65 66 68 67 67 65 63 62 59 50 52 55 48 49 49 53 55 61 60 63 61 63 64 64 63
60 61 61 61 64 63 65 67 62 60 57 59 61 62 59 59 61 62 64 64 63 64 60 61 60 54 50 49 50 48 51 53 53 55 55 59 59 62 63 62 63 64 65
60 60 61 62 61 64 64 67 66 60 58 57 58 58 58 60 62 59 59 60 59 58 56 56 54 51 51 50 50 51 53 56 56 57 58 61 61 61 63 63 63 63 64
58 60 61 62 62 64 59 67 67 66 61 59 57 57 58 59 61 58 57 57 57 56 54 54 52 50 50 52 54 54 56 56 56 57 58 61 62 63 64 64 64 63 63
58 60 61 62 62 65 58 64 67 67 66 64 60 59 57 58 59 57 56 55 55 55 55 52 51 52 52 55 57 57 57 57 57 57 57 59 63 64 64 65 65 65 64
58 60 60 61 63 64 61 60 64 67 67 66 64 61 61 60 59 57 57 58 58 58 53 53 52 55 56 56 56 57 57 57 57 56 56 58 60 63 64 64 64 64 64
58 59 60 61 62 63 65 64 61 61 64 68 67 66 63 62 61 60 61 61 60 58 57 53 55 56 57 57 57 57 57 57 56 55 56 57 59 57 62 65 63 62 63
58 59 60 61 61 63 62 65 64 63 64 63 64 65 65 65 64 62 59 60 60 60 58 56 57 57 57 57 57 57 58 56 55 54 55 56 57 59 59 63 62 62 64
58 59 60 61 61 62 63 65 65 64 65 63 64 64 65 65 64 62 61 61 62 61 59 59 57 57 56 56 56 56 58 57 58 56 55 54 53 56 57 59 61 60 62
58 59 60 60 61 62 63 63 63 62 64 65 65 64 64 63 63 63 64 63 62 61 59 58 58 57 57 60 59 58 58 57 56 56 55 53 53 54 56 58 59 60 59
60 59 61 61 61 62 63 62 63 63 63 64 64 63 62 62 63 63 64 65 63 63 61 62 58 57 58 60 59 58 55 54 55 54 53 52 52 55 56 57 58 59 58
59 60 59 60 61 62 62 63 62 63 63 63 64 63 63 63 63 64 65 65 64 64 63 62 63 60 61 62 62 59 53 52 53 53 55 52 52 53 55 56 56 56 55
58 59 60 61 61 62 62 61 61 61 60 61 63 63 63 63 63 64 65 65 65 64 63 62 63 63 62 60 62 61 59 58 52 48 52 52 52 51 53 55 54 53 53
54 59 60 60 61 62 61 61 61 61 61 62 61 61 61 62 62 62 63 63 64 64 63 63 61 60 60 60 60 59 55 55 54 53 46 49 52 51 51 52 52 52 52
50 51 52 54 59 61 61 61 61 60 60 60 60 60 60 61 61 61 62 62 63 62 61 60 59 58 57 57 57 55 54 52 51 50 49 47 47 50 52 53 53 52 52

GFSSE_sfc_dewp_084.txt.gz
Dewpoint
68 71 74 73 72 72 72 71 71 72 74 73 73 72 73 73 72 72 70 69 69 68 68 70 71 71 70 68 68 68 68 68 69 68 68 68 68 69 69 69 69 67 69
68 70 74 74 72 72 72 72 72 71 73 73 73 72 72 73 72 71 70 69 68 68 68 69 68 71 70 68 67 67 65 65 66 67 67 67 67 66 66 67 68 65 67
68 69 72 74 73 73 73 73 73 72 72 73 73 73 73 73 72 71 69 69 70 69 68 69 69 69 69 68 67 65 66 66 66 68 66 63 64 65 64 64 65 65 66
67 69 69 73 73 73 73 73 73 72 72 73 73 73 73 72 71 70 69 70 71 70 68 67 68 70 69 68 67 64 64 64 65 66 61 60 62 65 65 65 65 64 64
67 67 69 73 73 73 73 72 72 72 72 72 72 72 73 73 71 70 70 71 70 69 67 68 68 70 69 68 67 64 63 63 66 64 62 62 63 64 65 65 64 64 64
67 66 72 72 72 73 73 72 71 71 72 72 72 72 72 72 71 69 71 68 70 68 68 69 69 69 70 68 67 65 64 65 66 60 63 65 61 64 65 65 65 64 64
66 70 70 72 72 73 73 72 71 71 72 73 72 72 72 71 70 70 69 68 67 69 70 71 69 69 69 68 67 64 63 65 62 60 62 62 63 65 65 64 64 64 64
64 68 69 70 72 72 72 71 71 71 71 73 72 72 71 71 70 70 67 67 68 69 69 69 70 69 69 68 67 64 64 64 59 60 63 64 67 65 65 65 63 64 64
63 64 68 69 70 71 71 70 70 71 71 71 71 71 70 70 69 67 69 67 67 68 68 67 66 66 66 66 66 64 63 61 58 59 62 64 67 65 65 64 64 63 63
63 63 62 67 68 68 69 69 69 70 70 70 70 70 69 68 68 68 66 69 66 68 68 67 66 64 64 63 62 63 60 60 56 55 62 66 67 63 64 65 64 63 62
63 63 62 62 62 63 68 67 68 69 69 69 69 67 66 64 62 64 65 67 68 68 68 66 65 64 64 62 61 60 58 53 54 54 58 65 65 62 63 65 64 63 62
59 60 60 62 61 61 61 67 65 66 67 67 66 65 63 62 62 62 64 65 68 68 67 66 64 64 61 55 55 57 50 48 51 53 56 63 62 63 61 64 64 64 63
58 59 60 61 62 61 62 66 63 63 64 64 65 64 62 62 62 65 65 65 65 65 64 64 63 58 54 52 52 49 49 52 52 54 58 62 61 62 63 62 63 65 65
58 59 60 61 61 62 62 63 64 59 59 59 63 62 62 61 61 63 64 64 63 63 60 60 59 55 53 50 50 50 52 55 56 57 57 61 62 61 62 64 64 64 64
58 59 60 61 61 62 62 65 65 58 56 58 61 61 60 61 60 59 60 59 59 58 57 57 55 53 51 50 50 51 54 56 56 57 57 61 63 65 64 64 64 65 64
58 58 61 61 62 63 62 64 65 65 59 57 57 58 59 60 59 58 57 57 57 56 55 54 52 51 51 52 54 55 56 57 57 57 59 59 63 64 65 65 65 65 65
57 60 60 62 62 62 63 64 65 65 65 61 60 57 57 59 58 57 56 56 56 55 54 53 51 52 55 56 56 57 57 57 57 57 57 59 62 63 65 65 65 63 64
58 59 60 61 62 63 64 64 64 65 65 66 61 60 60 60 59 58 58 58 59 59 56 54 53 54 57 57 57 57 57 58 56 55 56 57 59 59 63 65 65 63 62
58 59 60 60 61 61 62 62 64 64 65 65 66 66 63 62 61 61 61 61 60 59 58 56 55 57 57 57 57 57 57 57 56 54 54 55 56 58 59 63 62 61 62
58 59 60 60 61 62 63 62 63 64 64 65 65 66 66 65 65 63 61 60 61 61 59 58 57 57 57 57 56 55 58 57 57 57 54 53 53 54 56 59 60 60 62
59 60 60 60 60 61 62 61 61 61 64 64 64 64 65 65 65 63 63 63 62 61 60 59 58 57 57 57 58 57 58 57 56 56 54 52 53 55 56 57 60 60 60
59 59 60 60 61 60 61 62 61 61 62 63 64 63 63 63 63 63 63 63 63 62 62 62 61 59 57 57 58 57 56 56 57 54 53 51 51 55 56 57 58 59 58
57 59 60 61 61 61 62 61 61 61 61 61 62 62 63 63 63 64 64 64 64 63 62 62 62 62 61 61 60 58 54 51 53 53 52 52 51 52 55 56 56 56 56
58 58 60 61 61 61 61 61 60 59 59 60 61 62 62 62 63 64 64 64 64 63 62 62 62 62 61 59 61 61 60 58 50 49 52 51 50 50 53 55 54 53 53
54 57 59 59 61 61 61 61 60 59 60 60 61 60 61 62 62 62 62 62 63 63 63 63 61 62 61 61 60 59 57 56 54 52 48 49 52 51 51 53 52 52 51
53 54 55 57 59 60 60 60 60 60 59 59 59 60 60 60 61 61 61 61 61 61 62 62 62 60 58 57 57 56 55 53 52 51 50 50 49 49 51 51 51 51 51

GFSSE_sfc_dewp_087.txt.gz
Dewpoint
69 71 74 73 72 72 72 72 74 75 74 74 73 73 73 73 72 71 69 68 70 70 71 71 71 69 68 68 68 68 69 69 68 67 67 68 69 69 69 69 68 66 68
70 71 74 73 72 72 72 72 73 74 74 74 73 72 72 72 72 71 69 69 68 69 71 71 71 68 68 67 66 65 66 65 65 66 67 67 67 66 66 67 66 65 66
70 71 72 73 73 73 73 72 72 73 74 74 73 73 72 73 72 70 69 69 69 69 69 71 70 68 68 66 65 66 66 66 67 67 67 63 64 65 65 65 64 65 66
70 71 71 74 74 73 73 72 72 71 72 73 73 73 74 73 71 69 69 69 70 70 69 68 70 68 68 65 65 66 66 65 65 65 61 62 62 65 65 65 65 64 64
69 70 71 74 74 73 73 72 71 71 72 73 73 73 73 73 71 69 71 71 70 70 70 68 71 69 68 66 64 64 64 65 67 64 62 62 63 64 65 65 65 65 64
68 69 72 73 73 73 73 73 72 72 71 72 72 72 72 72 71 71 71 71 67 67 67 68 70 69 68 67 64 64 65 66 64 63 63 64 62 65 65 65 65 65 64
67 70 71 73 73 73 72 72 72 71 71 72 72 72 72 72 71 71 70 68 66 66 69 69 70 69 69 67 65 64 64 64 60 62 62 63 63 65 65 64 65 65 64
65 68 70 71 71 72 71 72 71 71 71 72 72 72 72 71 71 70 68 66 67 69 71 69 69 69 69 67 65 63 63 63 59 63 63 64 67 65 65 64 64 64 64
64 63 62 63 67 70 70 70 71 71 70 73 71 71 71 70 70 67 67 68 69 69 69 70 70 69 69 67 65 64 63 62 56 63 63 64 67 65 65 65 63 63 63
63 62 62 62 62 62 61 66 68 70 70 70 70 70 69 69 69 68 68 69 69 69 69 68 67 66 66 65 64 63 61 61 55 62 63 65 66 64 65 64 64 62 62
63 62 62 62 62 61 61 62 63 68 69 69 69 68 67 65 66 66 66 67 68 69 68 67 66 66 65 63 62 60 59 52 53 59 63 68 66 64 64 65 64 63 62
59 62 62 62 62 61 61 62 61 65 67 68 68 67 65 63 62 64 65 66 68 68 67 67 66 65 62 56 55 58 50 47 49 56 59 66 65 64 64 65 64 64 63
57 58 60 61 62 61 61 62 62 62 66 67 67 66 64 62 61 63 64 64 66 65 65 65 64 60 56 53 52 50 48 47 50 55 58 64 65 65 64 63 65 65 66
57 58 59 60 61 60 62 62 61 63 64 65 66 66 64 62 63 64 64 64 64 63 62 61 61 57 54 51 51 50 47 52 54 54 57 63 65 64 65 65 64 64 64
57 57 58 61 61 61 61 62 63 62 63 64 64 65 64 62 64 64 64 64 63 62 60 60 59 56 53 52 50 50 50 53 55 56 55 61 63 65 64 64 64 65 65
58 58 59 61 61 62 61 63 63 64 62 61 63 62 62 62 62 62 62 62 61 59 58 58 56 55 52 51 50 52 54 56 56 57 57 58 63 64 66 65 65 65 65
58 58 60 61 62 62 62 63 65 65 61 59 62 59 61 61 59 59 59 59 58 57 55 54 53 51 51 51 53 56 56 57 57 56 58 58 61 63 65 66 65 65 64
58 59 60 61 61 61 63 63 66 66 64 61 59 58 60 59 58 57 56 56 56 55 54 53 52 53 55 56 56 56 57 57 57 57 57 58 60 60 63 65 66 64 62
58 59 59 61 60 62 63 64 65 65 65 63 62 60 59 59 58 57 58 57 57 58 56 55 54 54 56 57 57 57 57 57 57 55 54 55 58 59 60 62 63 62 62
58 59 60 60 59 61 61 62 64 64 64 65 63 63 60 59 60 59 60 60 60 59 58 57 55 57 57 57 56 55 58 57 56 57 55 53 55 55 58 60 59 60 63
59 60 60 60 60 62 61 61 61 62 64 64 63 64 64 64 64 63 61 62 62 60 59 58 58 57 57 57 57 57 57 57 55 55 55 52 53 55 56 59 59 60 62
58 60 60 60 60 61 61 62 61 62 62 63 64 64 64 64 64 64 63 62 62 62 61 61 60 59 57 57 56 57 55 56 57 56 54 51 54 55 56 57 59 58 58
56 57 60 60 60 61 61 61 61 61 61 61 62 62 63 63 63 63 63 63 63 62 62 62 62 61 60 61 60 57 55 53 53 53 52 51 53 54 56 56 58 58 57
54 57 59 60 61 61 61 60 60 58 58 60 61 61 62 62 62 63 63 63 63 63 61 61 62 61 61 59 60 61 60 59 54 52 54 53 51 50 55 55 55 55 54
54 54 55 58 60 61 60 60 59 59 60 60 60 60 60 61 61 61 62 62 62 62 62 61 60 61 61 60 59 59 59 57 56 54 51 50 52 51 52 54 54 53 52
52 55 55 55 57 59 59 60 60 59 59 58 59 59 59 60 60 61 61 61 60 61 62 62 61 60 59 59 59 58 56 55 54 53 51 52 51 52 53 53 52 52 51

GFSSE_sfc_dewp_090.txt.gz
Dewpoint
69 72 74 73 73 74 74 75 75 74 74 73 73 73 73 73 72 70 69 71 71 71 70 71 70 69 69 68 69 69 68 69 68 68 68 69 69 69 68 67 67 65 68
70 72 74 73 72 72 74 75 75 74 74 74 72 72 72 72 71 69 68 71 71 72 72 71 69 68 67 67 68 67 65 65 66 66 67 67 67 67 67 66 67 64 67
70 71 72 73 73 73 73 73 74 74 74 74 73 72 71 72 71 70 68 69 70 72 71 70 68 67 66 65 66 66 66 66 66 66 66 64 64 66 65 64 65 65 65
70 71 71 73 73 73 72 71 72 73 73 73 73 73 73 72 71 70 69 69 70 71 71 70 68 67 66 67 67 67 66 66 65 65 62 63 63 66 65 65 65 64 63
70 70 71 74 74 73 72 71 70 71 73 73 73 73 73 72 71 69 70 70 70 69 71 69 68 67 65 66 66 65 65 66 67 64 62 63 63 64 65 65 65 65 64
70 70 73 73 74 73 73 72 71 70 70 72 73 72 72 72 71 70 71 71 70 69 70 70 69 68 66 66 65 66 66 66 66 63 63 64 63 65 65 65 65 64 64
68 70 71 72 72 74 73 73 72 72 71 72 72 72 72 71 71 71 71 70 69 67 68 70 69 68 67 65 65 65 64 65 62 61 62 63 63 65 65 65 65 64 64
68 68 68 70 71 72 71 71 72 71 70 71 72 72 72 72 71 71 71 66 67 68 69 70 69 68 67 65 65 64 63 64 62 62 63 64 66 65 65 64 64 64 64
64 63 63 63 64 66 66 66 68 70 70 70 72 71 71 70 70 70 69 68 68 69 70 70 69 69 68 66 64 63 62 62 62 63 63 64 67 65 65 64 63 63 63
62 63 62 61 61 62 62 62 64 66 69 70 71 70 69 69 69 69 68 68 69 70 71 70 69 69 68 67 65 62 60 61 61 62 63 64 66 65 65 64 63 62 62
61 62 62 62 62 62 62 61 61 63 64 68 69 68 68 68 66 66 65 67 69 69 69 69 69 68 67 65 63 60 58 53 57 62 63 67 66 64 65 64 64 63 62
61 61 62 62 62 63 62 61 60 59 62 64 68 68 67 67 65 64 64 67 68 68 68 68 67 67 63 57 56 58 50 48 49 59 63 68 66 64 65 65 65 64 63
59 60 62 61 62 62 63 63 62 60 64 64 66 67 66 66 65 65 64 65 66 65 65 65 65 61 57 54 52 51 49 46 49 56 58 67 67 65 64 65 65 65 65
57 57 60 61 61 60 61 61 61 61 61 64 65 67 66 65 65 64 64 64 65 64 63 62 61 58 55 52 51 50 47 48 51 54 56 64 66 66 65 65 65 65 65
57 57 58 59 59 59 60 61 61 61 60 61 64 66 66 65 63 63 63 63 64 63 61 60 59 57 54 52 50 50 49 48 54 54 54 62 64 66 66 65 65 65 65
57 57 57 59 59 60 60 60 61 61 60 59 63 64 65 65 64 64 63 63 63 63 61 60 58 56 53 52 51 50 50 51 54 56 54 56 63 64 66 65 65 65 65
58 57 57 59 60 60 60 61 62 63 63 61 60 64 64 64 65 63 63 63 63 61 60 58 57 56 54 52 50 50 53 55 56 56 57 56 59 62 65 66 66 65 64
57 57 58 60 60 61 60 61 61 63 64 63 61 63 63 62 64 63 62 61 61 59 57 56 55 53 52 52 52 53 56 57 57 57 57 58 58 59 63 65 66 66 64
57 58 58 60 60 60 60 61 62 62 63 64 63 62 61 61 60 62 60 59 58 57 56 54 53 53 54 56 56 56 57 57 57 57 56 56 59 60 60 62 63 64 63
58 58 59 59 60 60 61 62 62 62 63 63 63 62 60 61 59 58 57 57 56 56 55 55 53 55 56 56 56 56 56 58 57 56 55 55 58 59 59 60 61 59 61
57 57 58 59 59 59 60 59 61 61 62 63 63 63 61 60 59 58 59 58 57 57 56 56 55 55 57 57 57 57 57 57 56 56 56 53 55 56 59 59 59 59 61
58 59 58 59 59 60 61 60 61 62 62 63 63 63 61 61 60 60 61 61 61 60 58 58 58 58 57 57 56 56 55 55 57 57 54 52 53 56 57 58 58 58 59
55 58 59 60 60 60 61 61 61 62 61 62 63 62 62 62 62 62 62 62 62 61 61 61 60 60 59 59 58 57 54 53 54 54 53 51 54 55 56 58 58 58 57
54 55 57 59 60 61 61 61 60 58 58 60 61 62 62 62 62 62 62 62 62 61 61 61 61 60 60 59 60 61 59 57 53 52 55 54 53 53 56 56 57 57 56
54 55 55 58 58 60 60 60 59 59 60 61 61 60 60 61 61 61 61 61 61 62 61 61 60 60 60 59 59 59 58 59 57 54 52 53 54 54 54 55 55 55 55
51 54 54 53 54 55 58 59 59 59 59 59 59 59 59 60 60 60 61 61 61 61 61 61 61 60 60 59 58 58 56 56 55 53 51 52 52 55 55 54 55 54 53

GFSSE_sfc_dewp_093.txt.gz
Dewpoint
68 71 74 73 74 74 74 74 74 74 74 73 72 72 72 72 71 69 69 70 69 69 70 70 70 68 68 68 68 69 69 67 68 69 69 70 68 67 66 66 67 65 69
70 72 74 73 74 74 74 75 75 74 74 73 72 71 71 71 70 69 71 71 71 70 71 70 70 69 68 69 67 67 68 67 67 66 67 67 68 67 66 66 66 64 68
70 71 72 73 73 73 74 74 74 74 74 74 73 71 72 72 70 69 71 71 72 71 71 68 67 67 67 68 65 65 64 65 66 66 66 64 64 65 65 65 65 65 65
70 71 71 73 73 73 73 73 73 73 73 74 73 72 72 72 70 69 70 71 72 71 70 68 67 65 66 67 67 67 66 65 65 65 63 63 63 65 65 65 64 64 64
70 71 71 73 73 73 72 72 73 73 72 73 73 73 72 72 71 69 69 71 72 72 71 68 66 66 67 68 67 66 65 65 66 63 62 63 63 64 65 65 64 64 64
70 70 72 73 74 73 73 72 70 72 72 72 72 72 72 71 71 69 71 71 70 72 70 68 66 66 68 68 66 67 67 66 64 62 63 64 63 65 65 65 65 64 64
70 71 72 74 74 73 73 72 72 70 70 72 72 72 72 72 71 71 71 71 69 70 70 68 67 66 66 67 66 65 67 66 62 61 62 63 63 65 65 65 65 64 64
68 70 70 71 72 72 72 72 72 71 71 71 72 72 72 71 71 71 71 70 69 68 70 69 67 66 66 66 65 64 66 65 61 62 62 63 66 65 65 65 64 64 64
65 65 65 67 68 67 67 68 68 69 69 70 71 72 71 70 70 71 71 69 69 68 68 70 68 67 66 66 65 64 65 65 62 62 63 64 67 65 64 64 63 63 63
64 64 63 63 62 61 62 64 64 64 65 66 70 71 70 69 69 69 69 68 66 67 69 70 69 68 67 67 65 63 63 64 61 62 63 64 67 65 65 63 63 62 62
62 61 62 62 62 63 62 61 61 62 62 64 68 68 68 68 68 67 66 66 67 69 70 70 70 70 68 67 65 62 59 57 60 62 63 65 66 65 65 64 63 62 62
60 61 62 61 62 63 63 62 60 59 59 59 64 66 67 67 66 65 64 65 67 69 70 70 69 69 66 61 59 59 51 53 57 62 62 66 67 65 65 65 64 64 62
60 60 61 61 61 61 63 63 63 61 62 61 63 67 66 66 65 64 63 63 65 65 66 67 66 63 59 55 53 52 49 47 48 56 61 66 67 65 65 65 65 65 65
58 59 60 61 61 61 62 62 61 61 61 62 63 67 66 65 65 65 63 64 66 66 64 64 62 60 57 53 51 49 48 47 48 53 57 64 67 66 65 65 65 65 66
57 57 58 60 60 60 59 59 59 59 59 60 63 66 66 65 65 65 65 65 65 65 64 63 61 58 56 53 51 50 49 46 49 52 55 60 65 67 67 66 65 65 65
57 57 57 58 60 59 59 59 59 59 60 58 61 64 65 65 64 65 65 65 64 64 63 62 60 58 55 52 51 50 50 49 50 53 54 54 63 65 67 67 66 65 65
57 57 57 57 59 58 58 59 60 60 61 60 58 62 65 64 64 64 65 65 64 64 63 61 59 57 54 52 51 51 50 50 52 54 56 54 57 62 64 66 66 65 65
55 57 57 57 59 59 59 59 60 61 61 62 61 60 63 64 64 64 64 64 64 62 62 60 58 56 55 53 51 51 51 53 55 56 56 57 57 57 61 65 67 67 66
55 57 57 58 59 59 59 60 60 60 61 62 63 62 61 64 64 63 64 64 63 62 60 58 57 55 53 53 53 52 53 56 57 57 57 57 58 59 60 62 64 64 65
56 57 57 58 58 58 59 60 61 62 62 62 63 64 62 63 64 64 63 63 61 60 58 56 55 54 53 53 54 55 56 57 57 57 57 56 57 59 59 59 61 61 62
56 56 56 57 57 58 58 58 58 59 60 62 63 63 63 63 62 63 63 62 60 58 57 55 54 53 55 56 56 56 57 56 57 56 56 55 56 58 59 59 60 59 60
57 56 57 57 58 58 58 58 59 59 61 62 62 62 63 62 62 61 61 61 59 58 56 56 55 56 54 57 56 55 54 55 57 57 56 53 55 57 58 58 58 58 58
54 54 57 58 59 59 59 60 60 61 61 61 62 62 62 62 62 61 60 60 59 59 58 58 57 57 56 57 57 56 54 52 55 55 54 52 53 55 56 58 58 58 57
52 55 56 58 59 59 60 60 59 58 58 59 60 62 62 62 61 62 61 61 61 61 60 60 60 59 59 57 58 59 59 56 53 51 54 53 53 54 56 57 58 58 57
54 55 55 55 55 56 60 60 59 59 59 60 61 61 61 61 61 61 60 60 60 61 60 60 59 59 59 58 58 58 58 58 57 54 52 52 53 53 55 56 58 58 57
50 51 50 51 52 53 54 55 56 58 59 59 59 59 60 60 60 60 60 59 59 60 60 60 59 59 59 59 59 58 57 56 56 55 53 51 52 52 54 55 55 57 57

GFSSE_sfc_dewp_096.txt.gz
Dewpoint
67 71 74 74 74 74 74 73 73 74 74 74 73 73 72 72 72 71 69 69 70 70 72 71 70 70 70 69 70 68 68 69 69 69 70 69 66 66 66 66 67 67 69
69 72 74 74 74 74 74 74 74 74 73 73 72 72 72 71 71 69 69 69 70 71 71 70 67 69 67 67 69 69 68 68 67 67 68 68 68 66 66 65 66 64 66
70 72 72 74 74 74 74 74 74 74 74 73 71 71 71 71 70 70 71 71 70 71 71 69 68 67 69 66 66 67 66 66 66 66 66 64 64 65 65 65 65 65 65
71 71 71 74 74 74 74 74 74 73 73 73 72 71 71 71 69 70 71 71 71 71 69 68 67 67 68 66 66 65 65 66 66 66 63 63 63 65 65 64 64 64 64
70 71 71 74 74 74 73 74 73 73 73 73 72 72 72 71 70 70 71 72 72 71 69 67 66 68 67 67 67 67 65 66 66 64 62 63 63 64 65 65 64 64 64
69 70 72 73 73 73 73 73 73 73 72 72 72 72 72 72 70 69 71 72 72 71 69 66 67 68 69 68 66 66 65 66 64 62 63 64 63 65 65 65 64 64 64
69 70 72 73 73 73 72 72 72 72 72 72 72 71 71 71 71 71 71 71 72 71 69 66 67 68 68 67 67 67 67 66 62 62 62 62 63 65 65 65 64 64 64
69 69 71 71 72 73 73 72 72 71 70 71 72 72 71 71 71 71 71 71 72 71 69 67 67 67 67 67 66 67 67 65 61 61 62 62 66 65 65 65 64 64 64
66 67 67 69 70 70 70 70 69 69 68 68 71 72 71 71 71 71 71 71 70 70 70 68 67 67 67 67 66 66 67 65 61 62 63 63 67 65 64 64 64 63 63
64 65 65 65 64 63 63 66 65 65 66 67 69 70 70 69 69 70 69 70 69 68 70 70 68 67 67 68 66 65 66 65 61 62 63 63 66 65 64 63 63 63 63
63 62 63 63 63 63 63 63 63 62 62 65 68 68 68 68 68 68 67 68 68 68 68 70 70 68 68 67 65 63 64 62 61 61 62 65 67 65 64 64 63 63 62
60 62 62 62 62 62 63 62 61 60 59 58 64 66 67 67 67 67 65 66 67 67 67 69 70 69 67 63 62 61 53 57 60 61 61 65 67 66 65 65 64 63 63
60 61 62 62 61 62 62 61 62 61 61 61 60 65 66 67 66 66 64 64 63 64 67 67 68 66 63 59 57 54 50 53 54 60 62 65 67 66 65 65 65 65 64
58 60 62 61 61 61 61 61 62 62 62 62 61 64 65 65 65 65 64 64 64 66 65 66 65 63 61 56 53 50 49 48 48 50 58 64 67 67 66 66 65 65 65
57 59 60 60 61 60 60 60 59 59 59 59 61 64 66 66 65 65 65 65 65 65 65 63 63 62 58 55 52 49 48 47 46 49 54 59 64 67 67 66 66 66 66
57 57 59 59 60 60 60 59 59 58 59 59 60 62 65 66 65 65 65 65 65 65 64 63 62 60 58 54 51 50 50 49 47 50 52 55 61 65 67 67 67 66 65
53 57 57 58 59 59 59 59 58 58 59 59 59 60 63 65 65 65 65 65 65 65 64 62 61 59 56 54 52 50 50 50 50 50 53 53 55 61 64 66 68 67 66
45 54 56 58 58 58 58 58 58 59 59 59 60 60 61 64 64 64 64 65 65 64 64 62 61 59 57 54 52 51 50 51 51 51 53 56 55 55 60 64 66 67 67
43 47 55 57 57 58 58 58 58 59 60 60 61 61 61 62 63 63 64 64 64 62 62 62 60 59 56 55 53 51 51 52 53 54 56 56 57 57 57 61 63 64 66
48 52 55 56 57 57 58 58 59 59 60 61 61 61 62 61 61 63 63 63 62 61 60 61 61 58 56 54 53 52 53 54 55 56 57 57 57 58 58 59 61 61 64
54 55 55 56 56 57 56 58 57 58 59 60 61 61 61 62 62 62 62 63 60 59 58 60 59 57 55 55 55 55 56 56 56 57 57 57 56 57 59 59 59 60 62
56 56 56 56 56 57 57 57 57 57 58 60 61 62 62 62 63 63 62 62 61 59 57 57 58 57 55 56 54 55 53 55 56 57 56 55 55 57 58 58 59 59 59
53 53 56 57 57 57 58 58 59 59 59 59 59 61 62 62 62 63 63 62 61 61 60 59 58 55 54 57 57 55 53 52 54 55 56 55 53 55 57 58 58 58 58
53 54 56 57 55 56 56 58 57 57 57 58 58 60 61 62 62 62 61 61 61 61 59 59 58 57 57 55 57 58 58 55 53 52 54 54 53 54 56 57 58 58 57
51 51 53 53 52 53 55 59 59 58 58 59 59 59 59 61 61 62 61 61 61 61 60 59 59 58 58 57 57 57 57 57 56 53 51 53 53 54 55 56 58 58 57
48 49 49 49 49 50 51 53 54 55 56 57 58 58 59 60 60 60 60 60 60 60 60 60 60 59 59 58 58 57 57 56 56 55 53 52 51 53 53 56 57 57 57

GFSSE_sfc_dewp_099.txt.gz
Dewpoint
68 72 75 74 73 74 73 73 74 74 74 73 73 73 73 72 71 70 69 69 70 71 71 71 71 71 70 70 70 70 70 70 70 70 70 68 67 67 67 68 69 66 70
68 71 74 75 74 74 74 74 74 74 74 74 73 73 73 72 71 70 69 69 71 72 71 70 70 70 70 69 68 69 69 68 68 68 68 68 68 66 66 66 68 65 67
69 71 71 74 75 75 74 74 74 74 74 74 73 73 73 72 71 69 69 69 71 71 70 68 69 67 67 69 68 68 68 67 67 67 66 62 63 66 65 65 65 65 66
70 71 70 74 74 74 74 74 74 74 73 73 71 72 72 71 70 69 70 70 71 72 71 69 69 69 67 66 66 66 66 66 66 66 63 62 62 65 65 64 64 64 64
70 71 70 74 73 73 74 74 74 74 73 73 73 71 72 71 70 70 72 72 71 71 70 69 69 69 66 66 66 65 66 66 66 64 64 64 63 64 65 65 64 64 64
70 71 72 74 73 73 73 74 73 73 73 73 73 72 72 72 70 71 72 71 71 70 69 68 68 68 69 68 67 66 66 66 65 63 63 64 63 65 65 65 65 64 64
69 71 71 73 73 73 73 73 73 73 73 72 72 72 71 71 71 71 72 72 71 70 68 67 67 67 68 68 67 66 66 65 62 63 64 64 64 65 65 65 64 64 64
66 70 70 70 72 72 72 72 72 72 72 72 72 72 71 72 71 71 71 71 71 70 68 67 68 68 68 67 67 68 67 65 62 63 64 64 66 65 65 64 64 64 64
65 66 70 70 70 71 71 71 71 71 69 68 70 72 72 71 71 71 70 71 71 70 69 68 69 68 67 68 67 69 67 65 62 62 63 64 67 65 64 64 64 64 64
64 64 65 68 69 69 69 68 67 67 67 68 69 70 70 70 70 70 69 69 70 70 70 69 69 68 68 69 68 68 66 64 62 63 63 63 66 65 64 64 64 63 63
62 63 63 65 65 66 66 65 65 65 64 67 68 68 68 69 69 68 67 68 69 69 70 69 69 68 68 67 66 65 66 62 62 61 62 65 67 65 64 64 64 63 63
57 62 63 63 64 64 64 64 63 61 60 62 68 69 69 69 68 68 66 67 68 68 67 69 69 68 67 64 63 62 62 62 62 62 61 65 67 66 65 64 64 63 63
53 61 62 63 63 63 64 64 63 62 62 61 61 67 68 68 68 69 67 67 66 64 64 63 67 66 64 63 62 59 56 59 61 62 62 64 66 67 66 65 65 64 64
49 56 62 63 63 63 64 63 63 61 62 62 62 62 66 68 67 68 66 66 65 64 65 64 64 65 66 64 60 58 55 54 57 59 61 64 66 67 66 66 66 65 65
47 54 61 63 63 62 62 63 63 62 61 61 61 62 65 66 66 67 67 66 64 65 65 67 64 64 64 63 59 54 53 51 52 53 55 60 64 67 67 67 66 66 66
41 51 60 62 63 62 62 62 62 62 60 59 59 60 61 65 66 66 66 66 67 65 66 66 66 64 62 61 56 53 50 49 49 50 50 52 60 64 67 68 67 67 67
40 46 54 59 62 62 62 62 62 62 61 59 58 58 59 61 64 65 66 66 66 66 65 65 64 62 61 59 56 54 51 50 49 48 49 52 54 60 64 65 67 67 67
41 42 47 55 60 61 62 62 61 61 61 59 58 59 59 59 61 63 65 65 67 66 66 64 63 62 62 59 56 54 52 51 50 50 51 52 54 54 59 63 65 67 67
39 41 45 53 56 59 59 60 60 60 60 61 61 60 60 60 60 62 64 64 65 66 65 65 63 63 60 59 57 55 53 52 50 50 51 52 54 56 56 59 62 63 66
42 44 47 52 56 58 59 59 60 59 60 60 61 61 60 60 61 62 63 63 63 64 63 64 63 62 61 59 58 56 56 54 52 52 52 53 55 57 57 58 59 59 62
44 49 55 56 57 58 58 58 58 58 59 60 61 61 60 61 61 62 63 62 63 63 61 62 62 59 59 59 57 56 55 54 54 54 54 55 56 58 58 59 59 60 60
52 56 57 57 58 58 59 59 59 59 60 60 61 61 61 61 62 61 63 62 62 62 61 61 60 59 58 58 55 54 52 52 56 55 56 56 57 58 58 59 59 59 61
53 53 54 56 56 57 58 59 59 60 60 60 60 60 61 61 62 62 63 63 62 62 61 60 60 58 56 57 57 56 54 52 54 57 57 57 57 57 57 59 59 59 60
51 53 55 54 54 54 55 57 58 57 56 57 60 60 60 60 62 63 63 63 63 62 60 59 59 58 57 55 57 57 57 58 55 54 56 56 57 55 56 58 59 59 60
49 50 50 51 51 51 52 54 58 57 59 59 60 60 60 60 61 62 62 62 61 61 60 60 59 59 58 57 56 57 57 57 57 56 54 55 55 55 56 57 59 60 59
46 47 47 47 47 48 49 50 52 54 55 54 55 56 56 57 61 61 62 61 61 61 60 60 59 59 58 58 58 57 55 55 55 56 55 55 55 57 57 57 58 59 59

GFSSE_sfc_dewp_102.txt.gz
Dewpoint
67 70 74 74 73 73 73 73 74 74 74 74 73 73 73 72 72 70 69 70 69 69 69 70 70 70 71 71 70 70 70 70 70 69 70 69 68 68 68 68 70 67 70
68 68 74 74 74 73 74 74 75 75 74 74 74 73 73 72 71 70 69 69 71 72 71 71 71 71 70 70 70 69 70 69 69 68 68 68 68 67 67 67 69 66 68
68 68 69 74 74 74 74 74 75 75 74 74 74 73 73 72 71 70 69 69 71 72 71 71 71 70 70 68 69 69 68 68 67 66 66 59 62 66 65 65 66 66 66
68 68 68 74 74 74 74 74 74 74 74 74 73 74 73 72 71 70 69 69 71 71 71 70 70 70 69 68 68 68 67 67 67 66 59 57 58 64 64 64 64 64 64
68 68 68 73 73 73 73 74 74 74 74 73 73 72 72 72 70 70 70 71 72 71 71 70 70 68 67 67 66 66 66 66 66 63 59 60 60 64 65 64 64 64 63
68 69 70 72 73 73 73 73 73 73 74 73 73 72 72 71 70 71 71 72 71 71 71 69 69 67 67 66 65 65 66 66 66 58 59 62 60 65 65 64 64 64 64
66 69 69 72 72 72 72 73 73 73 73 72 72 72 71 71 71 72 71 71 71 71 69 68 68 68 67 68 67 66 66 66 59 59 60 61 62 65 65 64 64 64 64
65 67 69 70 71 72 72 72 72 72 72 72 71 71 71 71 71 71 71 71 71 70 68 67 68 68 68 68 67 67 66 65 59 59 60 61 66 65 64 64 64 64 64
65 66 68 68 69 71 71 71 71 71 71 71 71 72 71 71 71 71 71 71 71 70 69 69 69 69 68 68 68 69 67 65 57 57 58 60 66 65 64 64 64 64 63
63 65 65 68 68 68 68 70 70 70 69 69 69 70 71 70 70 70 70 70 70 71 70 69 69 69 68 69 68 69 66 65 58 59 59 60 66 65 64 64 64 64 63
49 61 64 65 68 68 68 67 68 68 67 67 68 68 68 67 66 66 66 68 69 69 70 69 69 69 68 68 68 67 66 60 59 57 57 66 67 65 64 64 64 63 63
42 46 62 64 66 66 67 67 67 65 64 63 65 66 67 65 64 64 65 66 69 69 69 69 69 69 67 61 63 64 62 60 59 58 58 66 67 66 65 64 64 64 63
40 42 47 63 65 65 66 66 65 63 62 61 65 68 68 67 66 65 64 66 65 65 64 66 66 65 61 57 59 59 58 59 58 58 60 65 66 68 66 65 65 64 64
39 41 45 53 64 64 64 65 64 61 61 62 61 62 66 68 68 66 63 65 65 64 63 63 61 63 64 59 57 58 57 56 57 58 59 64 65 67 67 67 66 65 65
38 42 44 50 61 64 64 64 64 62 60 60 61 60 62 65 66 67 67 63 65 67 63 63 61 60 62 62 58 55 56 55 54 55 57 62 65 66 67 67 67 66 66
36 39 43 47 57 63 64 64 64 63 62 61 60 60 60 60 62 64 66 67 66 63 63 62 62 61 61 61 61 59 54 53 53 53 54 55 62 64 65 67 66 66 67
38 39 41 42 49 60 63 63 63 63 62 60 60 60 59 57 58 60 62 63 65 67 64 64 64 64 65 63 62 60 57 53 50 49 52 52 54 59 62 64 65 67 66
39 39 39 37 44 54 62 63 63 63 63 63 62 60 58 56 56 58 59 60 62 65 66 67 66 65 65 63 62 61 58 54 50 47 47 50 51 51 58 62 65 66 67
39 38 38 40 43 48 55 58 61 62 62 61 60 58 57 57 57 57 58 59 61 64 65 66 65 65 64 64 62 61 58 55 51 48 47 48 50 52 54 58 62 62 64
46 41 41 39 42 46 52 57 59 60 60 60 59 58 58 57 58 59 59 59 59 60 63 64 64 64 64 63 62 60 58 56 54 52 49 49 50 52 54 56 57 58 61
48 47 43 40 42 50 57 58 58 58 58 59 59 59 59 59 58 59 59 60 61 60 59 60 61 61 62 63 62 60 57 57 54 54 53 51 52 52 54 55 57 58 59
52 52 51 49 53 56 59 59 59 59 59 59 60 60 60 60 60 60 60 60 60 62 60 60 61 61 61 61 59 57 55 54 54 53 53 53 53 54 55 56 57 59 61
51 54 55 56 57 57 58 59 59 59 59 59 59 60 60 60 61 62 61 61 61 63 63 61 62 60 59 60 60 56 53 49 49 49 53 52 53 55 55 56 58 59 59
49 51 52 53 53 54 55 55 56 56 56 57 58 59 59 59 59 60 62 62 63 64 63 62 61 60 60 58 59 58 57 56 50 50 57 56 55 54 55 57 57 59 60
47 49 49 49 50 52 52 53 55 57 58 58 58 59 58 58 59 61 61 61 62 62 63 62 61 60 60 59 57 57 56 56 57 55 52 56 57 57 57 58 59 61 61
45 46 46 46 46 47 48 48 48 50 53 53 53 53 53 54 54 54 56 61 61 61 62 61 60 60 59 58 58 57 56 54 54 54 54 54 55 56 58 59 59 60 61

GFSSE_sfc_dewp_105.txt.gz
Dewpoint
66 70 74 74 73 73 73 73 74 75 74 74 73 73 72 72 72 68 69 68 69 68 68 69 69 70 70 70 70 70 70 70 70 69 69 70 69 68 68 68 69 67 70
68 69 74 74 73 73 73 74 75 74 75 74 74 73 72 72 71 69 69 69 69 69 69 70 70 71 70 70 69 70 70 69 68 68 68 68 69 67 67 68 70 67 69
66 68 69 74 74 74 74 74 74 74 74 74 74 73 72 72 71 69 69 69 71 71 71 71 70 70 70 69 69 68 69 68 67 67 68 59 63 66 66 66 67 66 67
67 67 68 74 74 74 74 74 74 74 74 74 74 73 73 72 72 71 69 69 71 71 71 71 71 70 69 68 68 68 68 67 65 66 59 56 57 64 64 64 64 65 65
67 69 67 73 73 73 73 74 73 73 74 74 73 73 73 72 71 70 69 70 71 71 71 71 70 70 69 68 67 67 67 66 66 64 57 59 59 64 64 64 64 63 64
65 68 71 72 73 72 72 73 73 73 73 72 72 72 72 71 70 71 72 72 72 71 70 71 69 68 67 67 65 65 65 65 66 58 58 60 60 65 64 64 65 64 64
65 67 69 72 72 72 72 72 72 72 73 72 72 71 71 70 71 71 71 71 71 70 70 69 69 67 66 66 66 65 66 66 62 57 58 60 63 64 64 64 64 63 63
65 67 68 71 72 72 72 72 72 72 72 72 72 71 71 71 71 70 71 70 71 70 69 69 69 68 67 68 67 67 67 66 59 57 58 60 66 64 64 64 63 63 63
62 65 67 69 68 71 71 72 72 72 72 72 71 71 71 72 72 71 71 70 71 70 70 69 69 68 68 68 68 68 67 65 60 56 57 59 67 64 64 64 63 63 63
48 60 65 67 69 67 67 71 71 71 71 71 71 70 70 70 71 71 71 70 71 71 70 69 69 69 69 69 69 69 67 65 60 57 58 61 67 65 64 64 64 63 63
43 45 52 65 66 68 69 68 69 70 69 68 68 68 68 66 66 67 67 68 69 70 70 69 70 70 69 68 68 68 66 61 58 57 57 67 66 65 65 64 64 64 63
41 41 42 53 65 66 66 68 67 64 65 64 65 65 65 64 63 63 64 67 69 69 69 69 69 69 68 62 65 66 64 60 58 57 56 67 66 66 64 64 64 64 64
38 41 41 44 57 65 66 66 66 65 64 63 63 64 65 64 66 64 64 65 66 66 66 67 66 64 62 57 58 61 59 59 58 57 59 66 66 67 66 65 65 65 64
39 39 41 42 47 61 64 65 65 64 63 61 61 64 67 67 67 67 61 62 66 65 64 65 64 64 63 60 54 56 57 57 57 58 59 65 66 66 67 67 66 65 65
36 42 45 44 44 53 64 64 65 65 62 61 60 60 62 65 67 67 67 68 68 67 66 66 64 62 63 62 58 54 55 55 54 55 56 63 65 66 66 67 67 67 66
33 36 43 43 45 50 62 64 65 64 63 61 60 60 59 59 61 62 63 63 64 66 65 63 62 62 60 63 61 57 54 54 54 54 54 59 64 65 66 66 68 67 66
35 37 40 43 46 48 55 63 64 64 64 62 61 60 60 59 59 59 61 62 61 61 62 66 63 62 64 64 61 60 57 55 51 52 52 54 59 63 65 65 65 67 67
38 37 38 38 42 44 48 60 63 64 64 63 62 61 60 59 58 58 58 59 60 61 61 62 64 65 65 66 65 63 60 59 55 51 49 49 53 53 59 62 65 66 67
47 44 41 41 39 42 44 53 62 63 64 63 62 61 60 59 58 56 56 57 58 60 61 64 65 64 65 65 64 64 63 61 57 51 48 48 49 52 53 59 61 62 65
48 49 49 44 40 38 44 49 54 58 62 61 59 59 58 57 56 56 57 57 57 59 59 62 62 64 64 64 63 63 63 63 60 55 49 48 48 50 52 55 59 59 61
50 51 50 46 43 40 43 46 51 54 57 59 59 59 58 58 57 58 58 57 58 58 58 59 59 61 62 63 62 62 62 61 59 57 55 52 50 51 52 53 55 57 59
50 51 52 52 47 41 45 54 55 58 59 60 59 59 59 59 59 59 59 59 59 59 58 59 60 59 61 61 60 59 56 58 59 58 56 53 51 51 52 53 54 56 58
48 50 51 53 55 56 57 59 60 60 60 60 59 59 59 59 59 60 61 60 60 60 60 61 61 60 59 60 61 58 55 53 54 56 56 54 52 52 52 52 53 54 56
47 49 50 52 52 53 54 56 56 57 56 56 57 59 58 59 57 58 59 60 60 62 62 62 62 62 61 59 61 61 60 58 53 51 55 54 53 51 51 54 54 55 58
46 48 49 49 50 50 50 51 53 52 55 56 56 56 56 55 54 53 54 56 59 61 61 61 62 62 62 61 59 59 59 59 57 55 51 54 55 51 52 54 56 58 58
45 45 45 45 45 48 48 48 48 48 48 48 49 50 50 51 52 50 51 53 54 56 61 61 62 61 61 60 60 59 57 56 55 54 54 54 55 57 59 59 60 61 62

GFSSE_sfc_dewp_108.txt.gz
Dewpoint
67 69 75 74 74 73 73 73 74 75 75 74 72 72 72 72 71 68 68 69 69 68 68 69 69 70 70 69 70 70 70 70 70 70 70 70 69 69 70 69 70 69 70
67 69 74 74 74 74 74 74 74 74 75 74 73 73 72 72 71 68 69 68 69 68 68 70 70 70 70 70 70 70 70 69 68 68 68 68 69 68 68 68 70 68 69
66 69 69 74 74 74 74 74 74 74 74 74 73 73 73 72 71 69 68 69 70 69 70 70 71 71 71 69 70 69 69 68 66 67 68 64 65 66 66 67 67 67 67
66 69 69 73 73 74 74 73 73 74 74 73 73 73 72 72 71 70 69 68 70 70 70 71 71 71 70 68 68 68 68 66 66 66 63 60 61 64 65 65 65 65 65
65 68 70 73 74 73 73 74 74 73 73 73 72 72 72 72 71 71 69 70 71 72 71 71 72 71 70 68 68 68 67 65 66 64 61 60 61 64 64 64 63 65 65
65 68 70 72 72 73 73 73 73 73 73 72 72 73 73 72 71 71 71 71 72 71 71 71 70 70 69 68 67 67 65 65 66 61 59 62 63 65 65 65 65 64 64
63 66 69 72 72 73 72 72 72 72 73 73 72 72 72 72 71 71 71 71 72 71 71 70 69 68 67 67 65 65 65 66 63 61 58 60 63 65 65 64 64 64 64
64 65 67 70 72 72 72 72 72 72 72 72 72 72 72 72 72 71 71 71 71 71 71 70 69 68 67 66 67 67 67 66 61 59 58 63 67 65 64 64 64 64 63
52 61 64 66 69 70 71 71 72 72 72 72 71 72 71 72 72 71 71 71 71 71 70 70 70 69 68 68 69 68 67 65 61 60 57 64 67 65 65 64 64 64 64
46 50 48 63 67 69 69 70 70 71 71 71 71 70 70 70 70 71 71 71 71 71 71 70 70 70 69 69 69 69 67 65 62 60 58 63 68 65 65 65 64 64 64
45 45 46 52 64 66 68 69 69 70 70 69 69 68 68 68 68 68 68 68 70 71 71 70 70 70 69 68 68 68 67 64 61 59 57 67 67 65 65 65 65 64 64
41 42 42 45 50 65 65 67 69 68 67 67 66 65 66 65 64 66 66 67 69 69 70 70 70 69 68 66 67 67 66 64 61 58 59 68 67 65 65 65 65 65 64
38 41 42 43 46 57 64 66 67 67 67 65 63 64 65 65 66 66 65 66 67 66 67 68 68 67 67 65 63 65 64 63 61 58 62 67 67 65 65 66 65 65 65
38 41 42 42 45 47 63 64 65 66 66 63 61 62 65 66 67 66 66 67 67 66 66 66 66 65 64 62 60 62 62 60 59 58 62 65 67 66 66 66 66 65 65
36 40 43 44 44 45 54 63 64 64 66 64 61 60 62 65 65 66 66 66 67 67 66 66 65 64 64 63 61 57 56 58 56 57 60 63 66 67 66 67 68 67 66
36 38 40 43 45 45 47 62 63 64 64 64 62 60 60 62 63 64 63 63 63 65 66 66 65 65 64 65 64 63 54 55 55 54 55 61 64 66 67 66 67 68 67
40 39 40 42 44 44 45 53 63 64 64 64 62 61 60 59 60 60 62 61 61 61 61 63 64 64 65 64 64 63 64 56 54 53 54 57 62 63 65 66 66 67 68
47 47 46 44 42 44 44 47 61 62 64 64 64 62 60 60 59 59 59 60 61 60 61 61 62 63 63 63 63 64 64 63 58 52 51 50 57 59 63 65 66 67 67
49 48 50 50 48 43 42 44 51 63 64 64 64 63 62 61 59 58 58 58 57 59 60 61 62 63 63 62 63 63 63 63 62 57 54 50 49 53 56 60 63 64 65
49 50 50 51 52 46 43 44 47 60 63 64 64 63 62 59 58 57 57 57 57 57 58 60 61 62 62 62 63 63 63 63 63 61 57 55 49 48 51 53 57 58 62
47 49 50 51 53 53 44 42 46 51 55 62 63 61 60 59 59 58 58 58 57 57 57 57 58 60 60 61 60 62 62 62 62 62 60 55 52 49 48 50 54 57 58
47 48 48 50 52 53 54 49 47 54 57 58 61 60 60 60 60 59 59 59 59 58 58 58 57 58 59 61 60 59 56 58 61 61 60 57 53 50 50 51 52 54 56
46 47 49 50 51 52 53 56 55 56 57 57 58 59 60 59 58 58 57 58 59 60 59 59 59 58 58 59 60 58 55 53 55 59 59 58 57 55 51 50 51 53 55
45 47 48 49 49 50 51 53 53 54 54 56 58 57 57 56 54 53 53 54 55 56 58 60 60 60 59 57 58 60 59 57 53 53 56 57 57 56 53 51 50 50 53
44 45 46 47 47 49 50 51 51 51 51 51 51 51 51 52 52 50 51 52 52 53 53 53 58 59 59 58 58 58 59 59 59 56 53 55 56 55 53 52 52 53 54
43 43 43 43 43 44 45 48 48 47 47 47 47 47 47 47 48 47 48 49 50 50 51 52 52 56 59 59 59 59 58 57 56 57 55 54 55 56 56 55 55 57 59

GFSSE_sfc_dewp_111.txt.gz
Dewpoint
67 69 74 75 74 74 73 73 74 74 74 73 72 72 72 71 69 68 69 69 69 68 69 69 70 69 69 70 70 69 71 70 70 70 70 70 70 70 70 70 70 69 69
67 70 73 74 74 74 74 74 74 74 74 74 73 72 71 72 69 68 68 68 68 68 69 69 71 71 70 69 70 70 70 68 68 69 69 68 69 69 69 69 70 68 68
66 69 70 74 74 74 74 74 73 74 74 74 73 73 72 72 70 68 69 68 68 69 69 70 70 71 70 69 70 69 69 67 66 68 68 65 65 66 67 67 68 68 67
65 69 70 73 73 74 74 73 73 73 74 73 73 72 72 72 71 70 68 68 69 70 70 71 71 71 69 69 67 68 68 66 66 66 64 63 62 65 64 65 65 65 65
65 68 70 72 72 72 73 74 73 73 73 73 73 73 73 72 71 71 70 70 71 71 71 71 71 71 69 68 68 68 67 66 66 63 60 60 63 64 64 63 65 65 64
64 66 71 72 72 72 72 72 73 73 73 73 73 73 73 71 70 71 71 71 71 71 71 71 71 70 70 68 68 68 66 65 66 60 60 64 63 65 66 65 65 64 64
63 65 67 72 72 72 72 72 72 72 72 72 72 72 72 71 71 72 72 71 71 72 71 70 70 69 69 68 67 66 65 66 62 61 58 63 64 65 65 65 64 64 64
53 62 65 68 70 71 72 71 71 71 72 72 72 72 72 72 71 71 72 71 72 71 71 70 69 69 68 67 66 66 67 66 61 59 58 63 67 65 65 65 64 64 64
49 49 48 62 67 69 70 70 71 71 71 72 71 71 71 71 72 72 72 71 71 72 72 71 71 69 68 67 68 69 68 66 62 59 60 64 68 66 65 65 64 64 64
44 46 44 51 64 67 68 69 70 70 70 70 70 70 69 69 70 71 71 71 71 72 72 71 71 70 69 69 69 69 67 66 62 60 60 63 68 66 66 65 65 64 64
43 42 41 45 46 62 67 69 69 69 69 69 69 68 68 68 68 69 69 69 70 71 71 71 71 70 69 68 69 68 67 65 62 61 59 65 68 66 66 65 65 65 64
36 36 39 40 44 48 64 65 68 68 68 67 67 66 66 66 67 67 67 67 69 69 70 71 70 70 68 67 67 67 66 64 63 61 59 67 68 66 66 66 65 65 65
34 38 40 40 41 44 53 64 65 67 67 67 65 64 65 65 65 65 65 67 67 66 68 69 69 68 67 66 65 65 65 64 64 62 60 67 69 67 66 66 66 65 65
35 38 41 42 41 43 46 60 64 65 66 66 64 63 63 66 66 66 66 66 66 67 66 67 67 66 66 66 65 63 65 64 63 62 59 66 68 68 66 66 66 66 66
37 39 40 42 43 43 44 50 62 63 65 65 64 61 62 64 64 65 65 66 67 67 66 65 66 66 65 64 63 62 62 63 61 60 59 64 66 68 68 67 67 67 66
43 45 42 43 42 43 44 44 57 62 64 64 64 61 60 62 63 64 64 64 64 65 67 66 65 65 65 65 64 63 60 60 60 58 57 61 64 66 68 68 68 68 68
49 50 50 51 51 44 44 44 49 61 63 62 64 64 60 60 61 62 62 62 61 61 62 63 64 64 64 65 65 65 65 64 56 57 56 59 62 63 66 68 68 68 69
49 50 50 50 52 52 50 44 45 57 61 61 62 64 63 60 61 60 60 61 61 60 60 60 61 62 62 63 62 63 63 64 64 62 58 56 59 61 63 65 66 67 68
48 49 49 50 52 53 53 47 44 47 60 62 63 64 64 63 62 60 59 59 58 58 59 60 60 61 61 61 61 62 62 63 63 63 60 57 55 59 59 62 64 64 66
46 47 49 49 50 51 53 51 45 46 54 61 63 63 63 63 62 61 60 59 58 57 57 58 59 60 60 60 61 62 62 63 63 62 61 58 55 53 55 56 59 61 63
46 46 47 47 49 50 50 52 51 44 48 57 61 61 62 62 61 60 60 59 58 57 57 57 57 59 59 59 59 60 61 62 62 62 62 60 59 55 51 51 54 56 57
45 46 47 48 49 50 50 50 54 51 53 54 58 59 60 60 59 59 58 58 58 59 59 58 57 57 57 59 58 57 55 54 60 61 62 61 60 57 53 50 50 54 55
44 46 46 48 48 49 50 51 53 54 54 54 55 57 56 55 54 54 55 55 54 55 55 56 58 58 57 58 59 57 53 51 53 59 61 61 60 59 56 54 51 50 51
44 45 45 46 45 45 47 50 51 51 51 52 53 53 54 53 52 52 52 52 53 53 52 53 53 54 56 56 58 58 58 56 53 52 57 59 60 59 57 56 53 50 51
44 44 44 43 43 44 45 45 48 48 50 50 50 49 49 50 49 49 49 50 50 51 51 51 50 51 51 53 56 57 57 57 57 55 53 54 58 58 58 57 56 54 52
43 43 42 41 41 40 41 43 44 45 45 46 45 45 45 46 46 46 46 48 48 48 48 49 49 48 49 49 49 51 56 55 53 55 55 55 55 56 58 58 57 55 54

GFSSE_sfc_dewp_114.txt.gz
Dewpoint
65 70 73 74 74 74 73 73 73 73 73 73 72 72 72 70 69 69 69 69 68 68 69 69 68 68 69 70 69 70 70 70 70 70 70 70 70 70 70 70 70 68 69
66 70 72 73 72 73 73 74 74 74 74 73 72 71 71 71 68 69 68 68 68 68 69 70 70 70 70 70 70 70 68 68 69 69 69 68 69 69 69 70 69 67 67
66 68 70 73 73 72 73 73 73 74 73 73 72 72 71 71 69 69 69 69 69 68 69 70 70 70 69 70 70 69 68 67 67 68 67 64 65 67 68 68 68 68 66
66 67 70 72 72 73 73 73 73 74 73 73 73 72 72 71 70 69 69 69 69 70 70 70 71 70 69 68 68 69 68 66 66 68 64 62 62 64 65 65 65 65 65
64 67 70 72 72 72 73 73 73 73 73 73 73 73 72 72 71 71 70 69 70 70 71 71 71 71 69 69 67 68 67 66 65 63 60 61 63 64 63 64 64 64 65
63 66 70 72 72 71 72 72 72 73 73 73 73 73 73 71 71 71 71 71 70 71 71 71 71 70 70 69 69 68 67 66 65 60 60 63 63 64 65 65 65 64 64
55 61 66 70 71 71 71 71 72 72 72 73 72 72 71 71 71 71 71 71 71 71 71 71 71 70 69 68 68 68 67 66 61 61 60 64 63 66 66 65 64 64 63
49 49 51 67 69 70 71 71 71 71 71 72 72 71 72 71 72 72 72 72 72 71 71 71 71 70 69 69 68 67 67 65 61 60 58 63 66 66 65 65 64 64 64
46 46 44 52 62 68 70 70 70 71 71 71 71 71 71 71 71 71 71 72 72 71 72 72 71 70 69 68 68 68 67 66 61 59 60 63 68 66 66 65 64 64 64
41 43 41 43 48 56 66 69 69 70 70 70 70 70 69 69 70 71 70 71 72 72 72 71 71 71 70 69 68 69 67 66 62 59 59 62 67 67 66 66 65 65 64
39 36 38 40 41 47 59 66 68 69 69 69 69 68 68 68 68 68 68 69 70 71 71 71 71 71 70 68 69 68 67 65 63 61 59 61 67 67 66 66 65 65 65
33 34 38 39 41 41 45 59 64 66 68 67 68 67 67 67 67 67 66 67 69 70 70 71 71 70 69 67 67 67 66 65 63 63 60 62 65 68 67 67 66 65 65
33 37 40 40 41 41 44 51 60 64 65 67 66 66 65 65 65 65 64 66 67 66 68 69 69 69 67 66 66 66 65 64 64 64 63 64 65 68 67 67 66 66 65
38 41 43 43 42 42 44 44 51 59 63 64 65 65 64 64 65 65 66 65 66 67 66 66 67 67 66 66 65 65 65 65 65 64 62 63 66 67 68 67 67 66 66
48 49 50 50 49 45 43 45 47 54 60 63 64 65 63 62 63 64 65 65 67 67 67 66 66 66 66 65 66 65 63 64 64 63 62 61 64 67 69 69 67 67 66
49 50 51 51 52 52 51 46 45 50 57 62 63 64 63 61 62 63 64 64 65 66 67 66 65 64 65 65 65 64 63 62 63 62 61 60 63 65 68 69 69 68 67
48 49 49 49 51 52 53 53 49 48 53 59 61 62 63 62 61 61 62 62 62 63 64 65 64 64 63 64 64 65 64 63 61 62 61 59 60 63 66 68 68 68 68
47 47 48 49 50 52 52 53 52 47 49 56 59 60 62 63 62 61 61 62 62 61 60 60 61 61 62 61 62 63 64 63 64 63 60 60 59 61 63 66 67 68 68
46 46 47 48 48 50 51 53 53 49 49 52 59 61 61 62 63 61 61 61 61 60 60 59 59 60 60 60 60 61 61 62 62 64 63 60 57 58 60 61 64 64 66
46 46 46 46 47 49 49 50 51 52 51 52 56 59 61 61 62 62 62 61 60 60 59 59 58 59 59 59 60 60 60 61 61 62 62 62 60 57 57 59 59 62 64
45 45 46 46 47 47 47 47 49 51 53 51 54 59 58 58 59 60 61 60 60 59 58 58 57 57 57 58 57 57 59 60 61 61 62 62 61 57 55 55 57 57 59
44 45 45 46 46 46 48 49 50 51 53 54 56 55 54 54 55 56 57 57 57 58 57 57 58 57 56 57 56 55 53 53 57 60 61 61 61 61 59 55 53 53 54
43 45 45 45 45 45 47 50 50 51 52 52 53 54 52 52 53 53 54 55 54 54 53 53 53 53 54 54 56 56 52 49 52 55 58 60 60 61 60 59 57 54 53
42 45 45 44 44 43 45 47 47 48 48 49 51 51 51 49 50 51 51 51 52 52 51 51 51 51 52 52 54 56 56 56 52 50 52 55 59 60 60 60 58 55 52
43 44 42 42 41 41 42 43 45 45 47 47 47 46 47 47 46 47 48 48 49 49 49 50 48 48 49 48 49 49 50 52 55 53 51 51 53 56 59 59 59 57 55
43 43 42 40 38 39 39 39 40 41 41 42 43 42 42 42 42 42 45 46 46 46 46 48 48 48 47 47 47 47 47 47 46 47 49 51 52 53 57 59 58 58 57

GFSSE_sfc_dewp_117.txt.gz
Dewpoint
65 70 72 73 71 72 73 72 72 72 73 72 72 72 71 69 69 69 69 68 68 69 69 68 67 67 68 69 69 70 69 70 70 70 70 70 70 70 70 70 69 68 68
65 68 73 73 72 71 72 72 72 73 73 72 72 72 71 69 68 68 68 68 68 69 69 69 69 68 69 69 69 69 69 69 69 68 69 69 70 69 70 69 69 67 67
66 67 70 72 72 72 73 73 73 73 73 72 72 72 71 70 68 69 68 68 68 68 69 70 70 69 69 70 70 68 67 67 68 67 66 64 66 68 68 68 68 67 66
64 67 70 72 72 72 72 72 72 73 73 72 72 71 71 71 69 69 68 68 69 70 70 70 71 70 69 70 69 68 67 65 67 67 63 62 63 65 66 66 66 66 65
63 67 69 71 71 71 72 72 72 72 72 72 72 73 72 71 71 70 69 69 70 70 70 70 71 70 69 69 68 69 67 65 66 64 60 61 62 63 63 63 64 64 65
55 59 68 71 71 71 72 72 72 72 72 72 72 72 72 71 71 71 71 71 70 71 70 71 71 71 70 69 67 68 67 66 64 59 60 61 63 64 63 65 65 64 64
47 47 54 66 69 71 71 70 70 71 72 72 72 71 71 71 71 71 71 71 71 70 70 71 71 70 69 68 68 68 68 67 60 60 60 63 63 66 65 65 64 64 64
47 46 45 53 57 65 69 71 70 70 71 71 72 71 71 71 71 71 71 71 71 70 70 71 71 70 69 68 68 68 68 66 61 60 59 63 64 67 65 65 64 64 63
44 41 39 43 48 56 63 68 70 70 71 71 71 71 71 71 71 71 71 71 71 71 71 71 71 71 70 69 69 69 67 66 60 59 59 61 65 67 66 65 65 64 64
37 37 36 39 43 47 51 63 66 69 70 70 70 70 69 69 70 71 70 70 72 71 71 71 72 71 70 70 69 68 67 66 62 60 58 61 65 68 66 66 65 65 64
37 35 38 40 40 43 46 56 59 65 67 68 68 68 67 68 68 68 68 68 70 71 71 71 71 71 69 68 68 68 67 65 62 61 59 61 65 68 67 67 66 65 65
34 39 42 42 42 42 41 47 53 58 62 65 67 67 67 67 67 67 66 67 68 69 70 71 71 70 69 67 67 67 66 65 63 63 62 63 63 66 68 68 67 66 65
39 47 49 48 47 45 44 46 46 53 58 62 65 66 66 65 65 65 65 64 66 65 67 68 69 69 67 67 66 65 66 65 64 64 64 65 65 64 67 68 68 66 65
49 50 51 51 51 50 48 47 45 48 53 58 61 65 65 65 65 64 65 65 65 65 66 66 67 67 67 66 66 65 65 65 64 64 63 65 65 65 66 68 69 67 66
48 49 50 50 51 51 52 50 49 47 50 52 58 62 64 63 63 64 64 65 65 65 65 66 66 66 66 65 65 65 64 64 64 64 64 63 64 65 65 66 69 67 67
47 48 49 49 50 51 51 52 52 49 49 52 57 59 62 63 62 62 63 63 64 65 66 66 65 65 65 65 65 65 65 65 64 64 64 63 63 64 66 65 67 68 67
46 47 47 48 49 50 50 50 52 52 49 49 53 56 58 61 62 62 62 62 62 63 64 64 63 63 64 64 65 65 65 64 64 63 64 63 62 62 64 65 67 68 68
45 46 47 47 48 49 49 50 51 52 51 50 51 55 56 59 61 61 61 61 62 62 61 61 61 61 62 61 62 62 63 63 64 62 62 62 62 61 62 64 66 67 67
45 45 45 46 47 47 49 49 50 51 52 52 52 54 57 58 60 62 62 62 61 61 60 59 59 59 59 59 60 60 60 61 61 63 63 62 61 59 59 61 63 64 65
45 45 45 45 46 46 48 48 48 50 52 54 54 56 57 57 59 59 61 61 61 60 60 59 58 58 59 59 59 59 59 59 60 60 61 62 62 61 58 58 59 61 63
44 45 45 45 45 45 47 48 49 49 50 54 55 54 54 55 56 56 58 59 59 59 59 59 58 57 57 58 56 56 56 58 59 60 60 61 61 61 61 59 58 58 59
43 44 44 44 44 45 46 47 50 51 53 54 54 52 51 52 53 53 55 55 55 56 55 55 54 56 58 58 55 55 50 51 55 58 59 60 60 61 61 59 57 56 57
41 42 44 43 43 43 44 47 48 50 51 50 50 51 49 48 50 51 52 52 53 53 53 52 52 52 52 54 54 55 51 47 51 52 55 58 59 60 60 60 60 57 55
41 42 42 41 42 40 42 44 45 47 46 46 47 47 46 45 46 47 48 49 50 51 51 50 50 50 51 49 51 51 51 51 48 47 51 52 54 55 57 59 60 60 59
41 41 41 40 39 40 40 40 42 41 44 45 45 43 44 43 41 42 45 46 46 46 48 48 48 48 48 48 47 47 48 48 49 46 46 46 47 49 53 56 57 59 59
42 41 40 38 35 36 39 39 39 39 39 39 38 38 38 39 39 38 39 40 42 44 44 44 43 44 44 45 45 44 44 46 45 44 43 43 44 46 46 48 56 57 58